<?xml version="1.0" encoding="UTF-8" standalone="no" ?>
<gpx xmlns="http://www.topografix.com/GPX/1/1" xmlns:xsi="http://www.w3.org/2001/XMLSchema-instance" xsi:schemaLocation="http://www.topografix.com/GPX/1/1 http://www.topografix.com/GPX/1/1/gpx.xsd" version="1.1" creator="VisuGPX - https://www.visugpx.com">
  <metadata>
    <name>Enduro Ainsa</name>
  </metadata>
  <trk>
    <name><![CDATA[enduro ainsa]]></name>
    <trkseg>
      <trkpt lat="42.43315" lon="0.08413">
        <ele>570.2</ele>
        <time>2014-05-18T07:44:36Z</time>
      </trkpt>
      <trkpt lat="42.43299" lon="0.08413">
        <ele>570.68</ele>
        <time>2014-05-18T07:44:45Z</time>
      </trkpt>
      <trkpt lat="42.43297" lon="0.08413">
        <ele>572.12</ele>
        <time>2014-05-18T07:46:42Z</time>
      </trkpt>
      <trkpt lat="42.43297" lon="0.08414">
        <ele>572.12</ele>
        <time>2014-05-18T07:46:58Z</time>
      </trkpt>
      <trkpt lat="42.43295" lon="0.08414">
        <ele>573.56</ele>
        <time>2014-05-18T07:49:36Z</time>
      </trkpt>
      <trkpt lat="42.43293" lon="0.08413">
        <ele>573.56</ele>
        <time>2014-05-18T07:50:09Z</time>
      </trkpt>
      <trkpt lat="42.43292" lon="0.08412">
        <ele>573.56</ele>
        <time>2014-05-18T07:50:29Z</time>
      </trkpt>
      <trkpt lat="42.43291" lon="0.08413">
        <ele>573.56</ele>
        <time>2014-05-18T07:51:18Z</time>
      </trkpt>
      <trkpt lat="42.4329" lon="0.08414">
        <ele>574.53</ele>
        <time>2014-05-18T07:52:48Z</time>
      </trkpt>
      <trkpt lat="42.43289" lon="0.08416">
        <ele>574.53</ele>
        <time>2014-05-18T07:52:57Z</time>
      </trkpt>
      <trkpt lat="42.43289" lon="0.08416">
        <ele>574.53</ele>
        <time>2014-05-18T07:53:13Z</time>
      </trkpt>
      <trkpt lat="42.43285" lon="0.0842">
        <ele>574.04</ele>
        <time>2014-05-18T07:53:21Z</time>
      </trkpt>
      <trkpt lat="42.43285" lon="0.0842">
        <ele>574.53</ele>
        <time>2014-05-18T07:53:40Z</time>
      </trkpt>
      <trkpt lat="42.43283" lon="0.08424">
        <ele>575.01</ele>
        <time>2014-05-18T07:53:49Z</time>
      </trkpt>
      <trkpt lat="42.43283" lon="0.08424">
        <ele>574.53</ele>
        <time>2014-05-18T07:54:02Z</time>
      </trkpt>
      <trkpt lat="42.43297" lon="0.08436">
        <ele>573.56</ele>
        <time>2014-05-18T07:54:09Z</time>
      </trkpt>
      <trkpt lat="42.43323" lon="0.08461">
        <ele>572.6</ele>
        <time>2014-05-18T07:54:16Z</time>
      </trkpt>
      <trkpt lat="42.43348" lon="0.08462">
        <ele>572.6</ele>
        <time>2014-05-18T07:54:21Z</time>
      </trkpt>
      <trkpt lat="42.43354" lon="0.08458">
        <ele>573.56</ele>
        <time>2014-05-18T07:54:22Z</time>
      </trkpt>
      <trkpt lat="42.43389" lon="0.08398">
        <ele>573.08</ele>
        <time>2014-05-18T07:54:34Z</time>
      </trkpt>
      <trkpt lat="42.43398" lon="0.08387">
        <ele>573.08</ele>
        <time>2014-05-18T07:54:36Z</time>
      </trkpt>
      <trkpt lat="42.43428" lon="0.08341">
        <ele>573.08</ele>
        <time>2014-05-18T07:54:46Z</time>
      </trkpt>
      <trkpt lat="42.43431" lon="0.08337">
        <ele>573.08</ele>
        <time>2014-05-18T07:54:47Z</time>
      </trkpt>
      <trkpt lat="42.4344" lon="0.08311">
        <ele>574.04</ele>
        <time>2014-05-18T07:54:52Z</time>
      </trkpt>
      <trkpt lat="42.43438" lon="0.08304">
        <ele>574.04</ele>
        <time>2014-05-18T07:54:53Z</time>
      </trkpt>
      <trkpt lat="42.43418" lon="0.08233">
        <ele>574.53</ele>
        <time>2014-05-18T07:55:04Z</time>
      </trkpt>
      <trkpt lat="42.43401" lon="0.08176">
        <ele>575.97</ele>
        <time>2014-05-18T07:55:14Z</time>
      </trkpt>
      <trkpt lat="42.43388" lon="0.08152">
        <ele>577.89</ele>
        <time>2014-05-18T07:55:20Z</time>
      </trkpt>
      <trkpt lat="42.43382" lon="0.08089">
        <ele>577.89</ele>
        <time>2014-05-18T07:55:31Z</time>
      </trkpt>
      <trkpt lat="42.43378" lon="0.08008">
        <ele>578.85</ele>
        <time>2014-05-18T07:55:44Z</time>
      </trkpt>
      <trkpt lat="42.43377" lon="0.07995">
        <ele>578.85</ele>
        <time>2014-05-18T07:55:46Z</time>
      </trkpt>
      <trkpt lat="42.4338" lon="0.07971">
        <ele>578.85</ele>
        <time>2014-05-18T07:55:50Z</time>
      </trkpt>
      <trkpt lat="42.43416" lon="0.07905">
        <ele>579.81</ele>
        <time>2014-05-18T07:56:03Z</time>
      </trkpt>
      <trkpt lat="42.43455" lon="0.07834">
        <ele>580.29</ele>
        <time>2014-05-18T07:56:17Z</time>
      </trkpt>
      <trkpt lat="42.43486" lon="0.07779">
        <ele>580.29</ele>
        <time>2014-05-18T07:56:28Z</time>
      </trkpt>
      <trkpt lat="42.43501" lon="0.07753">
        <ele>580.29</ele>
        <time>2014-05-18T07:56:34Z</time>
      </trkpt>
      <trkpt lat="42.43503" lon="0.07733">
        <ele>581.25</ele>
        <time>2014-05-18T07:56:37Z</time>
      </trkpt>
      <trkpt lat="42.43519" lon="0.07696">
        <ele>581.73</ele>
        <time>2014-05-18T07:56:45Z</time>
      </trkpt>
      <trkpt lat="42.43554" lon="0.07661">
        <ele>581.73</ele>
        <time>2014-05-18T07:56:54Z</time>
      </trkpt>
      <trkpt lat="42.43564" lon="0.0763">
        <ele>582.22</ele>
        <time>2014-05-18T07:56:59Z</time>
      </trkpt>
      <trkpt lat="42.43568" lon="0.07604">
        <ele>582.7</ele>
        <time>2014-05-18T07:57:03Z</time>
      </trkpt>
      <trkpt lat="42.4358" lon="0.07584">
        <ele>582.7</ele>
        <time>2014-05-18T07:57:08Z</time>
      </trkpt>
      <trkpt lat="42.4359" lon="0.07566">
        <ele>582.22</ele>
        <time>2014-05-18T07:57:12Z</time>
      </trkpt>
      <trkpt lat="42.4361" lon="0.07459">
        <ele>581.73</ele>
        <time>2014-05-18T07:57:29Z</time>
      </trkpt>
      <trkpt lat="42.43617" lon="0.07405">
        <ele>584.14</ele>
        <time>2014-05-18T07:57:39Z</time>
      </trkpt>
      <trkpt lat="42.43626" lon="0.07377">
        <ele>585.58</ele>
        <time>2014-05-18T07:57:47Z</time>
      </trkpt>
      <trkpt lat="42.43634" lon="0.07338">
        <ele>585.58</ele>
        <time>2014-05-18T07:57:54Z</time>
      </trkpt>
      <trkpt lat="42.43641" lon="0.07311">
        <ele>585.58</ele>
        <time>2014-05-18T07:57:59Z</time>
      </trkpt>
      <trkpt lat="42.43652" lon="0.07264">
        <ele>586.06</ele>
        <time>2014-05-18T07:58:08Z</time>
      </trkpt>
      <trkpt lat="42.43653" lon="0.07254">
        <ele>586.06</ele>
        <time>2014-05-18T07:58:10Z</time>
      </trkpt>
      <trkpt lat="42.43652" lon="0.07219">
        <ele>586.54</ele>
        <time>2014-05-18T07:58:16Z</time>
      </trkpt>
      <trkpt lat="42.43663" lon="0.0719">
        <ele>585.1</ele>
        <time>2014-05-18T07:58:21Z</time>
      </trkpt>
      <trkpt lat="42.43671" lon="0.07152">
        <ele>585.58</ele>
        <time>2014-05-18T07:58:27Z</time>
      </trkpt>
      <trkpt lat="42.43669" lon="0.07127">
        <ele>587.98</ele>
        <time>2014-05-18T07:58:34Z</time>
      </trkpt>
      <trkpt lat="42.43667" lon="0.07121">
        <ele>588.95</ele>
        <time>2014-05-18T07:58:36Z</time>
      </trkpt>
      <trkpt lat="42.43665" lon="0.07111">
        <ele>590.39</ele>
        <time>2014-05-18T07:58:40Z</time>
      </trkpt>
      <trkpt lat="42.43664" lon="0.07086">
        <ele>592.79</ele>
        <time>2014-05-18T07:58:51Z</time>
      </trkpt>
      <trkpt lat="42.43663" lon="0.07084">
        <ele>592.79</ele>
        <time>2014-05-18T07:58:52Z</time>
      </trkpt>
      <trkpt lat="42.43661" lon="0.07073">
        <ele>594.71</ele>
        <time>2014-05-18T07:58:58Z</time>
      </trkpt>
      <trkpt lat="42.43667" lon="0.07047">
        <ele>597.12</ele>
        <time>2014-05-18T07:59:10Z</time>
      </trkpt>
      <trkpt lat="42.43672" lon="0.07021">
        <ele>596.15</ele>
        <time>2014-05-18T07:59:19Z</time>
      </trkpt>
      <trkpt lat="42.43674" lon="0.06981">
        <ele>598.08</ele>
        <time>2014-05-18T07:59:28Z</time>
      </trkpt>
      <trkpt lat="42.43674" lon="0.06951">
        <ele>597.12</ele>
        <time>2014-05-18T07:59:35Z</time>
      </trkpt>
      <trkpt lat="42.43674" lon="0.06944">
        <ele>596.15</ele>
        <time>2014-05-18T07:59:36Z</time>
      </trkpt>
      <trkpt lat="42.43679" lon="0.0692">
        <ele>593.75</ele>
        <time>2014-05-18T07:59:39Z</time>
      </trkpt>
      <trkpt lat="42.43682" lon="0.06905">
        <ele>593.27</ele>
        <time>2014-05-18T07:59:41Z</time>
      </trkpt>
      <trkpt lat="42.43699" lon="0.06871">
        <ele>589.91</ele>
        <time>2014-05-18T07:59:45Z</time>
      </trkpt>
      <trkpt lat="42.43707" lon="0.06852">
        <ele>588.95</ele>
        <time>2014-05-18T07:59:47Z</time>
      </trkpt>
      <trkpt lat="42.43722" lon="0.0682">
        <ele>589.43</ele>
        <time>2014-05-18T07:59:51Z</time>
      </trkpt>
      <trkpt lat="42.43726" lon="0.06813">
        <ele>589.43</ele>
        <time>2014-05-18T07:59:52Z</time>
      </trkpt>
      <trkpt lat="42.43757" lon="0.06779">
        <ele>588.46</ele>
        <time>2014-05-18T07:59:58Z</time>
      </trkpt>
      <trkpt lat="42.43779" lon="0.06767">
        <ele>588.95</ele>
        <time>2014-05-18T08:00:03Z</time>
      </trkpt>
      <trkpt lat="42.43793" lon="0.06747">
        <ele>587.5</ele>
        <time>2014-05-18T08:00:07Z</time>
      </trkpt>
      <trkpt lat="42.43796" lon="0.06731">
        <ele>588.46</ele>
        <time>2014-05-18T08:00:09Z</time>
      </trkpt>
      <trkpt lat="42.43801" lon="0.06707">
        <ele>590.39</ele>
        <time>2014-05-18T08:00:13Z</time>
      </trkpt>
      <trkpt lat="42.43816" lon="0.0671">
        <ele>589.91</ele>
        <time>2014-05-18T08:00:17Z</time>
      </trkpt>
      <trkpt lat="42.4382" lon="0.06715">
        <ele>588.95</ele>
        <time>2014-05-18T08:00:18Z</time>
      </trkpt>
      <trkpt lat="42.43825" lon="0.06727">
        <ele>588.95</ele>
        <time>2014-05-18T08:00:20Z</time>
      </trkpt>
      <trkpt lat="42.43841" lon="0.06739">
        <ele>590.39</ele>
        <time>2014-05-18T08:00:25Z</time>
      </trkpt>
      <trkpt lat="42.43845" lon="0.06737">
        <ele>590.39</ele>
        <time>2014-05-18T08:00:26Z</time>
      </trkpt>
      <trkpt lat="42.43908" lon="0.06723">
        <ele>589.91</ele>
        <time>2014-05-18T08:00:41Z</time>
      </trkpt>
      <trkpt lat="42.43961" lon="0.06708">
        <ele>589.91</ele>
        <time>2014-05-18T08:00:53Z</time>
      </trkpt>
      <trkpt lat="42.43979" lon="0.06694">
        <ele>591.83</ele>
        <time>2014-05-18T08:00:58Z</time>
      </trkpt>
      <trkpt lat="42.43992" lon="0.06685">
        <ele>593.75</ele>
        <time>2014-05-18T08:01:03Z</time>
      </trkpt>
      <trkpt lat="42.44006" lon="0.0668">
        <ele>594.71</ele>
        <time>2014-05-18T08:01:09Z</time>
      </trkpt>
      <trkpt lat="42.4402" lon="0.06682">
        <ele>592.79</ele>
        <time>2014-05-18T08:01:13Z</time>
      </trkpt>
      <trkpt lat="42.44036" lon="0.06684">
        <ele>589.91</ele>
        <time>2014-05-18T08:01:16Z</time>
      </trkpt>
      <trkpt lat="42.44061" lon="0.06686">
        <ele>590.39</ele>
        <time>2014-05-18T08:01:20Z</time>
      </trkpt>
      <trkpt lat="42.44083" lon="0.06681">
        <ele>594.23</ele>
        <time>2014-05-18T08:01:25Z</time>
      </trkpt>
      <trkpt lat="42.44101" lon="0.06681">
        <ele>596.15</ele>
        <time>2014-05-18T08:01:35Z</time>
      </trkpt>
      <trkpt lat="42.4413" lon="0.06683">
        <ele>596.64</ele>
        <time>2014-05-18T08:01:44Z</time>
      </trkpt>
      <trkpt lat="42.44145" lon="0.0668">
        <ele>596.64</ele>
        <time>2014-05-18T08:01:49Z</time>
      </trkpt>
      <trkpt lat="42.44163" lon="0.06679">
        <ele>596.64</ele>
        <time>2014-05-18T08:01:55Z</time>
      </trkpt>
      <trkpt lat="42.44193" lon="0.06672">
        <ele>596.15</ele>
        <time>2014-05-18T08:02:03Z</time>
      </trkpt>
      <trkpt lat="42.44209" lon="0.06667">
        <ele>596.15</ele>
        <time>2014-05-18T08:02:07Z</time>
      </trkpt>
      <trkpt lat="42.44243" lon="0.0664">
        <ele>596.15</ele>
        <time>2014-05-18T08:02:17Z</time>
      </trkpt>
      <trkpt lat="42.44265" lon="0.0662">
        <ele>595.67</ele>
        <time>2014-05-18T08:02:23Z</time>
      </trkpt>
      <trkpt lat="42.44274" lon="0.06608">
        <ele>594.71</ele>
        <time>2014-05-18T08:02:26Z</time>
      </trkpt>
      <trkpt lat="42.44297" lon="0.06592">
        <ele>593.75</ele>
        <time>2014-05-18T08:02:31Z</time>
      </trkpt>
      <trkpt lat="42.44304" lon="0.06583">
        <ele>593.27</ele>
        <time>2014-05-18T08:02:33Z</time>
      </trkpt>
      <trkpt lat="42.44309" lon="0.06557">
        <ele>595.19</ele>
        <time>2014-05-18T08:02:38Z</time>
      </trkpt>
      <trkpt lat="42.443" lon="0.06546">
        <ele>596.64</ele>
        <time>2014-05-18T08:02:43Z</time>
      </trkpt>
      <trkpt lat="42.44282" lon="0.06525">
        <ele>598.56</ele>
        <time>2014-05-18T08:02:54Z</time>
      </trkpt>
      <trkpt lat="42.44263" lon="0.06517">
        <ele>600.96</ele>
        <time>2014-05-18T08:03:03Z</time>
      </trkpt>
      <trkpt lat="42.44242" lon="0.06514">
        <ele>602.4</ele>
        <time>2014-05-18T08:03:12Z</time>
      </trkpt>
      <trkpt lat="42.44229" lon="0.06511">
        <ele>603.36</ele>
        <time>2014-05-18T08:03:19Z</time>
      </trkpt>
      <trkpt lat="42.44224" lon="0.0651">
        <ele>604.81</ele>
        <time>2014-05-18T08:03:23Z</time>
      </trkpt>
      <trkpt lat="42.44208" lon="0.0651">
        <ele>605.29</ele>
        <time>2014-05-18T08:03:31Z</time>
      </trkpt>
      <trkpt lat="42.44182" lon="0.065">
        <ele>606.73</ele>
        <time>2014-05-18T08:03:43Z</time>
      </trkpt>
      <trkpt lat="42.44156" lon="0.06485">
        <ele>607.69</ele>
        <time>2014-05-18T08:03:55Z</time>
      </trkpt>
      <trkpt lat="42.44135" lon="0.06469">
        <ele>609.13</ele>
        <time>2014-05-18T08:04:06Z</time>
      </trkpt>
      <trkpt lat="42.44114" lon="0.06455">
        <ele>610.57</ele>
        <time>2014-05-18T08:04:16Z</time>
      </trkpt>
      <trkpt lat="42.44096" lon="0.06442">
        <ele>612.5</ele>
        <time>2014-05-18T08:04:27Z</time>
      </trkpt>
      <trkpt lat="42.44078" lon="0.06428">
        <ele>614.9</ele>
        <time>2014-05-18T08:04:38Z</time>
      </trkpt>
      <trkpt lat="42.44057" lon="0.06412">
        <ele>616.82</ele>
        <time>2014-05-18T08:04:51Z</time>
      </trkpt>
      <trkpt lat="42.44037" lon="0.06393">
        <ele>619.23</ele>
        <time>2014-05-18T08:05:04Z</time>
      </trkpt>
      <trkpt lat="42.44033" lon="0.06374">
        <ele>620.67</ele>
        <time>2014-05-18T08:05:13Z</time>
      </trkpt>
      <trkpt lat="42.4404" lon="0.06361">
        <ele>623.07</ele>
        <time>2014-05-18T08:05:21Z</time>
      </trkpt>
      <trkpt lat="42.44059" lon="0.06349">
        <ele>625.47</ele>
        <time>2014-05-18T08:05:33Z</time>
      </trkpt>
      <trkpt lat="42.44079" lon="0.06332">
        <ele>626.92</ele>
        <time>2014-05-18T08:05:47Z</time>
      </trkpt>
      <trkpt lat="42.44099" lon="0.06323">
        <ele>628.84</ele>
        <time>2014-05-18T08:05:58Z</time>
      </trkpt>
      <trkpt lat="42.44103" lon="0.06314">
        <ele>629.8</ele>
        <time>2014-05-18T08:06:02Z</time>
      </trkpt>
      <trkpt lat="42.44101" lon="0.06307">
        <ele>630.76</ele>
        <time>2014-05-18T08:06:05Z</time>
      </trkpt>
      <trkpt lat="42.44094" lon="0.06307">
        <ele>630.76</ele>
        <time>2014-05-18T08:06:10Z</time>
      </trkpt>
      <trkpt lat="42.44076" lon="0.06306">
        <ele>632.2</ele>
        <time>2014-05-18T08:06:20Z</time>
      </trkpt>
      <trkpt lat="42.44061" lon="0.06299">
        <ele>633.65</ele>
        <time>2014-05-18T08:06:29Z</time>
      </trkpt>
      <trkpt lat="42.44053" lon="0.06283">
        <ele>634.61</ele>
        <time>2014-05-18T08:06:37Z</time>
      </trkpt>
      <trkpt lat="42.44063" lon="0.06277">
        <ele>636.53</ele>
        <time>2014-05-18T08:06:43Z</time>
      </trkpt>
      <trkpt lat="42.44082" lon="0.06287">
        <ele>637.97</ele>
        <time>2014-05-18T08:06:55Z</time>
      </trkpt>
      <trkpt lat="42.44102" lon="0.06287">
        <ele>639.41</ele>
        <time>2014-05-18T08:07:05Z</time>
      </trkpt>
      <trkpt lat="42.44122" lon="0.06278">
        <ele>640.86</ele>
        <time>2014-05-18T08:07:16Z</time>
      </trkpt>
      <trkpt lat="42.44135" lon="0.06272">
        <ele>642.3</ele>
        <time>2014-05-18T08:07:24Z</time>
      </trkpt>
      <trkpt lat="42.44153" lon="0.06266">
        <ele>643.74</ele>
        <time>2014-05-18T08:07:33Z</time>
      </trkpt>
      <trkpt lat="42.44154" lon="0.06256">
        <ele>644.7</ele>
        <time>2014-05-18T08:07:39Z</time>
      </trkpt>
      <trkpt lat="42.44146" lon="0.06255">
        <ele>645.18</ele>
        <time>2014-05-18T08:07:43Z</time>
      </trkpt>
      <trkpt lat="42.44118" lon="0.06262">
        <ele>647.59</ele>
        <time>2014-05-18T08:07:58Z</time>
      </trkpt>
      <trkpt lat="42.44102" lon="0.06254">
        <ele>649.03</ele>
        <time>2014-05-18T08:08:08Z</time>
      </trkpt>
      <trkpt lat="42.44087" lon="0.06239">
        <ele>651.43</ele>
        <time>2014-05-18T08:08:19Z</time>
      </trkpt>
      <trkpt lat="42.4407" lon="0.06224">
        <ele>653.83</ele>
        <time>2014-05-18T08:08:32Z</time>
      </trkpt>
      <trkpt lat="42.44068" lon="0.06219">
        <ele>654.31</ele>
        <time>2014-05-18T08:08:35Z</time>
      </trkpt>
      <trkpt lat="42.4407" lon="0.0621">
        <ele>654.8</ele>
        <time>2014-05-18T08:08:40Z</time>
      </trkpt>
      <trkpt lat="42.44088" lon="0.06213">
        <ele>656.24</ele>
        <time>2014-05-18T08:08:50Z</time>
      </trkpt>
      <trkpt lat="42.44105" lon="0.06219">
        <ele>658.16</ele>
        <time>2014-05-18T08:09:00Z</time>
      </trkpt>
      <trkpt lat="42.44122" lon="0.06226">
        <ele>659.6</ele>
        <time>2014-05-18T08:09:11Z</time>
      </trkpt>
      <trkpt lat="42.44138" lon="0.06224">
        <ele>661.52</ele>
        <time>2014-05-18T08:09:21Z</time>
      </trkpt>
      <trkpt lat="42.44146" lon="0.06211">
        <ele>662.97</ele>
        <time>2014-05-18T08:09:30Z</time>
      </trkpt>
      <trkpt lat="42.44151" lon="0.06193">
        <ele>664.89</ele>
        <time>2014-05-18T08:09:40Z</time>
      </trkpt>
      <trkpt lat="42.44158" lon="0.06189">
        <ele>666.33</ele>
        <time>2014-05-18T08:09:45Z</time>
      </trkpt>
      <trkpt lat="42.44176" lon="0.06195">
        <ele>667.77</ele>
        <time>2014-05-18T08:09:57Z</time>
      </trkpt>
      <trkpt lat="42.44191" lon="0.06201">
        <ele>669.22</ele>
        <time>2014-05-18T08:10:09Z</time>
      </trkpt>
      <trkpt lat="42.44204" lon="0.06213">
        <ele>671.14</ele>
        <time>2014-05-18T08:10:19Z</time>
      </trkpt>
      <trkpt lat="42.44214" lon="0.0622">
        <ele>673.06</ele>
        <time>2014-05-18T08:10:27Z</time>
      </trkpt>
      <trkpt lat="42.44228" lon="0.06226">
        <ele>674.02</ele>
        <time>2014-05-18T08:10:37Z</time>
      </trkpt>
      <trkpt lat="42.44232" lon="0.06224">
        <ele>674.98</ele>
        <time>2014-05-18T08:10:40Z</time>
      </trkpt>
      <trkpt lat="42.44231" lon="0.06211">
        <ele>675.94</ele>
        <time>2014-05-18T08:10:48Z</time>
      </trkpt>
      <trkpt lat="42.4422" lon="0.06203">
        <ele>676.91</ele>
        <time>2014-05-18T08:10:56Z</time>
      </trkpt>
      <trkpt lat="42.44204" lon="0.06185">
        <ele>679.31</ele>
        <time>2014-05-18T08:11:10Z</time>
      </trkpt>
      <trkpt lat="42.44192" lon="0.06176">
        <ele>680.75</ele>
        <time>2014-05-18T08:11:19Z</time>
      </trkpt>
      <trkpt lat="42.44182" lon="0.06164">
        <ele>682.19</ele>
        <time>2014-05-18T08:11:28Z</time>
      </trkpt>
      <trkpt lat="42.44181" lon="0.06157">
        <ele>683.15</ele>
        <time>2014-05-18T08:11:32Z</time>
      </trkpt>
      <trkpt lat="42.44192" lon="0.06155">
        <ele>684.12</ele>
        <time>2014-05-18T08:11:40Z</time>
      </trkpt>
      <trkpt lat="42.44206" lon="0.06163">
        <ele>685.56</ele>
        <time>2014-05-18T08:11:49Z</time>
      </trkpt>
      <trkpt lat="42.44222" lon="0.06169">
        <ele>686.52</ele>
        <time>2014-05-18T08:12:00Z</time>
      </trkpt>
      <trkpt lat="42.44239" lon="0.06173">
        <ele>689.88</ele>
        <time>2014-05-18T08:12:12Z</time>
      </trkpt>
      <trkpt lat="42.44247" lon="0.06167">
        <ele>690.84</ele>
        <time>2014-05-18T08:12:20Z</time>
      </trkpt>
      <trkpt lat="42.44251" lon="0.06164">
        <ele>691.33</ele>
        <time>2014-05-18T08:12:27Z</time>
      </trkpt>
      <trkpt lat="42.44246" lon="0.06149">
        <ele>693.25</ele>
        <time>2014-05-18T08:12:37Z</time>
      </trkpt>
      <trkpt lat="42.44236" lon="0.06147">
        <ele>694.69</ele>
        <time>2014-05-18T08:12:45Z</time>
      </trkpt>
      <trkpt lat="42.44234" lon="0.06148">
        <ele>695.17</ele>
        <time>2014-05-18T08:12:46Z</time>
      </trkpt>
      <trkpt lat="42.44217" lon="0.06136">
        <ele>698.05</ele>
        <time>2014-05-18T08:13:00Z</time>
      </trkpt>
      <trkpt lat="42.44211" lon="0.0613">
        <ele>698.53</ele>
        <time>2014-05-18T08:13:05Z</time>
      </trkpt>
      <trkpt lat="42.44212" lon="0.06122">
        <ele>699.02</ele>
        <time>2014-05-18T08:13:11Z</time>
      </trkpt>
      <trkpt lat="42.4423" lon="0.0613">
        <ele>700.94</ele>
        <time>2014-05-18T08:13:22Z</time>
      </trkpt>
      <trkpt lat="42.44242" lon="0.0613">
        <ele>701.9</ele>
        <time>2014-05-18T08:13:30Z</time>
      </trkpt>
      <trkpt lat="42.44248" lon="0.06114">
        <ele>702.86</ele>
        <time>2014-05-18T08:13:39Z</time>
      </trkpt>
      <trkpt lat="42.44247" lon="0.06109">
        <ele>703.82</ele>
        <time>2014-05-18T08:13:42Z</time>
      </trkpt>
      <trkpt lat="42.44251" lon="0.06091">
        <ele>705.26</ele>
        <time>2014-05-18T08:13:52Z</time>
      </trkpt>
      <trkpt lat="42.44264" lon="0.06086">
        <ele>706.71</ele>
        <time>2014-05-18T08:14:01Z</time>
      </trkpt>
      <trkpt lat="42.44279" lon="0.06096">
        <ele>708.15</ele>
        <time>2014-05-18T08:14:11Z</time>
      </trkpt>
      <trkpt lat="42.44294" lon="0.06118">
        <ele>709.59</ele>
        <time>2014-05-18T08:14:23Z</time>
      </trkpt>
      <trkpt lat="42.44311" lon="0.06138">
        <ele>711.03</ele>
        <time>2014-05-18T08:14:35Z</time>
      </trkpt>
      <trkpt lat="42.4433" lon="0.06149">
        <ele>712.95</ele>
        <time>2014-05-18T08:14:48Z</time>
      </trkpt>
      <trkpt lat="42.44333" lon="0.0615">
        <ele>713.44</ele>
        <time>2014-05-18T08:14:50Z</time>
      </trkpt>
      <trkpt lat="42.44338" lon="0.06143">
        <ele>714.4</ele>
        <time>2014-05-18T08:14:56Z</time>
      </trkpt>
      <trkpt lat="42.44329" lon="0.06127">
        <ele>715.84</ele>
        <time>2014-05-18T08:15:05Z</time>
      </trkpt>
      <trkpt lat="42.44318" lon="0.06113">
        <ele>717.76</ele>
        <time>2014-05-18T08:15:14Z</time>
      </trkpt>
      <trkpt lat="42.44313" lon="0.06106">
        <ele>718.72</ele>
        <time>2014-05-18T08:15:18Z</time>
      </trkpt>
      <trkpt lat="42.443" lon="0.06083">
        <ele>720.16</ele>
        <time>2014-05-18T08:15:30Z</time>
      </trkpt>
      <trkpt lat="42.44291" lon="0.06064">
        <ele>721.61</ele>
        <time>2014-05-18T08:15:39Z</time>
      </trkpt>
      <trkpt lat="42.44288" lon="0.06061">
        <ele>722.57</ele>
        <time>2014-05-18T08:15:41Z</time>
      </trkpt>
      <trkpt lat="42.4427" lon="0.0604">
        <ele>724.49</ele>
        <time>2014-05-18T08:15:54Z</time>
      </trkpt>
      <trkpt lat="42.44253" lon="0.06035">
        <ele>726.41</ele>
        <time>2014-05-18T08:16:03Z</time>
      </trkpt>
      <trkpt lat="42.44233" lon="0.06046">
        <ele>726.89</ele>
        <time>2014-05-18T08:16:14Z</time>
      </trkpt>
      <trkpt lat="42.44213" lon="0.06046">
        <ele>727.86</ele>
        <time>2014-05-18T08:16:24Z</time>
      </trkpt>
      <trkpt lat="42.4419" lon="0.06037">
        <ele>729.78</ele>
        <time>2014-05-18T08:16:37Z</time>
      </trkpt>
      <trkpt lat="42.44168" lon="0.06022">
        <ele>730.74</ele>
        <time>2014-05-18T08:16:49Z</time>
      </trkpt>
      <trkpt lat="42.44149" lon="0.06002">
        <ele>733.14</ele>
        <time>2014-05-18T08:17:00Z</time>
      </trkpt>
      <trkpt lat="42.44122" lon="0.05981">
        <ele>734.58</ele>
        <time>2014-05-18T08:17:15Z</time>
      </trkpt>
      <trkpt lat="42.44097" lon="0.0597">
        <ele>736.03</ele>
        <time>2014-05-18T08:17:27Z</time>
      </trkpt>
      <trkpt lat="42.44074" lon="0.05954">
        <ele>738.91</ele>
        <time>2014-05-18T08:17:40Z</time>
      </trkpt>
      <trkpt lat="42.44054" lon="0.05942">
        <ele>740.35</ele>
        <time>2014-05-18T08:17:52Z</time>
      </trkpt>
      <trkpt lat="42.44036" lon="0.05935">
        <ele>742.76</ele>
        <time>2014-05-18T08:18:03Z</time>
      </trkpt>
      <trkpt lat="42.44019" lon="0.05932">
        <ele>743.72</ele>
        <time>2014-05-18T08:18:13Z</time>
      </trkpt>
      <trkpt lat="42.44013" lon="0.0593">
        <ele>745.16</ele>
        <time>2014-05-18T08:18:16Z</time>
      </trkpt>
      <trkpt lat="42.44" lon="0.05925">
        <ele>747.08</ele>
        <time>2014-05-18T08:18:25Z</time>
      </trkpt>
      <trkpt lat="42.43982" lon="0.05919">
        <ele>748.04</ele>
        <time>2014-05-18T08:18:36Z</time>
      </trkpt>
      <trkpt lat="42.43961" lon="0.05914">
        <ele>749.97</ele>
        <time>2014-05-18T08:18:48Z</time>
      </trkpt>
      <trkpt lat="42.43935" lon="0.05906">
        <ele>752.37</ele>
        <time>2014-05-18T08:19:02Z</time>
      </trkpt>
      <trkpt lat="42.4392" lon="0.05897">
        <ele>752.37</ele>
        <time>2014-05-18T08:19:10Z</time>
      </trkpt>
      <trkpt lat="42.43918" lon="0.05893">
        <ele>752.37</ele>
        <time>2014-05-18T08:19:12Z</time>
      </trkpt>
      <trkpt lat="42.43924" lon="0.05877">
        <ele>753.81</ele>
        <time>2014-05-18T08:19:20Z</time>
      </trkpt>
      <trkpt lat="42.43932" lon="0.05873">
        <ele>754.77</ele>
        <time>2014-05-18T08:19:24Z</time>
      </trkpt>
      <trkpt lat="42.43955" lon="0.05865">
        <ele>755.73</ele>
        <time>2014-05-18T08:19:36Z</time>
      </trkpt>
      <trkpt lat="42.43976" lon="0.05853">
        <ele>756.69</ele>
        <time>2014-05-18T08:19:48Z</time>
      </trkpt>
      <trkpt lat="42.43993" lon="0.05844">
        <ele>757.66</ele>
        <time>2014-05-18T08:19:57Z</time>
      </trkpt>
      <trkpt lat="42.44009" lon="0.05836">
        <ele>759.1</ele>
        <time>2014-05-18T08:20:06Z</time>
      </trkpt>
      <trkpt lat="42.44024" lon="0.05831">
        <ele>760.06</ele>
        <time>2014-05-18T08:20:14Z</time>
      </trkpt>
      <trkpt lat="42.44039" lon="0.05832">
        <ele>761.02</ele>
        <time>2014-05-18T08:20:22Z</time>
      </trkpt>
      <trkpt lat="42.44051" lon="0.05832">
        <ele>761.98</ele>
        <time>2014-05-18T08:20:29Z</time>
      </trkpt>
      <trkpt lat="42.44062" lon="0.05832">
        <ele>763.9</ele>
        <time>2014-05-18T08:20:36Z</time>
      </trkpt>
      <trkpt lat="42.44065" lon="0.05825">
        <ele>764.87</ele>
        <time>2014-05-18T08:20:40Z</time>
      </trkpt>
      <trkpt lat="42.44054" lon="0.05816">
        <ele>765.35</ele>
        <time>2014-05-18T08:20:48Z</time>
      </trkpt>
      <trkpt lat="42.44034" lon="0.05805">
        <ele>766.79</ele>
        <time>2014-05-18T08:21:01Z</time>
      </trkpt>
      <trkpt lat="42.44015" lon="0.05795">
        <ele>768.71</ele>
        <time>2014-05-18T08:21:13Z</time>
      </trkpt>
      <trkpt lat="42.44001" lon="0.0578">
        <ele>769.67</ele>
        <time>2014-05-18T08:21:23Z</time>
      </trkpt>
      <trkpt lat="42.43991" lon="0.05768">
        <ele>770.63</ele>
        <time>2014-05-18T08:21:31Z</time>
      </trkpt>
      <trkpt lat="42.43971" lon="0.05749">
        <ele>772.56</ele>
        <time>2014-05-18T08:21:44Z</time>
      </trkpt>
      <trkpt lat="42.43955" lon="0.05748">
        <ele>773.52</ele>
        <time>2014-05-18T08:21:53Z</time>
      </trkpt>
      <trkpt lat="42.4394" lon="0.05749">
        <ele>774.96</ele>
        <time>2014-05-18T08:22:01Z</time>
      </trkpt>
      <trkpt lat="42.43924" lon="0.05744">
        <ele>775.44</ele>
        <time>2014-05-18T08:22:09Z</time>
      </trkpt>
      <trkpt lat="42.4391" lon="0.05742">
        <ele>776.4</ele>
        <time>2014-05-18T08:22:16Z</time>
      </trkpt>
      <trkpt lat="42.43889" lon="0.05737">
        <ele>778.32</ele>
        <time>2014-05-18T08:22:27Z</time>
      </trkpt>
      <trkpt lat="42.43869" lon="0.05724">
        <ele>780.25</ele>
        <time>2014-05-18T08:22:40Z</time>
      </trkpt>
      <trkpt lat="42.43851" lon="0.05713">
        <ele>782.17</ele>
        <time>2014-05-18T08:22:51Z</time>
      </trkpt>
      <trkpt lat="42.43833" lon="0.05704">
        <ele>784.57</ele>
        <time>2014-05-18T08:23:03Z</time>
      </trkpt>
      <trkpt lat="42.43818" lon="0.05693">
        <ele>786.02</ele>
        <time>2014-05-18T08:23:14Z</time>
      </trkpt>
      <trkpt lat="42.43816" lon="0.05679">
        <ele>787.94</ele>
        <time>2014-05-18T08:23:22Z</time>
      </trkpt>
      <trkpt lat="42.4382" lon="0.05666">
        <ele>788.9</ele>
        <time>2014-05-18T08:23:29Z</time>
      </trkpt>
      <trkpt lat="42.43813" lon="0.05649">
        <ele>790.82</ele>
        <time>2014-05-18T08:23:39Z</time>
      </trkpt>
      <trkpt lat="42.43797" lon="0.05638">
        <ele>792.26</ele>
        <time>2014-05-18T08:23:51Z</time>
      </trkpt>
      <trkpt lat="42.43779" lon="0.05628">
        <ele>793.22</ele>
        <time>2014-05-18T08:24:04Z</time>
      </trkpt>
      <trkpt lat="42.43758" lon="0.05619">
        <ele>794.19</ele>
        <time>2014-05-18T08:24:17Z</time>
      </trkpt>
      <trkpt lat="42.43741" lon="0.05613">
        <ele>796.11</ele>
        <time>2014-05-18T08:24:28Z</time>
      </trkpt>
      <trkpt lat="42.43729" lon="0.05606">
        <ele>798.03</ele>
        <time>2014-05-18T08:24:37Z</time>
      </trkpt>
      <trkpt lat="42.43727" lon="0.05602">
        <ele>798.51</ele>
        <time>2014-05-18T08:24:39Z</time>
      </trkpt>
      <trkpt lat="42.43731" lon="0.05594">
        <ele>799.47</ele>
        <time>2014-05-18T08:24:45Z</time>
      </trkpt>
      <trkpt lat="42.43733" lon="0.05594">
        <ele>798.99</ele>
        <time>2014-05-18T08:24:46Z</time>
      </trkpt>
      <trkpt lat="42.43755" lon="0.05595">
        <ele>799.95</ele>
        <time>2014-05-18T08:24:56Z</time>
      </trkpt>
      <trkpt lat="42.4378" lon="0.05598">
        <ele>801.4</ele>
        <time>2014-05-18T08:25:09Z</time>
      </trkpt>
      <trkpt lat="42.43805" lon="0.05601">
        <ele>803.32</ele>
        <time>2014-05-18T08:25:21Z</time>
      </trkpt>
      <trkpt lat="42.43825" lon="0.05604">
        <ele>803.8</ele>
        <time>2014-05-18T08:25:31Z</time>
      </trkpt>
      <trkpt lat="42.43831" lon="0.05605">
        <ele>805.24</ele>
        <time>2014-05-18T08:25:34Z</time>
      </trkpt>
      <trkpt lat="42.43856" lon="0.05607">
        <ele>806.68</ele>
        <time>2014-05-18T08:25:46Z</time>
      </trkpt>
      <trkpt lat="42.43872" lon="0.05605">
        <ele>807.64</ele>
        <time>2014-05-18T08:25:54Z</time>
      </trkpt>
      <trkpt lat="42.43879" lon="0.05605">
        <ele>809.09</ele>
        <time>2014-05-18T08:25:58Z</time>
      </trkpt>
      <trkpt lat="42.43884" lon="0.05596">
        <ele>810.05</ele>
        <time>2014-05-18T08:26:05Z</time>
      </trkpt>
      <trkpt lat="42.43871" lon="0.05587">
        <ele>811.97</ele>
        <time>2014-05-18T08:26:15Z</time>
      </trkpt>
      <trkpt lat="42.43851" lon="0.05576">
        <ele>813.41</ele>
        <time>2014-05-18T08:26:28Z</time>
      </trkpt>
      <trkpt lat="42.4384" lon="0.0557">
        <ele>815.34</ele>
        <time>2014-05-18T08:26:35Z</time>
      </trkpt>
      <trkpt lat="42.43827" lon="0.0556">
        <ele>816.3</ele>
        <time>2014-05-18T08:26:44Z</time>
      </trkpt>
      <trkpt lat="42.43813" lon="0.05545">
        <ele>817.74</ele>
        <time>2014-05-18T08:26:54Z</time>
      </trkpt>
      <trkpt lat="42.43804" lon="0.05529">
        <ele>818.7</ele>
        <time>2014-05-18T08:27:01Z</time>
      </trkpt>
      <trkpt lat="42.4379" lon="0.05512">
        <ele>821.1</ele>
        <time>2014-05-18T08:27:12Z</time>
      </trkpt>
      <trkpt lat="42.4378" lon="0.05503">
        <ele>822.06</ele>
        <time>2014-05-18T08:27:19Z</time>
      </trkpt>
      <trkpt lat="42.43757" lon="0.05488">
        <ele>824.95</ele>
        <time>2014-05-18T08:27:36Z</time>
      </trkpt>
      <trkpt lat="42.43743" lon="0.05478">
        <ele>826.39</ele>
        <time>2014-05-18T08:27:46Z</time>
      </trkpt>
      <trkpt lat="42.43731" lon="0.05471">
        <ele>827.35</ele>
        <time>2014-05-18T08:27:54Z</time>
      </trkpt>
      <trkpt lat="42.43718" lon="0.05464">
        <ele>829.27</ele>
        <time>2014-05-18T08:28:03Z</time>
      </trkpt>
      <trkpt lat="42.43703" lon="0.05464">
        <ele>830.24</ele>
        <time>2014-05-18T08:28:12Z</time>
      </trkpt>
      <trkpt lat="42.43685" lon="0.05464">
        <ele>832.16</ele>
        <time>2014-05-18T08:28:23Z</time>
      </trkpt>
      <trkpt lat="42.43666" lon="0.05459">
        <ele>834.56</ele>
        <time>2014-05-18T08:28:36Z</time>
      </trkpt>
      <trkpt lat="42.43648" lon="0.05447">
        <ele>836</ele>
        <time>2014-05-18T08:28:49Z</time>
      </trkpt>
      <trkpt lat="42.43632" lon="0.0544">
        <ele>838.41</ele>
        <time>2014-05-18T08:29:01Z</time>
      </trkpt>
      <trkpt lat="42.43618" lon="0.05442">
        <ele>838.41</ele>
        <time>2014-05-18T08:29:10Z</time>
      </trkpt>
      <trkpt lat="42.43601" lon="0.05439">
        <ele>840.81</ele>
        <time>2014-05-18T08:29:21Z</time>
      </trkpt>
      <trkpt lat="42.43581" lon="0.05433">
        <ele>842.73</ele>
        <time>2014-05-18T08:29:35Z</time>
      </trkpt>
      <trkpt lat="42.43564" lon="0.05424">
        <ele>845.14</ele>
        <time>2014-05-18T08:29:48Z</time>
      </trkpt>
      <trkpt lat="42.43547" lon="0.05413">
        <ele>847.06</ele>
        <time>2014-05-18T08:30:01Z</time>
      </trkpt>
      <trkpt lat="42.43528" lon="0.05412">
        <ele>848.98</ele>
        <time>2014-05-18T08:30:14Z</time>
      </trkpt>
      <trkpt lat="42.43513" lon="0.05413">
        <ele>849.94</ele>
        <time>2014-05-18T08:30:25Z</time>
      </trkpt>
      <trkpt lat="42.43495" lon="0.05412">
        <ele>852.83</ele>
        <time>2014-05-18T08:30:37Z</time>
      </trkpt>
      <trkpt lat="42.43483" lon="0.05408">
        <ele>853.31</ele>
        <time>2014-05-18T08:30:46Z</time>
      </trkpt>
      <trkpt lat="42.43466" lon="0.05397">
        <ele>855.23</ele>
        <time>2014-05-18T08:30:58Z</time>
      </trkpt>
      <trkpt lat="42.43449" lon="0.05377">
        <ele>856.67</ele>
        <time>2014-05-18T08:31:11Z</time>
      </trkpt>
      <trkpt lat="42.43437" lon="0.05362">
        <ele>859.56</ele>
        <time>2014-05-18T08:31:22Z</time>
      </trkpt>
      <trkpt lat="42.43429" lon="0.05339">
        <ele>861.48</ele>
        <time>2014-05-18T08:31:35Z</time>
      </trkpt>
      <trkpt lat="42.43427" lon="0.05317">
        <ele>864.36</ele>
        <time>2014-05-18T08:31:46Z</time>
      </trkpt>
      <trkpt lat="42.43427" lon="0.05297">
        <ele>866.29</ele>
        <time>2014-05-18T08:31:57Z</time>
      </trkpt>
      <trkpt lat="42.43419" lon="0.05282">
        <ele>867.73</ele>
        <time>2014-05-18T08:32:05Z</time>
      </trkpt>
      <trkpt lat="42.43403" lon="0.05268">
        <ele>868.21</ele>
        <time>2014-05-18T08:32:16Z</time>
      </trkpt>
      <trkpt lat="42.43387" lon="0.05267">
        <ele>870.13</ele>
        <time>2014-05-18T08:32:27Z</time>
      </trkpt>
      <trkpt lat="42.43372" lon="0.05265">
        <ele>872.05</ele>
        <time>2014-05-18T08:32:37Z</time>
      </trkpt>
      <trkpt lat="42.43357" lon="0.05253">
        <ele>873.5</ele>
        <time>2014-05-18T08:32:47Z</time>
      </trkpt>
      <trkpt lat="42.43345" lon="0.05242">
        <ele>874.46</ele>
        <time>2014-05-18T08:32:56Z</time>
      </trkpt>
      <trkpt lat="42.43339" lon="0.05239">
        <ele>876.38</ele>
        <time>2014-05-18T08:33:00Z</time>
      </trkpt>
      <trkpt lat="42.43325" lon="0.05227">
        <ele>877.34</ele>
        <time>2014-05-18T08:33:09Z</time>
      </trkpt>
      <trkpt lat="42.43304" lon="0.05212">
        <ele>879.26</ele>
        <time>2014-05-18T08:33:22Z</time>
      </trkpt>
      <trkpt lat="42.43291" lon="0.05215">
        <ele>880.71</ele>
        <time>2014-05-18T08:33:30Z</time>
      </trkpt>
      <trkpt lat="42.43272" lon="0.05215">
        <ele>882.63</ele>
        <time>2014-05-18T08:33:41Z</time>
      </trkpt>
      <trkpt lat="42.43254" lon="0.05212">
        <ele>884.07</ele>
        <time>2014-05-18T08:33:53Z</time>
      </trkpt>
      <trkpt lat="42.43237" lon="0.05202">
        <ele>885.51</ele>
        <time>2014-05-18T08:34:04Z</time>
      </trkpt>
      <trkpt lat="42.43237" lon="0.052">
        <ele>886.95</ele>
        <time>2014-05-18T08:34:05Z</time>
      </trkpt>
      <trkpt lat="42.43239" lon="0.05192">
        <ele>886.95</ele>
        <time>2014-05-18T08:34:09Z</time>
      </trkpt>
      <trkpt lat="42.43264" lon="0.05194">
        <ele>888.88</ele>
        <time>2014-05-18T08:34:23Z</time>
      </trkpt>
      <trkpt lat="42.43282" lon="0.05185">
        <ele>889.84</ele>
        <time>2014-05-18T08:34:34Z</time>
      </trkpt>
      <trkpt lat="42.43295" lon="0.05173">
        <ele>892.24</ele>
        <time>2014-05-18T08:34:44Z</time>
      </trkpt>
      <trkpt lat="42.43303" lon="0.05156">
        <ele>894.16</ele>
        <time>2014-05-18T08:34:54Z</time>
      </trkpt>
      <trkpt lat="42.43318" lon="0.05142">
        <ele>895.61</ele>
        <time>2014-05-18T08:35:05Z</time>
      </trkpt>
      <trkpt lat="42.43333" lon="0.05142">
        <ele>896.57</ele>
        <time>2014-05-18T08:35:13Z</time>
      </trkpt>
      <trkpt lat="42.43346" lon="0.05153">
        <ele>897.05</ele>
        <time>2014-05-18T08:35:20Z</time>
      </trkpt>
      <trkpt lat="42.43365" lon="0.0515">
        <ele>897.05</ele>
        <time>2014-05-18T08:35:28Z</time>
      </trkpt>
      <trkpt lat="42.43385" lon="0.0514">
        <ele>898.01</ele>
        <time>2014-05-18T08:35:37Z</time>
      </trkpt>
      <trkpt lat="42.4341" lon="0.05146">
        <ele>898.49</ele>
        <time>2014-05-18T08:35:47Z</time>
      </trkpt>
      <trkpt lat="42.43432" lon="0.05154">
        <ele>899.93</ele>
        <time>2014-05-18T08:35:56Z</time>
      </trkpt>
      <trkpt lat="42.43452" lon="0.05166">
        <ele>900.41</ele>
        <time>2014-05-18T08:36:05Z</time>
      </trkpt>
      <trkpt lat="42.43479" lon="0.05184">
        <ele>901.85</ele>
        <time>2014-05-18T08:36:16Z</time>
      </trkpt>
      <trkpt lat="42.43499" lon="0.0519">
        <ele>903.3</ele>
        <time>2014-05-18T08:36:24Z</time>
      </trkpt>
      <trkpt lat="42.43513" lon="0.05208">
        <ele>904.74</ele>
        <time>2014-05-18T08:36:33Z</time>
      </trkpt>
      <trkpt lat="42.43528" lon="0.05231">
        <ele>905.7</ele>
        <time>2014-05-18T08:36:44Z</time>
      </trkpt>
      <trkpt lat="42.4354" lon="0.05245">
        <ele>908.1</ele>
        <time>2014-05-18T08:36:53Z</time>
      </trkpt>
      <trkpt lat="42.43544" lon="0.05234">
        <ele>909.06</ele>
        <time>2014-05-18T08:36:59Z</time>
      </trkpt>
      <trkpt lat="42.43534" lon="0.05213">
        <ele>910.51</ele>
        <time>2014-05-18T08:37:09Z</time>
      </trkpt>
      <trkpt lat="42.43522" lon="0.05179">
        <ele>912.43</ele>
        <time>2014-05-18T08:37:25Z</time>
      </trkpt>
      <trkpt lat="42.43514" lon="0.05161">
        <ele>912.91</ele>
        <time>2014-05-18T08:37:34Z</time>
      </trkpt>
      <trkpt lat="42.43503" lon="0.05147">
        <ele>914.35</ele>
        <time>2014-05-18T08:37:43Z</time>
      </trkpt>
      <trkpt lat="42.43502" lon="0.05146">
        <ele>914.35</ele>
        <time>2014-05-18T08:37:44Z</time>
      </trkpt>
      <trkpt lat="42.435" lon="0.05138">
        <ele>915.79</ele>
        <time>2014-05-18T08:37:49Z</time>
      </trkpt>
      <trkpt lat="42.43504" lon="0.05135">
        <ele>915.79</ele>
        <time>2014-05-18T08:37:52Z</time>
      </trkpt>
      <trkpt lat="42.43523" lon="0.05146">
        <ele>916.27</ele>
        <time>2014-05-18T08:38:01Z</time>
      </trkpt>
      <trkpt lat="42.43538" lon="0.05165">
        <ele>918.2</ele>
        <time>2014-05-18T08:38:11Z</time>
      </trkpt>
      <trkpt lat="42.43555" lon="0.05182">
        <ele>919.16</ele>
        <time>2014-05-18T08:38:22Z</time>
      </trkpt>
      <trkpt lat="42.43571" lon="0.052">
        <ele>921.08</ele>
        <time>2014-05-18T08:38:33Z</time>
      </trkpt>
      <trkpt lat="42.43573" lon="0.05201">
        <ele>921.56</ele>
        <time>2014-05-18T08:38:34Z</time>
      </trkpt>
      <trkpt lat="42.43579" lon="0.05199">
        <ele>922.52</ele>
        <time>2014-05-18T08:38:38Z</time>
      </trkpt>
      <trkpt lat="42.43579" lon="0.05192">
        <ele>922.52</ele>
        <time>2014-05-18T08:38:42Z</time>
      </trkpt>
      <trkpt lat="42.43572" lon="0.05181">
        <ele>923.96</ele>
        <time>2014-05-18T08:38:48Z</time>
      </trkpt>
      <trkpt lat="42.43565" lon="0.05167">
        <ele>924.93</ele>
        <time>2014-05-18T08:38:55Z</time>
      </trkpt>
      <trkpt lat="42.43555" lon="0.05144">
        <ele>926.37</ele>
        <time>2014-05-18T08:39:06Z</time>
      </trkpt>
      <trkpt lat="42.43555" lon="0.05142">
        <ele>927.33</ele>
        <time>2014-05-18T08:39:07Z</time>
      </trkpt>
      <trkpt lat="42.43561" lon="0.05136">
        <ele>928.29</ele>
        <time>2014-05-18T08:39:13Z</time>
      </trkpt>
      <trkpt lat="42.43578" lon="0.05152">
        <ele>929.25</ele>
        <time>2014-05-18T08:39:24Z</time>
      </trkpt>
      <trkpt lat="42.43598" lon="0.05172">
        <ele>931.65</ele>
        <time>2014-05-18T08:39:38Z</time>
      </trkpt>
      <trkpt lat="42.43612" lon="0.05174">
        <ele>933.1</ele>
        <time>2014-05-18T08:39:46Z</time>
      </trkpt>
      <trkpt lat="42.43638" lon="0.05173">
        <ele>934.54</ele>
        <time>2014-05-18T08:40:00Z</time>
      </trkpt>
      <trkpt lat="42.43644" lon="0.05169">
        <ele>935.5</ele>
        <time>2014-05-18T08:40:04Z</time>
      </trkpt>
      <trkpt lat="42.43647" lon="0.05156">
        <ele>937.42</ele>
        <time>2014-05-18T08:40:12Z</time>
      </trkpt>
      <trkpt lat="42.43634" lon="0.05145">
        <ele>937.9</ele>
        <time>2014-05-18T08:40:22Z</time>
      </trkpt>
      <trkpt lat="42.43621" lon="0.05134">
        <ele>939.83</ele>
        <time>2014-05-18T08:40:32Z</time>
      </trkpt>
      <trkpt lat="42.43603" lon="0.05113">
        <ele>941.75</ele>
        <time>2014-05-18T08:40:46Z</time>
      </trkpt>
      <trkpt lat="42.43589" lon="0.05096">
        <ele>942.23</ele>
        <time>2014-05-18T08:40:57Z</time>
      </trkpt>
      <trkpt lat="42.43577" lon="0.0508">
        <ele>944.15</ele>
        <time>2014-05-18T08:41:06Z</time>
      </trkpt>
      <trkpt lat="42.43564" lon="0.05067">
        <ele>944.63</ele>
        <time>2014-05-18T08:41:15Z</time>
      </trkpt>
      <trkpt lat="42.43541" lon="0.05055">
        <ele>947.04</ele>
        <time>2014-05-18T08:41:27Z</time>
      </trkpt>
      <trkpt lat="42.4352" lon="0.05043">
        <ele>947.52</ele>
        <time>2014-05-18T08:41:38Z</time>
      </trkpt>
      <trkpt lat="42.43502" lon="0.0503">
        <ele>949.92</ele>
        <time>2014-05-18T08:41:49Z</time>
      </trkpt>
      <trkpt lat="42.43476" lon="0.0501">
        <ele>951.84</ele>
        <time>2014-05-18T08:42:06Z</time>
      </trkpt>
      <trkpt lat="42.43461" lon="0.04997">
        <ele>953.77</ele>
        <time>2014-05-18T08:42:18Z</time>
      </trkpt>
      <trkpt lat="42.43445" lon="0.04983">
        <ele>955.69</ele>
        <time>2014-05-18T08:42:32Z</time>
      </trkpt>
      <trkpt lat="42.43429" lon="0.04971">
        <ele>957.61</ele>
        <time>2014-05-18T08:42:43Z</time>
      </trkpt>
      <trkpt lat="42.4341" lon="0.04958">
        <ele>959.53</ele>
        <time>2014-05-18T08:42:57Z</time>
      </trkpt>
      <trkpt lat="42.43392" lon="0.04945">
        <ele>961.46</ele>
        <time>2014-05-18T08:43:10Z</time>
      </trkpt>
      <trkpt lat="42.43373" lon="0.04931">
        <ele>963.86</ele>
        <time>2014-05-18T08:43:24Z</time>
      </trkpt>
      <trkpt lat="42.43357" lon="0.04921">
        <ele>965.3</ele>
        <time>2014-05-18T08:43:35Z</time>
      </trkpt>
      <trkpt lat="42.43337" lon="0.0491">
        <ele>967.7</ele>
        <time>2014-05-18T08:43:49Z</time>
      </trkpt>
      <trkpt lat="42.4332" lon="0.04898">
        <ele>969.63</ele>
        <time>2014-05-18T08:44:01Z</time>
      </trkpt>
      <trkpt lat="42.43309" lon="0.04888">
        <ele>970.11</ele>
        <time>2014-05-18T08:44:10Z</time>
      </trkpt>
      <trkpt lat="42.43297" lon="0.04872">
        <ele>972.03</ele>
        <time>2014-05-18T08:44:21Z</time>
      </trkpt>
      <trkpt lat="42.43278" lon="0.04845">
        <ele>972.99</ele>
        <time>2014-05-18T08:44:35Z</time>
      </trkpt>
      <trkpt lat="42.43283" lon="0.04835">
        <ele>974.91</ele>
        <time>2014-05-18T08:44:41Z</time>
      </trkpt>
      <trkpt lat="42.43287" lon="0.04836">
        <ele>974.91</ele>
        <time>2014-05-18T08:44:43Z</time>
      </trkpt>
      <trkpt lat="42.43302" lon="0.04855">
        <ele>975.39</ele>
        <time>2014-05-18T08:44:54Z</time>
      </trkpt>
      <trkpt lat="42.43321" lon="0.04869">
        <ele>977.32</ele>
        <time>2014-05-18T08:45:06Z</time>
      </trkpt>
      <trkpt lat="42.43338" lon="0.04877">
        <ele>978.76</ele>
        <time>2014-05-18T08:45:16Z</time>
      </trkpt>
      <trkpt lat="42.43356" lon="0.04876">
        <ele>979.24</ele>
        <time>2014-05-18T08:45:27Z</time>
      </trkpt>
      <trkpt lat="42.43376" lon="0.04877">
        <ele>981.16</ele>
        <time>2014-05-18T08:45:38Z</time>
      </trkpt>
      <trkpt lat="42.43402" lon="0.04881">
        <ele>983.09</ele>
        <time>2014-05-18T08:45:53Z</time>
      </trkpt>
      <trkpt lat="42.43429" lon="0.04884">
        <ele>985.49</ele>
        <time>2014-05-18T08:46:08Z</time>
      </trkpt>
      <trkpt lat="42.43449" lon="0.04885">
        <ele>987.41</ele>
        <time>2014-05-18T08:46:20Z</time>
      </trkpt>
      <trkpt lat="42.43468" lon="0.04887">
        <ele>988.85</ele>
        <time>2014-05-18T08:46:29Z</time>
      </trkpt>
      <trkpt lat="42.43482" lon="0.04889">
        <ele>989.33</ele>
        <time>2014-05-18T08:46:36Z</time>
      </trkpt>
      <trkpt lat="42.43501" lon="0.04892">
        <ele>991.26</ele>
        <time>2014-05-18T08:46:45Z</time>
      </trkpt>
      <trkpt lat="42.43522" lon="0.04895">
        <ele>993.66</ele>
        <time>2014-05-18T08:46:56Z</time>
      </trkpt>
      <trkpt lat="42.43539" lon="0.04896">
        <ele>994.14</ele>
        <time>2014-05-18T08:47:05Z</time>
      </trkpt>
      <trkpt lat="42.43561" lon="0.04899">
        <ele>996.54</ele>
        <time>2014-05-18T08:47:19Z</time>
      </trkpt>
      <trkpt lat="42.43569" lon="0.04891">
        <ele>997.99</ele>
        <time>2014-05-18T08:47:26Z</time>
      </trkpt>
      <trkpt lat="42.43567" lon="0.04886">
        <ele>997.99</ele>
        <time>2014-05-18T08:47:29Z</time>
      </trkpt>
      <trkpt lat="42.43548" lon="0.04878">
        <ele>998.95</ele>
        <time>2014-05-18T08:47:39Z</time>
      </trkpt>
      <trkpt lat="42.4353" lon="0.0487">
        <ele>1000.39</ele>
        <time>2014-05-18T08:47:50Z</time>
      </trkpt>
      <trkpt lat="42.43511" lon="0.04857">
        <ele>1002.31</ele>
        <time>2014-05-18T08:48:03Z</time>
      </trkpt>
      <trkpt lat="42.43496" lon="0.04845">
        <ele>1004.72</ele>
        <time>2014-05-18T08:48:14Z</time>
      </trkpt>
      <trkpt lat="42.43482" lon="0.04829">
        <ele>1005.68</ele>
        <time>2014-05-18T08:48:26Z</time>
      </trkpt>
      <trkpt lat="42.43473" lon="0.04809">
        <ele>1007.6</ele>
        <time>2014-05-18T08:48:37Z</time>
      </trkpt>
      <trkpt lat="42.43463" lon="0.04798">
        <ele>1009.04</ele>
        <time>2014-05-18T08:48:46Z</time>
      </trkpt>
      <trkpt lat="42.43447" lon="0.04788">
        <ele>1010.96</ele>
        <time>2014-05-18T08:48:59Z</time>
      </trkpt>
      <trkpt lat="42.43443" lon="0.04784">
        <ele>1011.93</ele>
        <time>2014-05-18T08:49:03Z</time>
      </trkpt>
      <trkpt lat="42.43425" lon="0.04769">
        <ele>1013.85</ele>
        <time>2014-05-18T08:49:18Z</time>
      </trkpt>
      <trkpt lat="42.43412" lon="0.04756">
        <ele>1016.25</ele>
        <time>2014-05-18T08:49:30Z</time>
      </trkpt>
      <trkpt lat="42.43399" lon="0.04743">
        <ele>1017.69</ele>
        <time>2014-05-18T08:49:41Z</time>
      </trkpt>
      <trkpt lat="42.4339" lon="0.04728">
        <ele>1018.65</ele>
        <time>2014-05-18T08:49:51Z</time>
      </trkpt>
      <trkpt lat="42.43378" lon="0.04707">
        <ele>1020.58</ele>
        <time>2014-05-18T08:50:04Z</time>
      </trkpt>
      <trkpt lat="42.43364" lon="0.04688">
        <ele>1022.02</ele>
        <time>2014-05-18T08:50:15Z</time>
      </trkpt>
      <trkpt lat="42.43347" lon="0.0467">
        <ele>1023.94</ele>
        <time>2014-05-18T08:50:28Z</time>
      </trkpt>
      <trkpt lat="42.43332" lon="0.04652">
        <ele>1026.34</ele>
        <time>2014-05-18T08:50:40Z</time>
      </trkpt>
      <trkpt lat="42.43327" lon="0.04643">
        <ele>1026.83</ele>
        <time>2014-05-18T08:50:45Z</time>
      </trkpt>
      <trkpt lat="42.43332" lon="0.04633">
        <ele>1028.27</ele>
        <time>2014-05-18T08:50:51Z</time>
      </trkpt>
      <trkpt lat="42.43348" lon="0.04642">
        <ele>1029.23</ele>
        <time>2014-05-18T08:51:02Z</time>
      </trkpt>
      <trkpt lat="42.43358" lon="0.04643">
        <ele>1030.19</ele>
        <time>2014-05-18T08:51:08Z</time>
      </trkpt>
      <trkpt lat="42.43362" lon="0.04639">
        <ele>1030.67</ele>
        <time>2014-05-18T08:51:11Z</time>
      </trkpt>
      <trkpt lat="42.43359" lon="0.04628">
        <ele>1031.63</ele>
        <time>2014-05-18T08:51:17Z</time>
      </trkpt>
      <trkpt lat="42.43343" lon="0.04617">
        <ele>1033.55</ele>
        <time>2014-05-18T08:51:27Z</time>
      </trkpt>
      <trkpt lat="42.43329" lon="0.04602">
        <ele>1034.52</ele>
        <time>2014-05-18T08:51:37Z</time>
      </trkpt>
      <trkpt lat="42.43316" lon="0.04587">
        <ele>1036.92</ele>
        <time>2014-05-18T08:51:48Z</time>
      </trkpt>
      <trkpt lat="42.43299" lon="0.04567">
        <ele>1038.84</ele>
        <time>2014-05-18T08:52:03Z</time>
      </trkpt>
      <trkpt lat="42.43282" lon="0.04549">
        <ele>1040.76</ele>
        <time>2014-05-18T08:52:17Z</time>
      </trkpt>
      <trkpt lat="42.4327" lon="0.04538">
        <ele>1042.21</ele>
        <time>2014-05-18T08:52:27Z</time>
      </trkpt>
      <trkpt lat="42.43248" lon="0.04515">
        <ele>1045.09</ele>
        <time>2014-05-18T08:52:45Z</time>
      </trkpt>
      <trkpt lat="42.43235" lon="0.04495">
        <ele>1046.53</ele>
        <time>2014-05-18T08:52:58Z</time>
      </trkpt>
      <trkpt lat="42.43226" lon="0.0447">
        <ele>1047.01</ele>
        <time>2014-05-18T08:53:07Z</time>
      </trkpt>
      <trkpt lat="42.43209" lon="0.04436">
        <ele>1047.97</ele>
        <time>2014-05-18T08:53:18Z</time>
      </trkpt>
      <trkpt lat="42.43187" lon="0.04403">
        <ele>1047.01</ele>
        <time>2014-05-18T08:53:28Z</time>
      </trkpt>
      <trkpt lat="42.43167" lon="0.04374">
        <ele>1046.53</ele>
        <time>2014-05-18T08:53:36Z</time>
      </trkpt>
      <trkpt lat="42.43142" lon="0.04338">
        <ele>1045.57</ele>
        <time>2014-05-18T08:53:47Z</time>
      </trkpt>
      <trkpt lat="42.43118" lon="0.04296">
        <ele>1044.13</ele>
        <time>2014-05-18T08:53:58Z</time>
      </trkpt>
      <trkpt lat="42.43097" lon="0.04245">
        <ele>1043.65</ele>
        <time>2014-05-18T08:54:08Z</time>
      </trkpt>
      <trkpt lat="42.43077" lon="0.04182">
        <ele>1043.17</ele>
        <time>2014-05-18T08:54:19Z</time>
      </trkpt>
      <trkpt lat="42.43046" lon="0.04109">
        <ele>1042.21</ele>
        <time>2014-05-18T08:54:31Z</time>
      </trkpt>
      <trkpt lat="42.43009" lon="0.04035">
        <ele>1041.73</ele>
        <time>2014-05-18T08:54:45Z</time>
      </trkpt>
      <trkpt lat="42.42989" lon="0.03987">
        <ele>1040.76</ele>
        <time>2014-05-18T08:54:54Z</time>
      </trkpt>
      <trkpt lat="42.4297" lon="0.03954">
        <ele>1040.76</ele>
        <time>2014-05-18T08:55:02Z</time>
      </trkpt>
      <trkpt lat="42.42971" lon="0.03955">
        <ele>1040.28</ele>
        <time>2014-05-18T08:55:07Z</time>
      </trkpt>
      <trkpt lat="42.42969" lon="0.03952">
        <ele>1040.28</ele>
        <time>2014-05-18T08:55:29Z</time>
      </trkpt>
      <trkpt lat="42.42964" lon="0.03943">
        <ele>1039.8</ele>
        <time>2014-05-18T08:55:39Z</time>
      </trkpt>
      <trkpt lat="42.42959" lon="0.03936">
        <ele>1039.8</ele>
        <time>2014-05-18T08:55:51Z</time>
      </trkpt>
      <trkpt lat="42.42955" lon="0.03931">
        <ele>1040.76</ele>
        <time>2014-05-18T08:57:06Z</time>
      </trkpt>
      <trkpt lat="42.42949" lon="0.03927">
        <ele>1039.8</ele>
        <time>2014-05-18T08:57:16Z</time>
      </trkpt>
      <trkpt lat="42.42949" lon="0.03926">
        <ele>1040.76</ele>
        <time>2014-05-18T09:03:58Z</time>
      </trkpt>
      <trkpt lat="42.42955" lon="0.03931">
        <ele>1040.28</ele>
        <time>2014-05-18T09:04:06Z</time>
      </trkpt>
      <trkpt lat="42.42959" lon="0.03933">
        <ele>1041.25</ele>
        <time>2014-05-18T09:04:15Z</time>
      </trkpt>
      <trkpt lat="42.42961" lon="0.03936">
        <ele>1040.76</ele>
        <time>2014-05-18T09:04:48Z</time>
      </trkpt>
      <trkpt lat="42.42964" lon="0.0394">
        <ele>1041.25</ele>
        <time>2014-05-18T09:04:58Z</time>
      </trkpt>
      <trkpt lat="42.42969" lon="0.03947">
        <ele>1041.73</ele>
        <time>2014-05-18T09:05:10Z</time>
      </trkpt>
      <trkpt lat="42.42971" lon="0.03949">
        <ele>1042.21</ele>
        <time>2014-05-18T09:05:58Z</time>
      </trkpt>
      <trkpt lat="42.42973" lon="0.03951">
        <ele>1042.21</ele>
        <time>2014-05-18T09:06:08Z</time>
      </trkpt>
      <trkpt lat="42.42973" lon="0.03953">
        <ele>1042.21</ele>
        <time>2014-05-18T09:06:46Z</time>
      </trkpt>
      <trkpt lat="42.42975" lon="0.03954">
        <ele>1042.21</ele>
        <time>2014-05-18T09:07:07Z</time>
      </trkpt>
      <trkpt lat="42.42976" lon="0.03955">
        <ele>1043.17</ele>
        <time>2014-05-18T09:07:18Z</time>
      </trkpt>
      <trkpt lat="42.42978" lon="0.03956">
        <ele>1042.69</ele>
        <time>2014-05-18T09:08:21Z</time>
      </trkpt>
      <trkpt lat="42.42979" lon="0.03958">
        <ele>1042.69</ele>
        <time>2014-05-18T09:08:42Z</time>
      </trkpt>
      <trkpt lat="42.42982" lon="0.03961">
        <ele>1040.28</ele>
        <time>2014-05-18T09:09:03Z</time>
      </trkpt>
      <trkpt lat="42.43008" lon="0.03974">
        <ele>1035</ele>
        <time>2014-05-18T09:09:07Z</time>
      </trkpt>
      <trkpt lat="42.43023" lon="0.0399">
        <ele>1031.63</ele>
        <time>2014-05-18T09:09:10Z</time>
      </trkpt>
      <trkpt lat="42.43027" lon="0.03995">
        <ele>1031.15</ele>
        <time>2014-05-18T09:09:12Z</time>
      </trkpt>
      <trkpt lat="42.43038" lon="0.04009">
        <ele>1029.23</ele>
        <time>2014-05-18T09:09:15Z</time>
      </trkpt>
      <trkpt lat="42.43044" lon="0.04015">
        <ele>1026.83</ele>
        <time>2014-05-18T09:09:17Z</time>
      </trkpt>
      <trkpt lat="42.43069" lon="0.04041">
        <ele>1023.94</ele>
        <time>2014-05-18T09:09:22Z</time>
      </trkpt>
      <trkpt lat="42.43075" lon="0.04049">
        <ele>1023.46</ele>
        <time>2014-05-18T09:09:24Z</time>
      </trkpt>
      <trkpt lat="42.43085" lon="0.04067">
        <ele>1022.98</ele>
        <time>2014-05-18T09:09:28Z</time>
      </trkpt>
      <trkpt lat="42.43095" lon="0.04088">
        <ele>1020.58</ele>
        <time>2014-05-18T09:09:31Z</time>
      </trkpt>
      <trkpt lat="42.43129" lon="0.04155">
        <ele>1017.21</ele>
        <time>2014-05-18T09:09:40Z</time>
      </trkpt>
      <trkpt lat="42.43133" lon="0.04162">
        <ele>1016.73</ele>
        <time>2014-05-18T09:09:41Z</time>
      </trkpt>
      <trkpt lat="42.43147" lon="0.04178">
        <ele>1014.81</ele>
        <time>2014-05-18T09:09:44Z</time>
      </trkpt>
      <trkpt lat="42.43163" lon="0.04192">
        <ele>1009.52</ele>
        <time>2014-05-18T09:09:47Z</time>
      </trkpt>
      <trkpt lat="42.43182" lon="0.04213">
        <ele>1007.12</ele>
        <time>2014-05-18T09:09:50Z</time>
      </trkpt>
      <trkpt lat="42.43192" lon="0.04226">
        <ele>1002.79</ele>
        <time>2014-05-18T09:09:52Z</time>
      </trkpt>
      <trkpt lat="42.43201" lon="0.04236">
        <ele>1001.83</ele>
        <time>2014-05-18T09:09:54Z</time>
      </trkpt>
      <trkpt lat="42.43211" lon="0.04245">
        <ele>1000.39</ele>
        <time>2014-05-18T09:09:56Z</time>
      </trkpt>
      <trkpt lat="42.4323" lon="0.04262">
        <ele>997.51</ele>
        <time>2014-05-18T09:10:00Z</time>
      </trkpt>
      <trkpt lat="42.43239" lon="0.04268">
        <ele>994.62</ele>
        <time>2014-05-18T09:10:02Z</time>
      </trkpt>
      <trkpt lat="42.43244" lon="0.04271">
        <ele>992.7</ele>
        <time>2014-05-18T09:10:03Z</time>
      </trkpt>
      <trkpt lat="42.43264" lon="0.04289">
        <ele>988.37</ele>
        <time>2014-05-18T09:10:07Z</time>
      </trkpt>
      <trkpt lat="42.43273" lon="0.04297">
        <ele>986.93</ele>
        <time>2014-05-18T09:10:11Z</time>
      </trkpt>
      <trkpt lat="42.43265" lon="0.04281">
        <ele>985.49</ele>
        <time>2014-05-18T09:10:14Z</time>
      </trkpt>
      <trkpt lat="42.43263" lon="0.04264">
        <ele>983.57</ele>
        <time>2014-05-18T09:10:17Z</time>
      </trkpt>
      <trkpt lat="42.43263" lon="0.04255">
        <ele>982.12</ele>
        <time>2014-05-18T09:10:20Z</time>
      </trkpt>
      <trkpt lat="42.43262" lon="0.0425">
        <ele>980.68</ele>
        <time>2014-05-18T09:10:21Z</time>
      </trkpt>
      <trkpt lat="42.43249" lon="0.04216">
        <ele>974.91</ele>
        <time>2014-05-18T09:10:26Z</time>
      </trkpt>
      <trkpt lat="42.43243" lon="0.04201">
        <ele>973.95</ele>
        <time>2014-05-18T09:10:28Z</time>
      </trkpt>
      <trkpt lat="42.43235" lon="0.04174">
        <ele>970.59</ele>
        <time>2014-05-18T09:10:33Z</time>
      </trkpt>
      <trkpt lat="42.43235" lon="0.04164">
        <ele>969.15</ele>
        <time>2014-05-18T09:10:35Z</time>
      </trkpt>
      <trkpt lat="42.43238" lon="0.04144">
        <ele>965.78</ele>
        <time>2014-05-18T09:10:39Z</time>
      </trkpt>
      <trkpt lat="42.43243" lon="0.04136">
        <ele>962.9</ele>
        <time>2014-05-18T09:10:42Z</time>
      </trkpt>
      <trkpt lat="42.43247" lon="0.04127">
        <ele>962.42</ele>
        <time>2014-05-18T09:10:44Z</time>
      </trkpt>
      <trkpt lat="42.43251" lon="0.04125">
        <ele>960.98</ele>
        <time>2014-05-18T09:10:45Z</time>
      </trkpt>
      <trkpt lat="42.43261" lon="0.04127">
        <ele>959.05</ele>
        <time>2014-05-18T09:10:47Z</time>
      </trkpt>
      <trkpt lat="42.43271" lon="0.04128">
        <ele>956.17</ele>
        <time>2014-05-18T09:10:50Z</time>
      </trkpt>
      <trkpt lat="42.43274" lon="0.0413">
        <ele>957.13</ele>
        <time>2014-05-18T09:10:51Z</time>
      </trkpt>
      <trkpt lat="42.43283" lon="0.04151">
        <ele>956.65</ele>
        <time>2014-05-18T09:10:56Z</time>
      </trkpt>
      <trkpt lat="42.43284" lon="0.04155">
        <ele>956.65</ele>
        <time>2014-05-18T09:10:57Z</time>
      </trkpt>
      <trkpt lat="42.4329" lon="0.04167">
        <ele>958.09</ele>
        <time>2014-05-18T09:11:00Z</time>
      </trkpt>
      <trkpt lat="42.43289" lon="0.04179">
        <ele>958.57</ele>
        <time>2014-05-18T09:11:03Z</time>
      </trkpt>
      <trkpt lat="42.43302" lon="0.04195">
        <ele>955.69</ele>
        <time>2014-05-18T09:11:07Z</time>
      </trkpt>
      <trkpt lat="42.43311" lon="0.04203">
        <ele>953.77</ele>
        <time>2014-05-18T09:11:09Z</time>
      </trkpt>
      <trkpt lat="42.43326" lon="0.04215">
        <ele>952.32</ele>
        <time>2014-05-18T09:11:13Z</time>
      </trkpt>
      <trkpt lat="42.43343" lon="0.04229">
        <ele>950.4</ele>
        <time>2014-05-18T09:11:16Z</time>
      </trkpt>
      <trkpt lat="42.43354" lon="0.0424">
        <ele>949.44</ele>
        <time>2014-05-18T09:11:18Z</time>
      </trkpt>
      <trkpt lat="42.43366" lon="0.04244">
        <ele>948</ele>
        <time>2014-05-18T09:11:20Z</time>
      </trkpt>
      <trkpt lat="42.43373" lon="0.04251">
        <ele>945.11</ele>
        <time>2014-05-18T09:11:24Z</time>
      </trkpt>
      <trkpt lat="42.43372" lon="0.04255">
        <ele>945.11</ele>
        <time>2014-05-18T09:11:25Z</time>
      </trkpt>
      <trkpt lat="42.43373" lon="0.04259">
        <ele>943.67</ele>
        <time>2014-05-18T09:11:26Z</time>
      </trkpt>
      <trkpt lat="42.43377" lon="0.04264">
        <ele>943.19</ele>
        <time>2014-05-18T09:11:28Z</time>
      </trkpt>
      <trkpt lat="42.43384" lon="0.04269">
        <ele>941.27</ele>
        <time>2014-05-18T09:11:30Z</time>
      </trkpt>
      <trkpt lat="42.43398" lon="0.04278">
        <ele>936.94</ele>
        <time>2014-05-18T09:11:35Z</time>
      </trkpt>
      <trkpt lat="42.43408" lon="0.04276">
        <ele>934.54</ele>
        <time>2014-05-18T09:11:38Z</time>
      </trkpt>
      <trkpt lat="42.4341" lon="0.04273">
        <ele>933.58</ele>
        <time>2014-05-18T09:11:40Z</time>
      </trkpt>
      <trkpt lat="42.43411" lon="0.04273">
        <ele>932.62</ele>
        <time>2014-05-18T09:11:41Z</time>
      </trkpt>
      <trkpt lat="42.43415" lon="0.04277">
        <ele>930.69</ele>
        <time>2014-05-18T09:11:43Z</time>
      </trkpt>
      <trkpt lat="42.43417" lon="0.0429">
        <ele>927.81</ele>
        <time>2014-05-18T09:11:46Z</time>
      </trkpt>
      <trkpt lat="42.43419" lon="0.04307">
        <ele>926.37</ele>
        <time>2014-05-18T09:11:49Z</time>
      </trkpt>
      <trkpt lat="42.43427" lon="0.04314">
        <ele>925.41</ele>
        <time>2014-05-18T09:11:51Z</time>
      </trkpt>
      <trkpt lat="42.43433" lon="0.0432">
        <ele>923.48</ele>
        <time>2014-05-18T09:11:54Z</time>
      </trkpt>
      <trkpt lat="42.43434" lon="0.04322">
        <ele>922.04</ele>
        <time>2014-05-18T09:11:57Z</time>
      </trkpt>
      <trkpt lat="42.4344" lon="0.04325">
        <ele>919.64</ele>
        <time>2014-05-18T09:12:01Z</time>
      </trkpt>
      <trkpt lat="42.43443" lon="0.04328">
        <ele>919.16</ele>
        <time>2014-05-18T09:12:02Z</time>
      </trkpt>
      <trkpt lat="42.43452" lon="0.04328">
        <ele>915.31</ele>
        <time>2014-05-18T09:12:07Z</time>
      </trkpt>
      <trkpt lat="42.43455" lon="0.04327">
        <ele>912.43</ele>
        <time>2014-05-18T09:12:09Z</time>
      </trkpt>
      <trkpt lat="42.43457" lon="0.04327">
        <ele>911.47</ele>
        <time>2014-05-18T09:12:10Z</time>
      </trkpt>
      <trkpt lat="42.43462" lon="0.04324">
        <ele>910.03</ele>
        <time>2014-05-18T09:12:12Z</time>
      </trkpt>
      <trkpt lat="42.43471" lon="0.04324">
        <ele>907.14</ele>
        <time>2014-05-18T09:12:16Z</time>
      </trkpt>
      <trkpt lat="42.43475" lon="0.0432">
        <ele>906.18</ele>
        <time>2014-05-18T09:12:18Z</time>
      </trkpt>
      <trkpt lat="42.43481" lon="0.04328">
        <ele>904.26</ele>
        <time>2014-05-18T09:12:22Z</time>
      </trkpt>
      <trkpt lat="42.43485" lon="0.04334">
        <ele>903.3</ele>
        <time>2014-05-18T09:12:24Z</time>
      </trkpt>
      <trkpt lat="42.43492" lon="0.04354">
        <ele>902.33</ele>
        <time>2014-05-18T09:12:30Z</time>
      </trkpt>
      <trkpt lat="42.43498" lon="0.04371">
        <ele>900.89</ele>
        <time>2014-05-18T09:12:35Z</time>
      </trkpt>
      <trkpt lat="42.43505" lon="0.0438">
        <ele>898.97</ele>
        <time>2014-05-18T09:12:38Z</time>
      </trkpt>
      <trkpt lat="42.43511" lon="0.04388">
        <ele>898.01</ele>
        <time>2014-05-18T09:12:41Z</time>
      </trkpt>
      <trkpt lat="42.43516" lon="0.04401">
        <ele>897.05</ele>
        <time>2014-05-18T09:12:45Z</time>
      </trkpt>
      <trkpt lat="42.43523" lon="0.04406">
        <ele>898.49</ele>
        <time>2014-05-18T09:12:48Z</time>
      </trkpt>
      <trkpt lat="42.43525" lon="0.0441">
        <ele>898.49</ele>
        <time>2014-05-18T09:12:51Z</time>
      </trkpt>
      <trkpt lat="42.43533" lon="0.04416">
        <ele>898.49</ele>
        <time>2014-05-18T09:12:55Z</time>
      </trkpt>
      <trkpt lat="42.43544" lon="0.04432">
        <ele>895.61</ele>
        <time>2014-05-18T09:12:59Z</time>
      </trkpt>
      <trkpt lat="42.43562" lon="0.04457">
        <ele>893.2</ele>
        <time>2014-05-18T09:13:04Z</time>
      </trkpt>
      <trkpt lat="42.43571" lon="0.04474">
        <ele>889.84</ele>
        <time>2014-05-18T09:13:08Z</time>
      </trkpt>
      <trkpt lat="42.43579" lon="0.04482">
        <ele>887.91</ele>
        <time>2014-05-18T09:13:10Z</time>
      </trkpt>
      <trkpt lat="42.43586" lon="0.04493">
        <ele>886.95</ele>
        <time>2014-05-18T09:13:12Z</time>
      </trkpt>
      <trkpt lat="42.43593" lon="0.04516">
        <ele>886.47</ele>
        <time>2014-05-18T09:13:16Z</time>
      </trkpt>
      <trkpt lat="42.43599" lon="0.04525">
        <ele>884.07</ele>
        <time>2014-05-18T09:13:19Z</time>
      </trkpt>
      <trkpt lat="42.43612" lon="0.04536">
        <ele>883.11</ele>
        <time>2014-05-18T09:13:22Z</time>
      </trkpt>
      <trkpt lat="42.43632" lon="0.04554">
        <ele>880.71</ele>
        <time>2014-05-18T09:13:27Z</time>
      </trkpt>
      <trkpt lat="42.43635" lon="0.04562">
        <ele>879.74</ele>
        <time>2014-05-18T09:13:30Z</time>
      </trkpt>
      <trkpt lat="42.43638" lon="0.04563">
        <ele>877.34</ele>
        <time>2014-05-18T09:13:32Z</time>
      </trkpt>
      <trkpt lat="42.43651" lon="0.04577">
        <ele>876.38</ele>
        <time>2014-05-18T09:13:36Z</time>
      </trkpt>
      <trkpt lat="42.43662" lon="0.04596">
        <ele>876.86</ele>
        <time>2014-05-18T09:13:39Z</time>
      </trkpt>
      <trkpt lat="42.43668" lon="0.04612">
        <ele>876.38</ele>
        <time>2014-05-18T09:13:42Z</time>
      </trkpt>
      <trkpt lat="42.43679" lon="0.04635">
        <ele>874.94</ele>
        <time>2014-05-18T09:13:46Z</time>
      </trkpt>
      <trkpt lat="42.43693" lon="0.0465">
        <ele>876.38</ele>
        <time>2014-05-18T09:13:49Z</time>
      </trkpt>
      <trkpt lat="42.43696" lon="0.04654">
        <ele>876.38</ele>
        <time>2014-05-18T09:13:50Z</time>
      </trkpt>
      <trkpt lat="42.43705" lon="0.04667">
        <ele>872.53</ele>
        <time>2014-05-18T09:13:53Z</time>
      </trkpt>
      <trkpt lat="42.43709" lon="0.04672">
        <ele>873.5</ele>
        <time>2014-05-18T09:13:54Z</time>
      </trkpt>
      <trkpt lat="42.43724" lon="0.04685">
        <ele>870.13</ele>
        <time>2014-05-18T09:13:57Z</time>
      </trkpt>
      <trkpt lat="42.43729" lon="0.04689">
        <ele>870.13</ele>
        <time>2014-05-18T09:13:58Z</time>
      </trkpt>
      <trkpt lat="42.43733" lon="0.04693">
        <ele>869.65</ele>
        <time>2014-05-18T09:13:59Z</time>
      </trkpt>
      <trkpt lat="42.43738" lon="0.04702">
        <ele>869.65</ele>
        <time>2014-05-18T09:14:01Z</time>
      </trkpt>
      <trkpt lat="42.43752" lon="0.04726">
        <ele>863.88</ele>
        <time>2014-05-18T09:14:05Z</time>
      </trkpt>
      <trkpt lat="42.43756" lon="0.04733">
        <ele>862.92</ele>
        <time>2014-05-18T09:14:06Z</time>
      </trkpt>
      <trkpt lat="42.43771" lon="0.04751">
        <ele>860.52</ele>
        <time>2014-05-18T09:14:09Z</time>
      </trkpt>
      <trkpt lat="42.43782" lon="0.0477">
        <ele>859.08</ele>
        <time>2014-05-18T09:14:12Z</time>
      </trkpt>
      <trkpt lat="42.438" lon="0.04785">
        <ele>855.23</ele>
        <time>2014-05-18T09:14:16Z</time>
      </trkpt>
      <trkpt lat="42.43813" lon="0.04799">
        <ele>852.83</ele>
        <time>2014-05-18T09:14:19Z</time>
      </trkpt>
      <trkpt lat="42.43829" lon="0.04823">
        <ele>850.9</ele>
        <time>2014-05-18T09:14:24Z</time>
      </trkpt>
      <trkpt lat="42.43839" lon="0.04828">
        <ele>848.5</ele>
        <time>2014-05-18T09:14:27Z</time>
      </trkpt>
      <trkpt lat="42.43852" lon="0.04847">
        <ele>842.25</ele>
        <time>2014-05-18T09:14:32Z</time>
      </trkpt>
      <trkpt lat="42.43865" lon="0.04869">
        <ele>840.81</ele>
        <time>2014-05-18T09:14:36Z</time>
      </trkpt>
      <trkpt lat="42.43871" lon="0.04871">
        <ele>838.89</ele>
        <time>2014-05-18T09:14:38Z</time>
      </trkpt>
      <trkpt lat="42.43877" lon="0.04876">
        <ele>837.93</ele>
        <time>2014-05-18T09:14:40Z</time>
      </trkpt>
      <trkpt lat="42.43894" lon="0.04882">
        <ele>834.08</ele>
        <time>2014-05-18T09:14:45Z</time>
      </trkpt>
      <trkpt lat="42.43897" lon="0.04885">
        <ele>834.08</ele>
        <time>2014-05-18T09:14:46Z</time>
      </trkpt>
      <trkpt lat="42.43916" lon="0.04899">
        <ele>830.72</ele>
        <time>2014-05-18T09:14:52Z</time>
      </trkpt>
      <trkpt lat="42.43924" lon="0.04905">
        <ele>827.83</ele>
        <time>2014-05-18T09:14:55Z</time>
      </trkpt>
      <trkpt lat="42.43926" lon="0.04906">
        <ele>827.83</ele>
        <time>2014-05-18T09:14:56Z</time>
      </trkpt>
      <trkpt lat="42.4393" lon="0.04908">
        <ele>828.31</ele>
        <time>2014-05-18T09:14:57Z</time>
      </trkpt>
      <trkpt lat="42.43941" lon="0.04917">
        <ele>826.87</ele>
        <time>2014-05-18T09:15:00Z</time>
      </trkpt>
      <trkpt lat="42.43959" lon="0.04927">
        <ele>823.99</ele>
        <time>2014-05-18T09:15:03Z</time>
      </trkpt>
      <trkpt lat="42.43969" lon="0.04938">
        <ele>823.99</ele>
        <time>2014-05-18T09:15:05Z</time>
      </trkpt>
      <trkpt lat="42.43982" lon="0.04953">
        <ele>821.58</ele>
        <time>2014-05-18T09:15:08Z</time>
      </trkpt>
      <trkpt lat="42.43991" lon="0.04962">
        <ele>822.55</ele>
        <time>2014-05-18T09:15:10Z</time>
      </trkpt>
      <trkpt lat="42.4401" lon="0.0497">
        <ele>821.1</ele>
        <time>2014-05-18T09:15:14Z</time>
      </trkpt>
      <trkpt lat="42.44015" lon="0.04972">
        <ele>820.62</ele>
        <time>2014-05-18T09:15:15Z</time>
      </trkpt>
      <trkpt lat="42.44026" lon="0.04981">
        <ele>820.14</ele>
        <time>2014-05-18T09:15:17Z</time>
      </trkpt>
      <trkpt lat="42.44056" lon="0.04998">
        <ele>820.14</ele>
        <time>2014-05-18T09:15:22Z</time>
      </trkpt>
      <trkpt lat="42.44078" lon="0.05004">
        <ele>820.62</ele>
        <time>2014-05-18T09:15:26Z</time>
      </trkpt>
      <trkpt lat="42.44103" lon="0.05006">
        <ele>822.55</ele>
        <time>2014-05-18T09:15:31Z</time>
      </trkpt>
      <trkpt lat="42.44122" lon="0.0502">
        <ele>824.95</ele>
        <time>2014-05-18T09:15:37Z</time>
      </trkpt>
      <trkpt lat="42.44124" lon="0.05022">
        <ele>824.95</ele>
        <time>2014-05-18T09:15:38Z</time>
      </trkpt>
      <trkpt lat="42.44135" lon="0.05032">
        <ele>825.43</ele>
        <time>2014-05-18T09:15:43Z</time>
      </trkpt>
      <trkpt lat="42.44141" lon="0.05042">
        <ele>826.39</ele>
        <time>2014-05-18T09:15:46Z</time>
      </trkpt>
      <trkpt lat="42.44153" lon="0.0505">
        <ele>826.87</ele>
        <time>2014-05-18T09:15:51Z</time>
      </trkpt>
      <trkpt lat="42.4416" lon="0.05054">
        <ele>826.39</ele>
        <time>2014-05-18T09:15:53Z</time>
      </trkpt>
      <trkpt lat="42.44167" lon="0.05062">
        <ele>828.31</ele>
        <time>2014-05-18T09:15:56Z</time>
      </trkpt>
      <trkpt lat="42.44168" lon="0.05064">
        <ele>828.31</ele>
        <time>2014-05-18T09:15:57Z</time>
      </trkpt>
      <trkpt lat="42.44182" lon="0.05073">
        <ele>828.79</ele>
        <time>2014-05-18T09:16:03Z</time>
      </trkpt>
      <trkpt lat="42.44198" lon="0.05081">
        <ele>828.79</ele>
        <time>2014-05-18T09:16:07Z</time>
      </trkpt>
      <trkpt lat="42.4422" lon="0.05093">
        <ele>829.27</ele>
        <time>2014-05-18T09:16:13Z</time>
      </trkpt>
      <trkpt lat="42.44227" lon="0.05096">
        <ele>829.27</ele>
        <time>2014-05-18T09:16:15Z</time>
      </trkpt>
      <trkpt lat="42.44239" lon="0.05102">
        <ele>828.31</ele>
        <time>2014-05-18T09:16:18Z</time>
      </trkpt>
      <trkpt lat="42.44246" lon="0.0511">
        <ele>826.87</ele>
        <time>2014-05-18T09:16:20Z</time>
      </trkpt>
      <trkpt lat="42.44258" lon="0.05126">
        <ele>823.51</ele>
        <time>2014-05-18T09:16:24Z</time>
      </trkpt>
      <trkpt lat="42.44261" lon="0.0513">
        <ele>823.03</ele>
        <time>2014-05-18T09:16:25Z</time>
      </trkpt>
      <trkpt lat="42.44272" lon="0.05155">
        <ele>822.06</ele>
        <time>2014-05-18T09:16:30Z</time>
      </trkpt>
      <trkpt lat="42.44286" lon="0.05172">
        <ele>817.26</ele>
        <time>2014-05-18T09:16:34Z</time>
      </trkpt>
      <trkpt lat="42.44296" lon="0.05182">
        <ele>815.82</ele>
        <time>2014-05-18T09:16:36Z</time>
      </trkpt>
      <trkpt lat="42.44311" lon="0.05204">
        <ele>813.89</ele>
        <time>2014-05-18T09:16:40Z</time>
      </trkpt>
      <trkpt lat="42.44325" lon="0.05224">
        <ele>813.41</ele>
        <time>2014-05-18T09:16:44Z</time>
      </trkpt>
      <trkpt lat="42.4433" lon="0.0523">
        <ele>812.45</ele>
        <time>2014-05-18T09:16:46Z</time>
      </trkpt>
      <trkpt lat="42.44337" lon="0.05233">
        <ele>810.05</ele>
        <time>2014-05-18T09:16:48Z</time>
      </trkpt>
      <trkpt lat="42.44353" lon="0.05248">
        <ele>806.68</ele>
        <time>2014-05-18T09:16:53Z</time>
      </trkpt>
      <trkpt lat="42.4436" lon="0.05253">
        <ele>805.24</ele>
        <time>2014-05-18T09:16:56Z</time>
      </trkpt>
      <trkpt lat="42.44368" lon="0.05264">
        <ele>801.88</ele>
        <time>2014-05-18T09:16:59Z</time>
      </trkpt>
      <trkpt lat="42.44379" lon="0.05277">
        <ele>798.99</ele>
        <time>2014-05-18T09:17:02Z</time>
      </trkpt>
      <trkpt lat="42.44388" lon="0.05298">
        <ele>796.11</ele>
        <time>2014-05-18T09:17:06Z</time>
      </trkpt>
      <trkpt lat="42.44395" lon="0.0532">
        <ele>793.22</ele>
        <time>2014-05-18T09:17:10Z</time>
      </trkpt>
      <trkpt lat="42.44408" lon="0.05342">
        <ele>788.42</ele>
        <time>2014-05-18T09:17:14Z</time>
      </trkpt>
      <trkpt lat="42.4441" lon="0.05346">
        <ele>786.98</ele>
        <time>2014-05-18T09:17:15Z</time>
      </trkpt>
      <trkpt lat="42.44414" lon="0.05369">
        <ele>784.09</ele>
        <time>2014-05-18T09:17:19Z</time>
      </trkpt>
      <trkpt lat="42.44419" lon="0.0538">
        <ele>782.65</ele>
        <time>2014-05-18T09:17:22Z</time>
      </trkpt>
      <trkpt lat="42.44418" lon="0.05389">
        <ele>778.81</ele>
        <time>2014-05-18T09:17:26Z</time>
      </trkpt>
      <trkpt lat="42.44428" lon="0.05386">
        <ele>775.92</ele>
        <time>2014-05-18T09:17:30Z</time>
      </trkpt>
      <trkpt lat="42.44425" lon="0.05404">
        <ele>772.08</ele>
        <time>2014-05-18T09:17:33Z</time>
      </trkpt>
      <trkpt lat="42.44424" lon="0.0542">
        <ele>771.6</ele>
        <time>2014-05-18T09:17:35Z</time>
      </trkpt>
      <trkpt lat="42.44425" lon="0.05436">
        <ele>769.19</ele>
        <time>2014-05-18T09:17:38Z</time>
      </trkpt>
      <trkpt lat="42.44427" lon="0.0544">
        <ele>768.71</ele>
        <time>2014-05-18T09:17:39Z</time>
      </trkpt>
      <trkpt lat="42.4444" lon="0.05467">
        <ele>762.94</ele>
        <time>2014-05-18T09:17:44Z</time>
      </trkpt>
      <trkpt lat="42.44447" lon="0.05483">
        <ele>759.58</ele>
        <time>2014-05-18T09:17:47Z</time>
      </trkpt>
      <trkpt lat="42.44464" lon="0.05504">
        <ele>753.81</ele>
        <time>2014-05-18T09:17:51Z</time>
      </trkpt>
      <trkpt lat="42.44471" lon="0.05517">
        <ele>751.89</ele>
        <time>2014-05-18T09:17:53Z</time>
      </trkpt>
      <trkpt lat="42.44484" lon="0.0554">
        <ele>748.04</ele>
        <time>2014-05-18T09:17:57Z</time>
      </trkpt>
      <trkpt lat="42.44491" lon="0.05555">
        <ele>745.64</ele>
        <time>2014-05-18T09:17:59Z</time>
      </trkpt>
      <trkpt lat="42.44506" lon="0.05587">
        <ele>740.35</ele>
        <time>2014-05-18T09:18:04Z</time>
      </trkpt>
      <trkpt lat="42.44513" lon="0.05599">
        <ele>737.95</ele>
        <time>2014-05-18T09:18:06Z</time>
      </trkpt>
      <trkpt lat="42.44519" lon="0.05627">
        <ele>735.55</ele>
        <time>2014-05-18T09:18:10Z</time>
      </trkpt>
      <trkpt lat="42.44523" lon="0.05656">
        <ele>732.18</ele>
        <time>2014-05-18T09:18:14Z</time>
      </trkpt>
      <trkpt lat="42.44523" lon="0.05676">
        <ele>729.3</ele>
        <time>2014-05-18T09:18:17Z</time>
      </trkpt>
      <trkpt lat="42.44523" lon="0.05681">
        <ele>729.3</ele>
        <time>2014-05-18T09:18:18Z</time>
      </trkpt>
      <trkpt lat="42.44522" lon="0.05686">
        <ele>728.34</ele>
        <time>2014-05-18T09:18:19Z</time>
      </trkpt>
      <trkpt lat="42.44523" lon="0.05707">
        <ele>723.05</ele>
        <time>2014-05-18T09:18:25Z</time>
      </trkpt>
      <trkpt lat="42.44524" lon="0.05712">
        <ele>721.13</ele>
        <time>2014-05-18T09:18:26Z</time>
      </trkpt>
      <trkpt lat="42.44524" lon="0.05723">
        <ele>719.2</ele>
        <time>2014-05-18T09:18:28Z</time>
      </trkpt>
      <trkpt lat="42.44514" lon="0.05766">
        <ele>715.84</ele>
        <time>2014-05-18T09:18:33Z</time>
      </trkpt>
      <trkpt lat="42.44512" lon="0.05775">
        <ele>716.32</ele>
        <time>2014-05-18T09:18:34Z</time>
      </trkpt>
      <trkpt lat="42.44505" lon="0.05806">
        <ele>714.88</ele>
        <time>2014-05-18T09:18:38Z</time>
      </trkpt>
      <trkpt lat="42.44491" lon="0.05832">
        <ele>711.51</ele>
        <time>2014-05-18T09:18:43Z</time>
      </trkpt>
      <trkpt lat="42.44483" lon="0.05856">
        <ele>707.67</ele>
        <time>2014-05-18T09:18:48Z</time>
      </trkpt>
      <trkpt lat="42.44483" lon="0.05864">
        <ele>706.23</ele>
        <time>2014-05-18T09:18:50Z</time>
      </trkpt>
      <trkpt lat="42.44482" lon="0.05876">
        <ele>705.26</ele>
        <time>2014-05-18T09:18:53Z</time>
      </trkpt>
      <trkpt lat="42.44477" lon="0.05884">
        <ele>704.3</ele>
        <time>2014-05-18T09:18:56Z</time>
      </trkpt>
      <trkpt lat="42.4448" lon="0.05884">
        <ele>701.9</ele>
        <time>2014-05-18T09:18:58Z</time>
      </trkpt>
      <trkpt lat="42.44484" lon="0.05889">
        <ele>697.57</ele>
        <time>2014-05-18T09:19:03Z</time>
      </trkpt>
      <trkpt lat="42.44477" lon="0.05899">
        <ele>696.13</ele>
        <time>2014-05-18T09:19:05Z</time>
      </trkpt>
      <trkpt lat="42.44473" lon="0.05911">
        <ele>692.77</ele>
        <time>2014-05-18T09:19:09Z</time>
      </trkpt>
      <trkpt lat="42.44471" lon="0.05926">
        <ele>692.29</ele>
        <time>2014-05-18T09:19:12Z</time>
      </trkpt>
      <trkpt lat="42.44471" lon="0.05934">
        <ele>689.4</ele>
        <time>2014-05-18T09:19:15Z</time>
      </trkpt>
      <trkpt lat="42.44469" lon="0.05943">
        <ele>686.04</ele>
        <time>2014-05-18T09:19:19Z</time>
      </trkpt>
      <trkpt lat="42.44474" lon="0.05958">
        <ele>679.79</ele>
        <time>2014-05-18T09:19:23Z</time>
      </trkpt>
      <trkpt lat="42.44472" lon="0.05969">
        <ele>675.94</ele>
        <time>2014-05-18T09:19:26Z</time>
      </trkpt>
      <trkpt lat="42.44466" lon="0.05993">
        <ele>671.14</ele>
        <time>2014-05-18T09:19:30Z</time>
      </trkpt>
      <trkpt lat="42.44466" lon="0.05999">
        <ele>667.77</ele>
        <time>2014-05-18T09:19:35Z</time>
      </trkpt>
      <trkpt lat="42.44469" lon="0.05997">
        <ele>666.33</ele>
        <time>2014-05-18T09:19:36Z</time>
      </trkpt>
      <trkpt lat="42.44477" lon="0.0599">
        <ele>664.41</ele>
        <time>2014-05-18T09:19:38Z</time>
      </trkpt>
      <trkpt lat="42.44483" lon="0.05987">
        <ele>662.49</ele>
        <time>2014-05-18T09:19:40Z</time>
      </trkpt>
      <trkpt lat="42.44484" lon="0.05987">
        <ele>662.01</ele>
        <time>2014-05-18T09:19:42Z</time>
      </trkpt>
      <trkpt lat="42.44486" lon="0.05991">
        <ele>660.08</ele>
        <time>2014-05-18T09:19:45Z</time>
      </trkpt>
      <trkpt lat="42.44487" lon="0.0599">
        <ele>658.64</ele>
        <time>2014-05-18T09:19:52Z</time>
      </trkpt>
      <trkpt lat="42.44488" lon="0.05989">
        <ele>657.68</ele>
        <time>2014-05-18T09:19:53Z</time>
      </trkpt>
      <trkpt lat="42.44489" lon="0.05988">
        <ele>656.72</ele>
        <time>2014-05-18T09:19:55Z</time>
      </trkpt>
      <trkpt lat="42.44489" lon="0.05996">
        <ele>653.35</ele>
        <time>2014-05-18T09:19:58Z</time>
      </trkpt>
      <trkpt lat="42.44483" lon="0.06027">
        <ele>648.55</ele>
        <time>2014-05-18T09:20:02Z</time>
      </trkpt>
      <trkpt lat="42.44482" lon="0.06042">
        <ele>645.66</ele>
        <time>2014-05-18T09:20:05Z</time>
      </trkpt>
      <trkpt lat="42.44481" lon="0.06074">
        <ele>640.38</ele>
        <time>2014-05-18T09:20:10Z</time>
      </trkpt>
      <trkpt lat="42.44483" lon="0.06082">
        <ele>641.34</ele>
        <time>2014-05-18T09:20:11Z</time>
      </trkpt>
      <trkpt lat="42.44488" lon="0.06095">
        <ele>639.41</ele>
        <time>2014-05-18T09:20:13Z</time>
      </trkpt>
      <trkpt lat="42.44493" lon="0.06106">
        <ele>636.53</ele>
        <time>2014-05-18T09:20:15Z</time>
      </trkpt>
      <trkpt lat="42.44506" lon="0.06107">
        <ele>634.13</ele>
        <time>2014-05-18T09:20:19Z</time>
      </trkpt>
      <trkpt lat="42.44505" lon="0.06111">
        <ele>632.2</ele>
        <time>2014-05-18T09:20:22Z</time>
      </trkpt>
      <trkpt lat="42.44503" lon="0.0612">
        <ele>629.8</ele>
        <time>2014-05-18T09:20:26Z</time>
      </trkpt>
      <trkpt lat="42.44505" lon="0.06123">
        <ele>626.92</ele>
        <time>2014-05-18T09:20:31Z</time>
      </trkpt>
      <trkpt lat="42.44502" lon="0.06128">
        <ele>625.96</ele>
        <time>2014-05-18T09:20:33Z</time>
      </trkpt>
      <trkpt lat="42.44498" lon="0.06132">
        <ele>624.51</ele>
        <time>2014-05-18T09:20:35Z</time>
      </trkpt>
      <trkpt lat="42.44495" lon="0.06139">
        <ele>622.59</ele>
        <time>2014-05-18T09:20:37Z</time>
      </trkpt>
      <trkpt lat="42.44494" lon="0.06162">
        <ele>617.3</ele>
        <time>2014-05-18T09:20:43Z</time>
      </trkpt>
      <trkpt lat="42.44494" lon="0.06167">
        <ele>616.82</ele>
        <time>2014-05-18T09:20:44Z</time>
      </trkpt>
      <trkpt lat="42.44492" lon="0.06189">
        <ele>612.5</ele>
        <time>2014-05-18T09:20:49Z</time>
      </trkpt>
      <trkpt lat="42.4449" lon="0.06204">
        <ele>608.65</ele>
        <time>2014-05-18T09:20:52Z</time>
      </trkpt>
      <trkpt lat="42.44486" lon="0.06218">
        <ele>607.21</ele>
        <time>2014-05-18T09:20:54Z</time>
      </trkpt>
      <trkpt lat="42.44482" lon="0.06234">
        <ele>604.33</ele>
        <time>2014-05-18T09:20:57Z</time>
      </trkpt>
      <trkpt lat="42.44483" lon="0.06244">
        <ele>602.88</ele>
        <time>2014-05-18T09:20:59Z</time>
      </trkpt>
      <trkpt lat="42.44487" lon="0.06252">
        <ele>600.96</ele>
        <time>2014-05-18T09:21:01Z</time>
      </trkpt>
      <trkpt lat="42.44482" lon="0.06273">
        <ele>600</ele>
        <time>2014-05-18T09:21:06Z</time>
      </trkpt>
      <trkpt lat="42.44474" lon="0.0631">
        <ele>600</ele>
        <time>2014-05-18T09:21:11Z</time>
      </trkpt>
      <trkpt lat="42.44455" lon="0.06387">
        <ele>598.56</ele>
        <time>2014-05-18T09:21:19Z</time>
      </trkpt>
      <trkpt lat="42.44451" lon="0.06406">
        <ele>598.56</ele>
        <time>2014-05-18T09:21:21Z</time>
      </trkpt>
      <trkpt lat="42.44436" lon="0.06448">
        <ele>599.04</ele>
        <time>2014-05-18T09:21:26Z</time>
      </trkpt>
      <trkpt lat="42.44417" lon="0.06487">
        <ele>598.56</ele>
        <time>2014-05-18T09:21:31Z</time>
      </trkpt>
      <trkpt lat="42.44397" lon="0.06531">
        <ele>599.04</ele>
        <time>2014-05-18T09:21:36Z</time>
      </trkpt>
      <trkpt lat="42.44392" lon="0.06547">
        <ele>600.96</ele>
        <time>2014-05-18T09:21:39Z</time>
      </trkpt>
      <trkpt lat="42.44395" lon="0.06552">
        <ele>601.92</ele>
        <time>2014-05-18T09:21:41Z</time>
      </trkpt>
      <trkpt lat="42.444" lon="0.06554">
        <ele>601.44</ele>
        <time>2014-05-18T09:21:44Z</time>
      </trkpt>
      <trkpt lat="42.44399" lon="0.06559">
        <ele>601.92</ele>
        <time>2014-05-18T09:21:52Z</time>
      </trkpt>
      <trkpt lat="42.44397" lon="0.06558">
        <ele>602.4</ele>
        <time>2014-05-18T09:21:58Z</time>
      </trkpt>
      <trkpt lat="42.44397" lon="0.06558">
        <ele>601.92</ele>
        <time>2014-05-18T09:22:05Z</time>
      </trkpt>
      <trkpt lat="42.44398" lon="0.06558">
        <ele>601.92</ele>
        <time>2014-05-18T09:22:07Z</time>
      </trkpt>
      <trkpt lat="42.44404" lon="0.06569">
        <ele>601.92</ele>
        <time>2014-05-18T09:22:13Z</time>
      </trkpt>
      <trkpt lat="42.44421" lon="0.06603">
        <ele>602.88</ele>
        <time>2014-05-18T09:22:24Z</time>
      </trkpt>
      <trkpt lat="42.44434" lon="0.06629">
        <ele>603.85</ele>
        <time>2014-05-18T09:22:33Z</time>
      </trkpt>
      <trkpt lat="42.44434" lon="0.06651">
        <ele>603.36</ele>
        <time>2014-05-18T09:22:38Z</time>
      </trkpt>
      <trkpt lat="42.4442" lon="0.06679">
        <ele>602.4</ele>
        <time>2014-05-18T09:22:44Z</time>
      </trkpt>
      <trkpt lat="42.44391" lon="0.06728">
        <ele>601.92</ele>
        <time>2014-05-18T09:22:53Z</time>
      </trkpt>
      <trkpt lat="42.44346" lon="0.06803">
        <ele>600.96</ele>
        <time>2014-05-18T09:23:05Z</time>
      </trkpt>
      <trkpt lat="42.44303" lon="0.06878">
        <ele>600.96</ele>
        <time>2014-05-18T09:23:18Z</time>
      </trkpt>
      <trkpt lat="42.44263" lon="0.06944">
        <ele>602.4</ele>
        <time>2014-05-18T09:23:30Z</time>
      </trkpt>
      <trkpt lat="42.44215" lon="0.07023">
        <ele>600.96</ele>
        <time>2014-05-18T09:23:44Z</time>
      </trkpt>
      <trkpt lat="42.44192" lon="0.07062">
        <ele>600.48</ele>
        <time>2014-05-18T09:23:51Z</time>
      </trkpt>
      <trkpt lat="42.44147" lon="0.07138">
        <ele>599.04</ele>
        <time>2014-05-18T09:24:05Z</time>
      </trkpt>
      <trkpt lat="42.44137" lon="0.07154">
        <ele>599.04</ele>
        <time>2014-05-18T09:24:08Z</time>
      </trkpt>
      <trkpt lat="42.441" lon="0.07227">
        <ele>598.08</ele>
        <time>2014-05-18T09:24:21Z</time>
      </trkpt>
      <trkpt lat="42.44061" lon="0.07285">
        <ele>596.64</ele>
        <time>2014-05-18T09:24:32Z</time>
      </trkpt>
      <trkpt lat="42.44023" lon="0.0735">
        <ele>597.12</ele>
        <time>2014-05-18T09:24:44Z</time>
      </trkpt>
      <trkpt lat="42.43988" lon="0.07411">
        <ele>597.12</ele>
        <time>2014-05-18T09:24:55Z</time>
      </trkpt>
      <trkpt lat="42.43939" lon="0.07496">
        <ele>596.64</ele>
        <time>2014-05-18T09:25:10Z</time>
      </trkpt>
      <trkpt lat="42.43891" lon="0.07578">
        <ele>595.19</ele>
        <time>2014-05-18T09:25:24Z</time>
      </trkpt>
      <trkpt lat="42.43832" lon="0.07672">
        <ele>593.27</ele>
        <time>2014-05-18T09:25:40Z</time>
      </trkpt>
      <trkpt lat="42.43792" lon="0.07739">
        <ele>594.23</ele>
        <time>2014-05-18T09:25:52Z</time>
      </trkpt>
      <trkpt lat="42.43751" lon="0.07793">
        <ele>594.71</ele>
        <time>2014-05-18T09:26:04Z</time>
      </trkpt>
      <trkpt lat="42.43708" lon="0.07847">
        <ele>594.71</ele>
        <time>2014-05-18T09:26:17Z</time>
      </trkpt>
      <trkpt lat="42.43675" lon="0.07905">
        <ele>594.71</ele>
        <time>2014-05-18T09:26:29Z</time>
      </trkpt>
      <trkpt lat="42.43672" lon="0.07909">
        <ele>594.23</ele>
        <time>2014-05-18T09:26:30Z</time>
      </trkpt>
      <trkpt lat="42.43657" lon="0.07919">
        <ele>594.71</ele>
        <time>2014-05-18T09:26:34Z</time>
      </trkpt>
      <trkpt lat="42.43652" lon="0.07916">
        <ele>594.71</ele>
        <time>2014-05-18T09:26:35Z</time>
      </trkpt>
      <trkpt lat="42.43605" lon="0.07877">
        <ele>591.83</ele>
        <time>2014-05-18T09:26:44Z</time>
      </trkpt>
      <trkpt lat="42.43586" lon="0.07863">
        <ele>589.91</ele>
        <time>2014-05-18T09:26:47Z</time>
      </trkpt>
      <trkpt lat="42.43579" lon="0.07859">
        <ele>589.91</ele>
        <time>2014-05-18T09:26:48Z</time>
      </trkpt>
      <trkpt lat="42.43565" lon="0.07851">
        <ele>588.46</ele>
        <time>2014-05-18T09:26:50Z</time>
      </trkpt>
      <trkpt lat="42.4354" lon="0.07854">
        <ele>587.5</ele>
        <time>2014-05-18T09:26:54Z</time>
      </trkpt>
      <trkpt lat="42.43536" lon="0.07859">
        <ele>587.5</ele>
        <time>2014-05-18T09:26:55Z</time>
      </trkpt>
      <trkpt lat="42.43501" lon="0.07942">
        <ele>587.98</ele>
        <time>2014-05-18T09:27:07Z</time>
      </trkpt>
      <trkpt lat="42.43458" lon="0.08025">
        <ele>587.02</ele>
        <time>2014-05-18T09:27:20Z</time>
      </trkpt>
      <trkpt lat="42.43415" lon="0.0811">
        <ele>586.06</ele>
        <time>2014-05-18T09:27:33Z</time>
      </trkpt>
      <trkpt lat="42.43381" lon="0.08172">
        <ele>585.1</ele>
        <time>2014-05-18T09:27:43Z</time>
      </trkpt>
      <trkpt lat="42.43328" lon="0.08275">
        <ele>584.62</ele>
        <time>2014-05-18T09:27:59Z</time>
      </trkpt>
      <trkpt lat="42.43281" lon="0.08364">
        <ele>584.14</ele>
        <time>2014-05-18T09:28:13Z</time>
      </trkpt>
      <trkpt lat="42.43274" lon="0.08376">
        <ele>583.66</ele>
        <time>2014-05-18T09:28:15Z</time>
      </trkpt>
      <trkpt lat="42.4326" lon="0.08389">
        <ele>584.62</ele>
        <time>2014-05-18T09:28:18Z</time>
      </trkpt>
      <trkpt lat="42.43255" lon="0.08397">
        <ele>585.58</ele>
        <time>2014-05-18T09:28:23Z</time>
      </trkpt>
      <trkpt lat="42.43256" lon="0.08396">
        <ele>585.1</ele>
        <time>2014-05-18T09:28:37Z</time>
      </trkpt>
      <trkpt lat="42.43255" lon="0.08397">
        <ele>583.66</ele>
        <time>2014-05-18T09:28:46Z</time>
      </trkpt>
      <trkpt lat="42.43256" lon="0.08398">
        <ele>585.58</ele>
        <time>2014-05-18T09:29:17Z</time>
      </trkpt>
      <trkpt lat="42.43256" lon="0.08398">
        <ele>585.58</ele>
        <time>2014-05-18T09:29:39Z</time>
      </trkpt>
      <trkpt lat="42.43256" lon="0.08397">
        <ele>585.1</ele>
        <time>2014-05-18T09:29:42Z</time>
      </trkpt>
      <trkpt lat="42.43252" lon="0.08385">
        <ele>584.62</ele>
        <time>2014-05-18T09:29:48Z</time>
      </trkpt>
      <trkpt lat="42.43222" lon="0.08366">
        <ele>584.62</ele>
        <time>2014-05-18T09:29:56Z</time>
      </trkpt>
      <trkpt lat="42.43178" lon="0.08338">
        <ele>584.62</ele>
        <time>2014-05-18T09:30:07Z</time>
      </trkpt>
      <trkpt lat="42.43152" lon="0.0832">
        <ele>584.62</ele>
        <time>2014-05-18T09:30:16Z</time>
      </trkpt>
      <trkpt lat="42.43118" lon="0.08301">
        <ele>585.1</ele>
        <time>2014-05-18T09:30:25Z</time>
      </trkpt>
      <trkpt lat="42.43083" lon="0.0828">
        <ele>586.54</ele>
        <time>2014-05-18T09:30:34Z</time>
      </trkpt>
      <trkpt lat="42.43056" lon="0.08263">
        <ele>587.02</ele>
        <time>2014-05-18T09:30:41Z</time>
      </trkpt>
      <trkpt lat="42.43004" lon="0.08233">
        <ele>587.98</ele>
        <time>2014-05-18T09:30:55Z</time>
      </trkpt>
      <trkpt lat="42.42954" lon="0.08204">
        <ele>589.43</ele>
        <time>2014-05-18T09:31:08Z</time>
      </trkpt>
      <trkpt lat="42.42893" lon="0.08168">
        <ele>590.39</ele>
        <time>2014-05-18T09:31:24Z</time>
      </trkpt>
      <trkpt lat="42.42864" lon="0.0815">
        <ele>591.83</ele>
        <time>2014-05-18T09:31:32Z</time>
      </trkpt>
      <trkpt lat="42.42826" lon="0.08129">
        <ele>593.27</ele>
        <time>2014-05-18T09:31:43Z</time>
      </trkpt>
      <trkpt lat="42.42786" lon="0.08103">
        <ele>593.27</ele>
        <time>2014-05-18T09:31:54Z</time>
      </trkpt>
      <trkpt lat="42.42766" lon="0.08085">
        <ele>593.27</ele>
        <time>2014-05-18T09:32:00Z</time>
      </trkpt>
      <trkpt lat="42.42739" lon="0.08056">
        <ele>595.19</ele>
        <time>2014-05-18T09:32:09Z</time>
      </trkpt>
      <trkpt lat="42.42723" lon="0.08012">
        <ele>597.12</ele>
        <time>2014-05-18T09:32:20Z</time>
      </trkpt>
      <trkpt lat="42.42709" lon="0.07965">
        <ele>599.04</ele>
        <time>2014-05-18T09:32:32Z</time>
      </trkpt>
      <trkpt lat="42.42698" lon="0.0793">
        <ele>600.48</ele>
        <time>2014-05-18T09:32:41Z</time>
      </trkpt>
      <trkpt lat="42.42681" lon="0.07911">
        <ele>601.92</ele>
        <time>2014-05-18T09:32:48Z</time>
      </trkpt>
      <trkpt lat="42.42656" lon="0.07899">
        <ele>603.36</ele>
        <time>2014-05-18T09:32:57Z</time>
      </trkpt>
      <trkpt lat="42.42636" lon="0.07901">
        <ele>604.81</ele>
        <time>2014-05-18T09:33:05Z</time>
      </trkpt>
      <trkpt lat="42.42614" lon="0.07919">
        <ele>606.25</ele>
        <time>2014-05-18T09:33:15Z</time>
      </trkpt>
      <trkpt lat="42.42586" lon="0.07948">
        <ele>608.65</ele>
        <time>2014-05-18T09:33:27Z</time>
      </trkpt>
      <trkpt lat="42.42568" lon="0.0798">
        <ele>609.61</ele>
        <time>2014-05-18T09:33:37Z</time>
      </trkpt>
      <trkpt lat="42.42558" lon="0.08019">
        <ele>610.09</ele>
        <time>2014-05-18T09:33:47Z</time>
      </trkpt>
      <trkpt lat="42.42556" lon="0.08051">
        <ele>612.02</ele>
        <time>2014-05-18T09:33:55Z</time>
      </trkpt>
      <trkpt lat="42.42568" lon="0.08073">
        <ele>612.5</ele>
        <time>2014-05-18T09:34:02Z</time>
      </trkpt>
      <trkpt lat="42.42592" lon="0.08102">
        <ele>614.42</ele>
        <time>2014-05-18T09:34:14Z</time>
      </trkpt>
      <trkpt lat="42.42625" lon="0.08128">
        <ele>615.86</ele>
        <time>2014-05-18T09:34:26Z</time>
      </trkpt>
      <trkpt lat="42.4265" lon="0.08147">
        <ele>618.75</ele>
        <time>2014-05-18T09:34:38Z</time>
      </trkpt>
      <trkpt lat="42.42668" lon="0.08154">
        <ele>620.67</ele>
        <time>2014-05-18T09:34:47Z</time>
      </trkpt>
      <trkpt lat="42.42685" lon="0.08169">
        <ele>621.63</ele>
        <time>2014-05-18T09:34:57Z</time>
      </trkpt>
      <trkpt lat="42.42696" lon="0.08196">
        <ele>624.99</ele>
        <time>2014-05-18T09:35:08Z</time>
      </trkpt>
      <trkpt lat="42.4271" lon="0.08222">
        <ele>626.44</ele>
        <time>2014-05-18T09:35:20Z</time>
      </trkpt>
      <trkpt lat="42.42725" lon="0.08248">
        <ele>628.84</ele>
        <time>2014-05-18T09:35:33Z</time>
      </trkpt>
      <trkpt lat="42.4272" lon="0.08267">
        <ele>630.28</ele>
        <time>2014-05-18T09:35:41Z</time>
      </trkpt>
      <trkpt lat="42.42705" lon="0.08278">
        <ele>631.24</ele>
        <time>2014-05-18T09:35:50Z</time>
      </trkpt>
      <trkpt lat="42.42686" lon="0.08284">
        <ele>633.17</ele>
        <time>2014-05-18T09:35:58Z</time>
      </trkpt>
      <trkpt lat="42.42664" lon="0.08287">
        <ele>634.13</ele>
        <time>2014-05-18T09:36:08Z</time>
      </trkpt>
      <trkpt lat="42.42638" lon="0.08287">
        <ele>635.09</ele>
        <time>2014-05-18T09:36:19Z</time>
      </trkpt>
      <trkpt lat="42.42599" lon="0.08287">
        <ele>635.57</ele>
        <time>2014-05-18T09:36:32Z</time>
      </trkpt>
      <trkpt lat="42.42568" lon="0.08288">
        <ele>634.13</ele>
        <time>2014-05-18T09:36:40Z</time>
      </trkpt>
      <trkpt lat="42.42519" lon="0.08287">
        <ele>633.65</ele>
        <time>2014-05-18T09:36:51Z</time>
      </trkpt>
      <trkpt lat="42.42494" lon="0.08293">
        <ele>633.17</ele>
        <time>2014-05-18T09:36:57Z</time>
      </trkpt>
      <trkpt lat="42.42475" lon="0.08292">
        <ele>634.13</ele>
        <time>2014-05-18T09:37:02Z</time>
      </trkpt>
      <trkpt lat="42.42471" lon="0.08286">
        <ele>635.09</ele>
        <time>2014-05-18T09:37:04Z</time>
      </trkpt>
      <trkpt lat="42.42462" lon="0.0825">
        <ele>636.53</ele>
        <time>2014-05-18T09:37:14Z</time>
      </trkpt>
      <trkpt lat="42.42449" lon="0.08209">
        <ele>638.93</ele>
        <time>2014-05-18T09:37:27Z</time>
      </trkpt>
      <trkpt lat="42.42432" lon="0.08196">
        <ele>639.89</ele>
        <time>2014-05-18T09:37:35Z</time>
      </trkpt>
      <trkpt lat="42.42399" lon="0.0818">
        <ele>640.86</ele>
        <time>2014-05-18T09:37:47Z</time>
      </trkpt>
      <trkpt lat="42.4236" lon="0.08159">
        <ele>641.34</ele>
        <time>2014-05-18T09:38:01Z</time>
      </trkpt>
      <trkpt lat="42.42334" lon="0.08146">
        <ele>642.3</ele>
        <time>2014-05-18T09:38:11Z</time>
      </trkpt>
      <trkpt lat="42.42301" lon="0.08134">
        <ele>643.74</ele>
        <time>2014-05-18T09:38:23Z</time>
      </trkpt>
      <trkpt lat="42.42284" lon="0.08126">
        <ele>644.7</ele>
        <time>2014-05-18T09:38:30Z</time>
      </trkpt>
      <trkpt lat="42.42269" lon="0.08117">
        <ele>645.66</ele>
        <time>2014-05-18T09:38:38Z</time>
      </trkpt>
      <trkpt lat="42.42252" lon="0.08107">
        <ele>646.62</ele>
        <time>2014-05-18T09:38:45Z</time>
      </trkpt>
      <trkpt lat="42.42237" lon="0.08096">
        <ele>647.59</ele>
        <time>2014-05-18T09:38:53Z</time>
      </trkpt>
      <trkpt lat="42.42233" lon="0.08094">
        <ele>648.55</ele>
        <time>2014-05-18T09:38:55Z</time>
      </trkpt>
      <trkpt lat="42.4222" lon="0.08085">
        <ele>649.03</ele>
        <time>2014-05-18T09:39:02Z</time>
      </trkpt>
      <trkpt lat="42.42204" lon="0.08077">
        <ele>649.03</ele>
        <time>2014-05-18T09:39:09Z</time>
      </trkpt>
      <trkpt lat="42.42188" lon="0.08069">
        <ele>649.99</ele>
        <time>2014-05-18T09:39:17Z</time>
      </trkpt>
      <trkpt lat="42.42172" lon="0.08063">
        <ele>651.91</ele>
        <time>2014-05-18T09:39:26Z</time>
      </trkpt>
      <trkpt lat="42.42159" lon="0.08058">
        <ele>652.87</ele>
        <time>2014-05-18T09:39:33Z</time>
      </trkpt>
      <trkpt lat="42.42136" lon="0.08046">
        <ele>652.87</ele>
        <time>2014-05-18T09:39:44Z</time>
      </trkpt>
      <trkpt lat="42.42121" lon="0.08044">
        <ele>652.39</ele>
        <time>2014-05-18T09:39:50Z</time>
      </trkpt>
      <trkpt lat="42.42094" lon="0.08039">
        <ele>652.87</ele>
        <time>2014-05-18T09:39:58Z</time>
      </trkpt>
      <trkpt lat="42.42077" lon="0.08036">
        <ele>652.39</ele>
        <time>2014-05-18T09:40:04Z</time>
      </trkpt>
      <trkpt lat="42.42067" lon="0.08028">
        <ele>652.87</ele>
        <time>2014-05-18T09:40:07Z</time>
      </trkpt>
      <trkpt lat="42.42051" lon="0.0803">
        <ele>653.83</ele>
        <time>2014-05-18T09:40:13Z</time>
      </trkpt>
      <trkpt lat="42.42045" lon="0.08033">
        <ele>654.31</ele>
        <time>2014-05-18T09:40:16Z</time>
      </trkpt>
      <trkpt lat="42.42027" lon="0.08028">
        <ele>658.16</ele>
        <time>2014-05-18T09:40:29Z</time>
      </trkpt>
      <trkpt lat="42.42026" lon="0.08028">
        <ele>658.16</ele>
        <time>2014-05-18T09:40:30Z</time>
      </trkpt>
      <trkpt lat="42.42013" lon="0.08023">
        <ele>660.56</ele>
        <time>2014-05-18T09:40:39Z</time>
      </trkpt>
      <trkpt lat="42.42012" lon="0.08022">
        <ele>661.04</ele>
        <time>2014-05-18T09:40:40Z</time>
      </trkpt>
      <trkpt lat="42.42004" lon="0.08018">
        <ele>661.52</ele>
        <time>2014-05-18T09:40:49Z</time>
      </trkpt>
      <trkpt lat="42.42002" lon="0.0802">
        <ele>662.97</ele>
        <time>2014-05-18T09:40:56Z</time>
      </trkpt>
      <trkpt lat="42.41993" lon="0.08022">
        <ele>664.41</ele>
        <time>2014-05-18T09:41:06Z</time>
      </trkpt>
      <trkpt lat="42.41986" lon="0.08023">
        <ele>664.89</ele>
        <time>2014-05-18T09:41:15Z</time>
      </trkpt>
      <trkpt lat="42.41978" lon="0.08026">
        <ele>665.85</ele>
        <time>2014-05-18T09:41:24Z</time>
      </trkpt>
      <trkpt lat="42.41969" lon="0.0803">
        <ele>666.33</ele>
        <time>2014-05-18T09:41:31Z</time>
      </trkpt>
      <trkpt lat="42.41954" lon="0.08024">
        <ele>666.33</ele>
        <time>2014-05-18T09:41:38Z</time>
      </trkpt>
      <trkpt lat="42.41934" lon="0.08013">
        <ele>666.33</ele>
        <time>2014-05-18T09:41:45Z</time>
      </trkpt>
      <trkpt lat="42.41912" lon="0.08004">
        <ele>666.81</ele>
        <time>2014-05-18T09:41:53Z</time>
      </trkpt>
      <trkpt lat="42.41895" lon="0.07996">
        <ele>667.77</ele>
        <time>2014-05-18T09:42:01Z</time>
      </trkpt>
      <trkpt lat="42.41877" lon="0.07982">
        <ele>669.7</ele>
        <time>2014-05-18T09:42:09Z</time>
      </trkpt>
      <trkpt lat="42.41866" lon="0.07972">
        <ele>670.66</ele>
        <time>2014-05-18T09:42:15Z</time>
      </trkpt>
      <trkpt lat="42.41861" lon="0.07966">
        <ele>669.7</ele>
        <time>2014-05-18T09:42:18Z</time>
      </trkpt>
      <trkpt lat="42.41848" lon="0.07957">
        <ele>671.14</ele>
        <time>2014-05-18T09:42:25Z</time>
      </trkpt>
      <trkpt lat="42.41838" lon="0.07957">
        <ele>674.02</ele>
        <time>2014-05-18T09:42:33Z</time>
      </trkpt>
      <trkpt lat="42.41834" lon="0.07957">
        <ele>674.02</ele>
        <time>2014-05-18T09:42:36Z</time>
      </trkpt>
      <trkpt lat="42.41831" lon="0.07959">
        <ele>674.5</ele>
        <time>2014-05-18T09:42:39Z</time>
      </trkpt>
      <trkpt lat="42.41826" lon="0.07961">
        <ele>675.94</ele>
        <time>2014-05-18T09:42:43Z</time>
      </trkpt>
      <trkpt lat="42.41822" lon="0.07963">
        <ele>676.42</ele>
        <time>2014-05-18T09:42:47Z</time>
      </trkpt>
      <trkpt lat="42.41811" lon="0.07967">
        <ele>676.91</ele>
        <time>2014-05-18T09:42:55Z</time>
      </trkpt>
      <trkpt lat="42.41795" lon="0.07973">
        <ele>675.94</ele>
        <time>2014-05-18T09:43:01Z</time>
      </trkpt>
      <trkpt lat="42.41781" lon="0.07978">
        <ele>678.35</ele>
        <time>2014-05-18T09:43:07Z</time>
      </trkpt>
      <trkpt lat="42.41776" lon="0.0798">
        <ele>678.35</ele>
        <time>2014-05-18T09:43:11Z</time>
      </trkpt>
      <trkpt lat="42.41771" lon="0.07981">
        <ele>678.83</ele>
        <time>2014-05-18T09:43:15Z</time>
      </trkpt>
      <trkpt lat="42.41756" lon="0.07984">
        <ele>679.79</ele>
        <time>2014-05-18T09:43:24Z</time>
      </trkpt>
      <trkpt lat="42.41752" lon="0.07983">
        <ele>680.75</ele>
        <time>2014-05-18T09:43:27Z</time>
      </trkpt>
      <trkpt lat="42.41746" lon="0.07984">
        <ele>681.71</ele>
        <time>2014-05-18T09:43:32Z</time>
      </trkpt>
      <trkpt lat="42.41733" lon="0.07972">
        <ele>681.23</ele>
        <time>2014-05-18T09:43:42Z</time>
      </trkpt>
      <trkpt lat="42.4172" lon="0.07963">
        <ele>681.23</ele>
        <time>2014-05-18T09:43:49Z</time>
      </trkpt>
      <trkpt lat="42.41709" lon="0.07968">
        <ele>681.71</ele>
        <time>2014-05-18T09:43:55Z</time>
      </trkpt>
      <trkpt lat="42.41703" lon="0.07969">
        <ele>683.15</ele>
        <time>2014-05-18T09:43:59Z</time>
      </trkpt>
      <trkpt lat="42.41688" lon="0.07967">
        <ele>682.67</ele>
        <time>2014-05-18T09:44:08Z</time>
      </trkpt>
      <trkpt lat="42.41669" lon="0.0797">
        <ele>685.56</ele>
        <time>2014-05-18T09:44:19Z</time>
      </trkpt>
      <trkpt lat="42.41655" lon="0.0797">
        <ele>687.48</ele>
        <time>2014-05-18T09:44:30Z</time>
      </trkpt>
      <trkpt lat="42.41641" lon="0.07971">
        <ele>690.36</ele>
        <time>2014-05-18T09:44:41Z</time>
      </trkpt>
      <trkpt lat="42.41628" lon="0.07974">
        <ele>693.25</ele>
        <time>2014-05-18T09:44:53Z</time>
      </trkpt>
      <trkpt lat="42.41608" lon="0.07973">
        <ele>695.17</ele>
        <time>2014-05-18T09:45:08Z</time>
      </trkpt>
      <trkpt lat="42.41588" lon="0.07974">
        <ele>696.13</ele>
        <time>2014-05-18T09:45:20Z</time>
      </trkpt>
      <trkpt lat="42.41578" lon="0.07975">
        <ele>696.61</ele>
        <time>2014-05-18T09:45:25Z</time>
      </trkpt>
      <trkpt lat="42.4157" lon="0.07982">
        <ele>697.09</ele>
        <time>2014-05-18T09:45:31Z</time>
      </trkpt>
      <trkpt lat="42.41554" lon="0.07994">
        <ele>699.5</ele>
        <time>2014-05-18T09:45:42Z</time>
      </trkpt>
      <trkpt lat="42.41539" lon="0.08008">
        <ele>701.42</ele>
        <time>2014-05-18T09:45:54Z</time>
      </trkpt>
      <trkpt lat="42.41528" lon="0.08016">
        <ele>703.82</ele>
        <time>2014-05-18T09:46:04Z</time>
      </trkpt>
      <trkpt lat="42.41527" lon="0.08016">
        <ele>703.82</ele>
        <time>2014-05-18T09:46:05Z</time>
      </trkpt>
      <trkpt lat="42.41523" lon="0.0802">
        <ele>704.78</ele>
        <time>2014-05-18T09:46:09Z</time>
      </trkpt>
      <trkpt lat="42.41511" lon="0.08033">
        <ele>707.19</ele>
        <time>2014-05-18T09:46:20Z</time>
      </trkpt>
      <trkpt lat="42.41503" lon="0.08043">
        <ele>708.15</ele>
        <time>2014-05-18T09:46:28Z</time>
      </trkpt>
      <trkpt lat="42.41488" lon="0.08049">
        <ele>709.11</ele>
        <time>2014-05-18T09:46:38Z</time>
      </trkpt>
      <trkpt lat="42.41483" lon="0.08036">
        <ele>710.07</ele>
        <time>2014-05-18T09:46:45Z</time>
      </trkpt>
      <trkpt lat="42.41482" lon="0.08034">
        <ele>710.55</ele>
        <time>2014-05-18T09:46:46Z</time>
      </trkpt>
      <trkpt lat="42.41482" lon="0.08021">
        <ele>711.51</ele>
        <time>2014-05-18T09:46:51Z</time>
      </trkpt>
      <trkpt lat="42.41483" lon="0.08004">
        <ele>712.47</ele>
        <time>2014-05-18T09:46:59Z</time>
      </trkpt>
      <trkpt lat="42.41482" lon="0.0799">
        <ele>712.47</ele>
        <time>2014-05-18T09:47:05Z</time>
      </trkpt>
      <trkpt lat="42.41478" lon="0.07968">
        <ele>713.44</ele>
        <time>2014-05-18T09:47:14Z</time>
      </trkpt>
      <trkpt lat="42.4148" lon="0.07954">
        <ele>714.88</ele>
        <time>2014-05-18T09:47:22Z</time>
      </trkpt>
      <trkpt lat="42.41477" lon="0.07947">
        <ele>715.84</ele>
        <time>2014-05-18T09:47:26Z</time>
      </trkpt>
      <trkpt lat="42.41474" lon="0.07942">
        <ele>716.8</ele>
        <time>2014-05-18T09:47:32Z</time>
      </trkpt>
      <trkpt lat="42.41472" lon="0.07934">
        <ele>717.28</ele>
        <time>2014-05-18T09:47:40Z</time>
      </trkpt>
      <trkpt lat="42.41472" lon="0.07932">
        <ele>717.76</ele>
        <time>2014-05-18T09:47:44Z</time>
      </trkpt>
      <trkpt lat="42.4147" lon="0.07916">
        <ele>720.16</ele>
        <time>2014-05-18T09:47:54Z</time>
      </trkpt>
      <trkpt lat="42.41467" lon="0.07901">
        <ele>721.13</ele>
        <time>2014-05-18T09:48:03Z</time>
      </trkpt>
      <trkpt lat="42.41463" lon="0.07888">
        <ele>722.09</ele>
        <time>2014-05-18T09:48:10Z</time>
      </trkpt>
      <trkpt lat="42.41459" lon="0.07873">
        <ele>723.05</ele>
        <time>2014-05-18T09:48:18Z</time>
      </trkpt>
      <trkpt lat="42.41458" lon="0.0787">
        <ele>724.49</ele>
        <time>2014-05-18T09:48:24Z</time>
      </trkpt>
      <trkpt lat="42.41455" lon="0.07857">
        <ele>724.97</ele>
        <time>2014-05-18T09:48:35Z</time>
      </trkpt>
      <trkpt lat="42.41454" lon="0.07841">
        <ele>726.89</ele>
        <time>2014-05-18T09:48:45Z</time>
      </trkpt>
      <trkpt lat="42.41449" lon="0.07829">
        <ele>728.34</ele>
        <time>2014-05-18T09:48:55Z</time>
      </trkpt>
      <trkpt lat="42.41448" lon="0.07819">
        <ele>730.74</ele>
        <time>2014-05-18T09:49:05Z</time>
      </trkpt>
      <trkpt lat="42.41448" lon="0.07816">
        <ele>730.26</ele>
        <time>2014-05-18T09:49:10Z</time>
      </trkpt>
      <trkpt lat="42.41454" lon="0.07812">
        <ele>729.3</ele>
        <time>2014-05-18T09:49:17Z</time>
      </trkpt>
      <trkpt lat="42.41463" lon="0.07812">
        <ele>731.22</ele>
        <time>2014-05-18T09:49:26Z</time>
      </trkpt>
      <trkpt lat="42.41467" lon="0.07811">
        <ele>731.7</ele>
        <time>2014-05-18T09:49:31Z</time>
      </trkpt>
      <trkpt lat="42.41469" lon="0.07804">
        <ele>733.62</ele>
        <time>2014-05-18T09:49:38Z</time>
      </trkpt>
      <trkpt lat="42.41465" lon="0.078">
        <ele>735.07</ele>
        <time>2014-05-18T09:49:45Z</time>
      </trkpt>
      <trkpt lat="42.41455" lon="0.07796">
        <ele>735.55</ele>
        <time>2014-05-18T09:49:56Z</time>
      </trkpt>
      <trkpt lat="42.41453" lon="0.07795">
        <ele>736.03</ele>
        <time>2014-05-18T09:49:58Z</time>
      </trkpt>
      <trkpt lat="42.41447" lon="0.07782">
        <ele>738.43</ele>
        <time>2014-05-18T09:50:11Z</time>
      </trkpt>
      <trkpt lat="42.41447" lon="0.07781">
        <ele>738.43</ele>
        <time>2014-05-18T09:50:23Z</time>
      </trkpt>
      <trkpt lat="42.41438" lon="0.07765">
        <ele>739.39</ele>
        <time>2014-05-18T09:50:33Z</time>
      </trkpt>
      <trkpt lat="42.41431" lon="0.07748">
        <ele>741.31</ele>
        <time>2014-05-18T09:50:42Z</time>
      </trkpt>
      <trkpt lat="42.41426" lon="0.07731">
        <ele>742.28</ele>
        <time>2014-05-18T09:50:51Z</time>
      </trkpt>
      <trkpt lat="42.4142" lon="0.07713">
        <ele>744.2</ele>
        <time>2014-05-18T09:51:01Z</time>
      </trkpt>
      <trkpt lat="42.41418" lon="0.07708">
        <ele>744.2</ele>
        <time>2014-05-18T09:51:04Z</time>
      </trkpt>
      <trkpt lat="42.41409" lon="0.07694">
        <ele>745.16</ele>
        <time>2014-05-18T09:51:14Z</time>
      </trkpt>
      <trkpt lat="42.41403" lon="0.07683">
        <ele>746.12</ele>
        <time>2014-05-18T09:51:21Z</time>
      </trkpt>
      <trkpt lat="42.41401" lon="0.07679">
        <ele>746.6</ele>
        <time>2014-05-18T09:51:24Z</time>
      </trkpt>
      <trkpt lat="42.41393" lon="0.07666">
        <ele>748.04</ele>
        <time>2014-05-18T09:51:33Z</time>
      </trkpt>
      <trkpt lat="42.41385" lon="0.0765">
        <ele>749.97</ele>
        <time>2014-05-18T09:51:45Z</time>
      </trkpt>
      <trkpt lat="42.41378" lon="0.07643">
        <ele>751.41</ele>
        <time>2014-05-18T09:51:51Z</time>
      </trkpt>
      <trkpt lat="42.4137" lon="0.07634">
        <ele>752.37</ele>
        <time>2014-05-18T09:51:59Z</time>
      </trkpt>
      <trkpt lat="42.41368" lon="0.0763">
        <ele>752.85</ele>
        <time>2014-05-18T09:52:05Z</time>
      </trkpt>
      <trkpt lat="42.41363" lon="0.07628">
        <ele>754.29</ele>
        <time>2014-05-18T09:52:11Z</time>
      </trkpt>
      <trkpt lat="42.41361" lon="0.0762">
        <ele>754.77</ele>
        <time>2014-05-18T09:52:19Z</time>
      </trkpt>
      <trkpt lat="42.41361" lon="0.07619">
        <ele>754.77</ele>
        <time>2014-05-18T09:52:20Z</time>
      </trkpt>
      <trkpt lat="42.41362" lon="0.07608">
        <ele>754.77</ele>
        <time>2014-05-18T09:52:29Z</time>
      </trkpt>
      <trkpt lat="42.41361" lon="0.07597">
        <ele>754.29</ele>
        <time>2014-05-18T09:52:36Z</time>
      </trkpt>
      <trkpt lat="42.41355" lon="0.0758">
        <ele>755.73</ele>
        <time>2014-05-18T09:52:44Z</time>
      </trkpt>
      <trkpt lat="42.41341" lon="0.07565">
        <ele>756.69</ele>
        <time>2014-05-18T09:52:53Z</time>
      </trkpt>
      <trkpt lat="42.41332" lon="0.07554">
        <ele>757.18</ele>
        <time>2014-05-18T09:53:01Z</time>
      </trkpt>
      <trkpt lat="42.41324" lon="0.07545">
        <ele>759.1</ele>
        <time>2014-05-18T09:53:08Z</time>
      </trkpt>
      <trkpt lat="42.41315" lon="0.07533">
        <ele>760.06</ele>
        <time>2014-05-18T09:53:17Z</time>
      </trkpt>
      <trkpt lat="42.41308" lon="0.07523">
        <ele>760.54</ele>
        <time>2014-05-18T09:53:25Z</time>
      </trkpt>
      <trkpt lat="42.41298" lon="0.07512">
        <ele>762.46</ele>
        <time>2014-05-18T09:53:34Z</time>
      </trkpt>
      <trkpt lat="42.41287" lon="0.07499">
        <ele>764.39</ele>
        <time>2014-05-18T09:53:44Z</time>
      </trkpt>
      <trkpt lat="42.41275" lon="0.07485">
        <ele>765.83</ele>
        <time>2014-05-18T09:53:55Z</time>
      </trkpt>
      <trkpt lat="42.41266" lon="0.07472">
        <ele>766.79</ele>
        <time>2014-05-18T09:54:05Z</time>
      </trkpt>
      <trkpt lat="42.4126" lon="0.07453">
        <ele>767.75</ele>
        <time>2014-05-18T09:54:15Z</time>
      </trkpt>
      <trkpt lat="42.41255" lon="0.07438">
        <ele>768.71</ele>
        <time>2014-05-18T09:54:23Z</time>
      </trkpt>
      <trkpt lat="42.41252" lon="0.07421">
        <ele>769.67</ele>
        <time>2014-05-18T09:54:31Z</time>
      </trkpt>
      <trkpt lat="42.4125" lon="0.0741">
        <ele>771.11</ele>
        <time>2014-05-18T09:54:37Z</time>
      </trkpt>
      <trkpt lat="42.4125" lon="0.07388">
        <ele>771.6</ele>
        <time>2014-05-18T09:54:47Z</time>
      </trkpt>
      <trkpt lat="42.4125" lon="0.07369">
        <ele>773.52</ele>
        <time>2014-05-18T09:54:56Z</time>
      </trkpt>
      <trkpt lat="42.41247" lon="0.07361">
        <ele>773.52</ele>
        <time>2014-05-18T09:55:00Z</time>
      </trkpt>
      <trkpt lat="42.41241" lon="0.07351">
        <ele>774.96</ele>
        <time>2014-05-18T09:55:07Z</time>
      </trkpt>
      <trkpt lat="42.41237" lon="0.07349">
        <ele>775.44</ele>
        <time>2014-05-18T09:55:14Z</time>
      </trkpt>
      <trkpt lat="42.41237" lon="0.07348">
        <ele>775.44</ele>
        <time>2014-05-18T09:55:15Z</time>
      </trkpt>
      <trkpt lat="42.41224" lon="0.07343">
        <ele>776.4</ele>
        <time>2014-05-18T09:55:27Z</time>
      </trkpt>
      <trkpt lat="42.41223" lon="0.07343">
        <ele>777.36</ele>
        <time>2014-05-18T09:55:28Z</time>
      </trkpt>
      <trkpt lat="42.41215" lon="0.07338">
        <ele>777.84</ele>
        <time>2014-05-18T09:55:36Z</time>
      </trkpt>
      <trkpt lat="42.41209" lon="0.07333">
        <ele>779.77</ele>
        <time>2014-05-18T09:55:44Z</time>
      </trkpt>
      <trkpt lat="42.41203" lon="0.07335">
        <ele>781.21</ele>
        <time>2014-05-18T09:55:52Z</time>
      </trkpt>
      <trkpt lat="42.41197" lon="0.0734">
        <ele>781.69</ele>
        <time>2014-05-18T09:56:01Z</time>
      </trkpt>
      <trkpt lat="42.41192" lon="0.07343">
        <ele>783.61</ele>
        <time>2014-05-18T09:56:09Z</time>
      </trkpt>
      <trkpt lat="42.41186" lon="0.07341">
        <ele>783.61</ele>
        <time>2014-05-18T09:56:16Z</time>
      </trkpt>
      <trkpt lat="42.41181" lon="0.07331">
        <ele>786.02</ele>
        <time>2014-05-18T09:56:27Z</time>
      </trkpt>
      <trkpt lat="42.41179" lon="0.07324">
        <ele>787.46</ele>
        <time>2014-05-18T09:56:35Z</time>
      </trkpt>
      <trkpt lat="42.41175" lon="0.07316">
        <ele>788.9</ele>
        <time>2014-05-18T09:56:44Z</time>
      </trkpt>
      <trkpt lat="42.4117" lon="0.07308">
        <ele>789.86</ele>
        <time>2014-05-18T09:56:53Z</time>
      </trkpt>
      <trkpt lat="42.41167" lon="0.07305">
        <ele>789.86</ele>
        <time>2014-05-18T09:56:57Z</time>
      </trkpt>
      <trkpt lat="42.41164" lon="0.07293">
        <ele>791.78</ele>
        <time>2014-05-18T09:57:08Z</time>
      </trkpt>
      <trkpt lat="42.41163" lon="0.07291">
        <ele>791.78</ele>
        <time>2014-05-18T09:57:10Z</time>
      </trkpt>
      <trkpt lat="42.41158" lon="0.07285">
        <ele>793.71</ele>
        <time>2014-05-18T09:57:18Z</time>
      </trkpt>
      <trkpt lat="42.41154" lon="0.07274">
        <ele>794.67</ele>
        <time>2014-05-18T09:57:30Z</time>
      </trkpt>
      <trkpt lat="42.41151" lon="0.07266">
        <ele>795.63</ele>
        <time>2014-05-18T09:57:38Z</time>
      </trkpt>
      <trkpt lat="42.41148" lon="0.07255">
        <ele>798.99</ele>
        <time>2014-05-18T09:57:50Z</time>
      </trkpt>
      <trkpt lat="42.41142" lon="0.07244">
        <ele>800.44</ele>
        <time>2014-05-18T09:58:03Z</time>
      </trkpt>
      <trkpt lat="42.41136" lon="0.07234">
        <ele>802.36</ele>
        <time>2014-05-18T09:58:15Z</time>
      </trkpt>
      <trkpt lat="42.41129" lon="0.07226">
        <ele>803.32</ele>
        <time>2014-05-18T09:58:26Z</time>
      </trkpt>
      <trkpt lat="42.41123" lon="0.07214">
        <ele>805.72</ele>
        <time>2014-05-18T09:58:39Z</time>
      </trkpt>
      <trkpt lat="42.41117" lon="0.07206">
        <ele>807.64</ele>
        <time>2014-05-18T09:58:51Z</time>
      </trkpt>
      <trkpt lat="42.41111" lon="0.07198">
        <ele>809.57</ele>
        <time>2014-05-18T09:59:03Z</time>
      </trkpt>
      <trkpt lat="42.41106" lon="0.07189">
        <ele>811.49</ele>
        <time>2014-05-18T09:59:15Z</time>
      </trkpt>
      <trkpt lat="42.41105" lon="0.07186">
        <ele>812.45</ele>
        <time>2014-05-18T09:59:23Z</time>
      </trkpt>
      <trkpt lat="42.411" lon="0.07176">
        <ele>813.89</ele>
        <time>2014-05-18T09:59:34Z</time>
      </trkpt>
      <trkpt lat="42.41095" lon="0.07167">
        <ele>815.34</ele>
        <time>2014-05-18T09:59:44Z</time>
      </trkpt>
      <trkpt lat="42.41088" lon="0.07154">
        <ele>817.26</ele>
        <time>2014-05-18T09:59:57Z</time>
      </trkpt>
      <trkpt lat="42.41083" lon="0.07146">
        <ele>818.7</ele>
        <time>2014-05-18T10:00:07Z</time>
      </trkpt>
      <trkpt lat="42.41081" lon="0.07141">
        <ele>819.18</ele>
        <time>2014-05-18T10:00:14Z</time>
      </trkpt>
      <trkpt lat="42.41082" lon="0.07133">
        <ele>820.62</ele>
        <time>2014-05-18T10:00:21Z</time>
      </trkpt>
      <trkpt lat="42.41087" lon="0.07124">
        <ele>821.58</ele>
        <time>2014-05-18T10:00:31Z</time>
      </trkpt>
      <trkpt lat="42.4109" lon="0.07117">
        <ele>823.03</ele>
        <time>2014-05-18T10:00:40Z</time>
      </trkpt>
      <trkpt lat="42.41092" lon="0.07112">
        <ele>824.47</ele>
        <time>2014-05-18T10:00:47Z</time>
      </trkpt>
      <trkpt lat="42.41092" lon="0.07111">
        <ele>823.99</ele>
        <time>2014-05-18T10:00:48Z</time>
      </trkpt>
      <trkpt lat="42.41089" lon="0.071">
        <ele>824.95</ele>
        <time>2014-05-18T10:00:56Z</time>
      </trkpt>
      <trkpt lat="42.41083" lon="0.0709">
        <ele>826.87</ele>
        <time>2014-05-18T10:01:05Z</time>
      </trkpt>
      <trkpt lat="42.41081" lon="0.07087">
        <ele>826.39</ele>
        <time>2014-05-18T10:01:11Z</time>
      </trkpt>
      <trkpt lat="42.41066" lon="0.07072">
        <ele>827.83</ele>
        <time>2014-05-18T10:01:24Z</time>
      </trkpt>
      <trkpt lat="42.41054" lon="0.07058">
        <ele>828.31</ele>
        <time>2014-05-18T10:01:33Z</time>
      </trkpt>
      <trkpt lat="42.41037" lon="0.07041">
        <ele>828.79</ele>
        <time>2014-05-18T10:01:42Z</time>
      </trkpt>
      <trkpt lat="42.41023" lon="0.07032">
        <ele>829.27</ele>
        <time>2014-05-18T10:01:48Z</time>
      </trkpt>
      <trkpt lat="42.41009" lon="0.07021">
        <ele>829.27</ele>
        <time>2014-05-18T10:01:54Z</time>
      </trkpt>
      <trkpt lat="42.41003" lon="0.07014">
        <ele>829.76</ele>
        <time>2014-05-18T10:01:58Z</time>
      </trkpt>
      <trkpt lat="42.40995" lon="0.07006">
        <ele>828.79</ele>
        <time>2014-05-18T10:02:02Z</time>
      </trkpt>
      <trkpt lat="42.40985" lon="0.07">
        <ele>830.72</ele>
        <time>2014-05-18T10:02:06Z</time>
      </trkpt>
      <trkpt lat="42.40978" lon="0.06987">
        <ele>830.72</ele>
        <time>2014-05-18T10:02:12Z</time>
      </trkpt>
      <trkpt lat="42.40976" lon="0.06976">
        <ele>831.2</ele>
        <time>2014-05-18T10:02:16Z</time>
      </trkpt>
      <trkpt lat="42.4097" lon="0.06962">
        <ele>832.16</ele>
        <time>2014-05-18T10:02:24Z</time>
      </trkpt>
      <trkpt lat="42.40967" lon="0.06954">
        <ele>833.12</ele>
        <time>2014-05-18T10:02:28Z</time>
      </trkpt>
      <trkpt lat="42.40962" lon="0.06941">
        <ele>832.64</ele>
        <time>2014-05-18T10:02:33Z</time>
      </trkpt>
      <trkpt lat="42.40941" lon="0.06918">
        <ele>830.24</ele>
        <time>2014-05-18T10:02:40Z</time>
      </trkpt>
      <trkpt lat="42.40926" lon="0.06909">
        <ele>832.16</ele>
        <time>2014-05-18T10:02:45Z</time>
      </trkpt>
      <trkpt lat="42.40923" lon="0.0691">
        <ele>832.16</ele>
        <time>2014-05-18T10:02:47Z</time>
      </trkpt>
      <trkpt lat="42.40916" lon="0.06906">
        <ele>831.68</ele>
        <time>2014-05-18T10:02:51Z</time>
      </trkpt>
      <trkpt lat="42.40912" lon="0.06901">
        <ele>830.72</ele>
        <time>2014-05-18T10:02:53Z</time>
      </trkpt>
      <trkpt lat="42.40895" lon="0.06881">
        <ele>831.2</ele>
        <time>2014-05-18T10:02:59Z</time>
      </trkpt>
      <trkpt lat="42.40876" lon="0.06872">
        <ele>831.68</ele>
        <time>2014-05-18T10:03:05Z</time>
      </trkpt>
      <trkpt lat="42.40865" lon="0.06854">
        <ele>832.16</ele>
        <time>2014-05-18T10:03:11Z</time>
      </trkpt>
      <trkpt lat="42.40853" lon="0.06835">
        <ele>832.64</ele>
        <time>2014-05-18T10:03:17Z</time>
      </trkpt>
      <trkpt lat="42.4084" lon="0.06826">
        <ele>834.56</ele>
        <time>2014-05-18T10:03:25Z</time>
      </trkpt>
      <trkpt lat="42.40825" lon="0.0682">
        <ele>833.6</ele>
        <time>2014-05-18T10:03:32Z</time>
      </trkpt>
      <trkpt lat="42.40807" lon="0.06815">
        <ele>831.68</ele>
        <time>2014-05-18T10:03:36Z</time>
      </trkpt>
      <trkpt lat="42.40794" lon="0.06795">
        <ele>831.68</ele>
        <time>2014-05-18T10:03:42Z</time>
      </trkpt>
      <trkpt lat="42.40783" lon="0.0677">
        <ele>830.72</ele>
        <time>2014-05-18T10:03:47Z</time>
      </trkpt>
      <trkpt lat="42.4078" lon="0.06763">
        <ele>832.16</ele>
        <time>2014-05-18T10:03:52Z</time>
      </trkpt>
      <trkpt lat="42.40774" lon="0.06744">
        <ele>833.6</ele>
        <time>2014-05-18T10:04:01Z</time>
      </trkpt>
      <trkpt lat="42.40775" lon="0.06725">
        <ele>834.56</ele>
        <time>2014-05-18T10:04:08Z</time>
      </trkpt>
      <trkpt lat="42.40775" lon="0.06724">
        <ele>834.56</ele>
        <time>2014-05-18T10:04:09Z</time>
      </trkpt>
      <trkpt lat="42.40774" lon="0.06721">
        <ele>835.04</ele>
        <time>2014-05-18T10:04:11Z</time>
      </trkpt>
      <trkpt lat="42.40775" lon="0.06715">
        <ele>836.48</ele>
        <time>2014-05-18T10:04:14Z</time>
      </trkpt>
      <trkpt lat="42.40779" lon="0.06699">
        <ele>836.48</ele>
        <time>2014-05-18T10:04:21Z</time>
      </trkpt>
      <trkpt lat="42.4078" lon="0.06694">
        <ele>836.96</ele>
        <time>2014-05-18T10:04:23Z</time>
      </trkpt>
      <trkpt lat="42.40779" lon="0.06678">
        <ele>837.45</ele>
        <time>2014-05-18T10:04:29Z</time>
      </trkpt>
      <trkpt lat="42.40779" lon="0.06668">
        <ele>838.41</ele>
        <time>2014-05-18T10:04:36Z</time>
      </trkpt>
      <trkpt lat="42.40778" lon="0.06667">
        <ele>838.41</ele>
        <time>2014-05-18T10:04:38Z</time>
      </trkpt>
      <trkpt lat="42.40779" lon="0.06662">
        <ele>838.89</ele>
        <time>2014-05-18T10:04:42Z</time>
      </trkpt>
      <trkpt lat="42.40777" lon="0.06648">
        <ele>838.89</ele>
        <time>2014-05-18T10:04:48Z</time>
      </trkpt>
      <trkpt lat="42.40775" lon="0.06641">
        <ele>837.93</ele>
        <time>2014-05-18T10:04:50Z</time>
      </trkpt>
      <trkpt lat="42.4077" lon="0.06625">
        <ele>838.89</ele>
        <time>2014-05-18T10:04:55Z</time>
      </trkpt>
      <trkpt lat="42.40765" lon="0.0661">
        <ele>837.93</ele>
        <time>2014-05-18T10:05:00Z</time>
      </trkpt>
      <trkpt lat="42.40771" lon="0.06596">
        <ele>838.41</ele>
        <time>2014-05-18T10:05:06Z</time>
      </trkpt>
      <trkpt lat="42.40777" lon="0.06582">
        <ele>839.37</ele>
        <time>2014-05-18T10:05:12Z</time>
      </trkpt>
      <trkpt lat="42.40781" lon="0.06576">
        <ele>840.81</ele>
        <time>2014-05-18T10:05:15Z</time>
      </trkpt>
      <trkpt lat="42.40786" lon="0.0657">
        <ele>841.29</ele>
        <time>2014-05-18T10:05:19Z</time>
      </trkpt>
      <trkpt lat="42.40792" lon="0.06563">
        <ele>842.25</ele>
        <time>2014-05-18T10:05:24Z</time>
      </trkpt>
      <trkpt lat="42.40797" lon="0.06553">
        <ele>842.25</ele>
        <time>2014-05-18T10:05:29Z</time>
      </trkpt>
      <trkpt lat="42.40801" lon="0.06548">
        <ele>842.25</ele>
        <time>2014-05-18T10:05:32Z</time>
      </trkpt>
      <trkpt lat="42.40804" lon="0.06532">
        <ele>843.21</ele>
        <time>2014-05-18T10:05:38Z</time>
      </trkpt>
      <trkpt lat="42.40809" lon="0.0652">
        <ele>842.73</ele>
        <time>2014-05-18T10:05:42Z</time>
      </trkpt>
      <trkpt lat="42.40813" lon="0.06502">
        <ele>843.69</ele>
        <time>2014-05-18T10:05:47Z</time>
      </trkpt>
      <trkpt lat="42.4081" lon="0.06494">
        <ele>843.21</ele>
        <time>2014-05-18T10:05:50Z</time>
      </trkpt>
      <trkpt lat="42.40807" lon="0.06483">
        <ele>844.66</ele>
        <time>2014-05-18T10:05:54Z</time>
      </trkpt>
      <trkpt lat="42.40798" lon="0.06465">
        <ele>844.66</ele>
        <time>2014-05-18T10:06:00Z</time>
      </trkpt>
      <trkpt lat="42.4079" lon="0.06455">
        <ele>844.66</ele>
        <time>2014-05-18T10:06:04Z</time>
      </trkpt>
      <trkpt lat="42.40785" lon="0.06443">
        <ele>844.18</ele>
        <time>2014-05-18T10:06:08Z</time>
      </trkpt>
      <trkpt lat="42.40779" lon="0.06425">
        <ele>843.69</ele>
        <time>2014-05-18T10:06:13Z</time>
      </trkpt>
      <trkpt lat="42.40781" lon="0.06402">
        <ele>844.18</ele>
        <time>2014-05-18T10:06:18Z</time>
      </trkpt>
      <trkpt lat="42.40781" lon="0.06398">
        <ele>844.66</ele>
        <time>2014-05-18T10:06:19Z</time>
      </trkpt>
      <trkpt lat="42.40783" lon="0.06391">
        <ele>844.18</ele>
        <time>2014-05-18T10:06:21Z</time>
      </trkpt>
      <trkpt lat="42.40782" lon="0.06359">
        <ele>845.62</ele>
        <time>2014-05-18T10:06:30Z</time>
      </trkpt>
      <trkpt lat="42.40779" lon="0.06338">
        <ele>846.1</ele>
        <time>2014-05-18T10:06:36Z</time>
      </trkpt>
      <trkpt lat="42.40777" lon="0.06328">
        <ele>846.1</ele>
        <time>2014-05-18T10:06:42Z</time>
      </trkpt>
      <trkpt lat="42.40776" lon="0.06323">
        <ele>846.58</ele>
        <time>2014-05-18T10:07:07Z</time>
      </trkpt>
      <trkpt lat="42.40775" lon="0.0632">
        <ele>846.58</ele>
        <time>2014-05-18T10:07:18Z</time>
      </trkpt>
      <trkpt lat="42.40775" lon="0.06317">
        <ele>846.58</ele>
        <time>2014-05-18T10:07:27Z</time>
      </trkpt>
      <trkpt lat="42.40775" lon="0.06316">
        <ele>846.1</ele>
        <time>2014-05-18T10:07:48Z</time>
      </trkpt>
      <trkpt lat="42.40774" lon="0.06314">
        <ele>845.14</ele>
        <time>2014-05-18T10:10:00Z</time>
      </trkpt>
      <trkpt lat="42.40773" lon="0.06312">
        <ele>844.66</ele>
        <time>2014-05-18T10:19:00Z</time>
      </trkpt>
      <trkpt lat="42.40773" lon="0.06311">
        <ele>843.69</ele>
        <time>2014-05-18T10:22:25Z</time>
      </trkpt>
      <trkpt lat="42.40772" lon="0.06306">
        <ele>844.18</ele>
        <time>2014-05-18T10:22:53Z</time>
      </trkpt>
      <trkpt lat="42.40771" lon="0.06304">
        <ele>844.18</ele>
        <time>2014-05-18T10:23:17Z</time>
      </trkpt>
      <trkpt lat="42.4077" lon="0.06302">
        <ele>843.21</ele>
        <time>2014-05-18T10:23:39Z</time>
      </trkpt>
      <trkpt lat="42.4077" lon="0.06302">
        <ele>843.21</ele>
        <time>2014-05-18T10:24:01Z</time>
      </trkpt>
      <trkpt lat="42.40761" lon="0.06282">
        <ele>840.33</ele>
        <time>2014-05-18T10:24:05Z</time>
      </trkpt>
      <trkpt lat="42.40755" lon="0.06272">
        <ele>839.85</ele>
        <time>2014-05-18T10:24:06Z</time>
      </trkpt>
      <trkpt lat="42.40741" lon="0.06241">
        <ele>836.96</ele>
        <time>2014-05-18T10:24:10Z</time>
      </trkpt>
      <trkpt lat="42.40731" lon="0.06218">
        <ele>835.04</ele>
        <time>2014-05-18T10:24:13Z</time>
      </trkpt>
      <trkpt lat="42.40725" lon="0.06203">
        <ele>831.68</ele>
        <time>2014-05-18T10:24:16Z</time>
      </trkpt>
      <trkpt lat="42.40716" lon="0.06197">
        <ele>830.24</ele>
        <time>2014-05-18T10:24:18Z</time>
      </trkpt>
      <trkpt lat="42.40706" lon="0.06193">
        <ele>828.79</ele>
        <time>2014-05-18T10:24:20Z</time>
      </trkpt>
      <trkpt lat="42.40687" lon="0.06182">
        <ele>826.87</ele>
        <time>2014-05-18T10:24:25Z</time>
      </trkpt>
      <trkpt lat="42.40687" lon="0.06162">
        <ele>821.58</ele>
        <time>2014-05-18T10:24:28Z</time>
      </trkpt>
      <trkpt lat="42.40685" lon="0.06135">
        <ele>820.14</ele>
        <time>2014-05-18T10:24:32Z</time>
      </trkpt>
      <trkpt lat="42.40682" lon="0.06123">
        <ele>820.62</ele>
        <time>2014-05-18T10:24:35Z</time>
      </trkpt>
      <trkpt lat="42.40682" lon="0.06125">
        <ele>820.14</ele>
        <time>2014-05-18T10:24:45Z</time>
      </trkpt>
      <trkpt lat="42.40682" lon="0.06124">
        <ele>821.1</ele>
        <time>2014-05-18T10:24:48Z</time>
      </trkpt>
      <trkpt lat="42.40689" lon="0.06112">
        <ele>821.1</ele>
        <time>2014-05-18T10:24:53Z</time>
      </trkpt>
      <trkpt lat="42.407" lon="0.06094">
        <ele>818.22</ele>
        <time>2014-05-18T10:24:56Z</time>
      </trkpt>
      <trkpt lat="42.40714" lon="0.0607">
        <ele>814.85</ele>
        <time>2014-05-18T10:24:59Z</time>
      </trkpt>
      <trkpt lat="42.40718" lon="0.06036">
        <ele>813.41</ele>
        <time>2014-05-18T10:25:03Z</time>
      </trkpt>
      <trkpt lat="42.40713" lon="0.06021">
        <ele>812.45</ele>
        <time>2014-05-18T10:25:05Z</time>
      </trkpt>
      <trkpt lat="42.4071" lon="0.06008">
        <ele>811.01</ele>
        <time>2014-05-18T10:25:08Z</time>
      </trkpt>
      <trkpt lat="42.40707" lon="0.05998">
        <ele>811.01</ele>
        <time>2014-05-18T10:25:10Z</time>
      </trkpt>
      <trkpt lat="42.40701" lon="0.05985">
        <ele>808.13</ele>
        <time>2014-05-18T10:25:12Z</time>
      </trkpt>
      <trkpt lat="42.40684" lon="0.05965">
        <ele>807.64</ele>
        <time>2014-05-18T10:25:16Z</time>
      </trkpt>
      <trkpt lat="42.40676" lon="0.05943">
        <ele>806.68</ele>
        <time>2014-05-18T10:25:20Z</time>
      </trkpt>
      <trkpt lat="42.40668" lon="0.05933">
        <ele>803.8</ele>
        <time>2014-05-18T10:25:22Z</time>
      </trkpt>
      <trkpt lat="42.40653" lon="0.05914">
        <ele>802.36</ele>
        <time>2014-05-18T10:25:26Z</time>
      </trkpt>
      <trkpt lat="42.40648" lon="0.05886">
        <ele>800.44</ele>
        <time>2014-05-18T10:25:32Z</time>
      </trkpt>
      <trkpt lat="42.40649" lon="0.05885">
        <ele>799.95</ele>
        <time>2014-05-18T10:25:33Z</time>
      </trkpt>
      <trkpt lat="42.40654" lon="0.05882">
        <ele>798.51</ele>
        <time>2014-05-18T10:25:36Z</time>
      </trkpt>
      <trkpt lat="42.40674" lon="0.05878">
        <ele>796.59</ele>
        <time>2014-05-18T10:25:41Z</time>
      </trkpt>
      <trkpt lat="42.40685" lon="0.05878">
        <ele>795.63</ele>
        <time>2014-05-18T10:25:43Z</time>
      </trkpt>
      <trkpt lat="42.40691" lon="0.05877">
        <ele>795.63</ele>
        <time>2014-05-18T10:25:44Z</time>
      </trkpt>
      <trkpt lat="42.40716" lon="0.05886">
        <ele>792.74</ele>
        <time>2014-05-18T10:25:49Z</time>
      </trkpt>
      <trkpt lat="42.40722" lon="0.0589">
        <ele>792.74</ele>
        <time>2014-05-18T10:25:50Z</time>
      </trkpt>
      <trkpt lat="42.40737" lon="0.05902">
        <ele>790.82</ele>
        <time>2014-05-18T10:25:53Z</time>
      </trkpt>
      <trkpt lat="42.40741" lon="0.05906">
        <ele>789.86</ele>
        <time>2014-05-18T10:25:54Z</time>
      </trkpt>
      <trkpt lat="42.40757" lon="0.05922">
        <ele>787.46</ele>
        <time>2014-05-18T10:25:59Z</time>
      </trkpt>
      <trkpt lat="42.40767" lon="0.05936">
        <ele>786.02</ele>
        <time>2014-05-18T10:26:02Z</time>
      </trkpt>
      <trkpt lat="42.4079" lon="0.05947">
        <ele>788.42</ele>
        <time>2014-05-18T10:26:07Z</time>
      </trkpt>
      <trkpt lat="42.408" lon="0.05953">
        <ele>790.34</ele>
        <time>2014-05-18T10:26:13Z</time>
      </trkpt>
      <trkpt lat="42.40808" lon="0.0596">
        <ele>791.78</ele>
        <time>2014-05-18T10:26:19Z</time>
      </trkpt>
      <trkpt lat="42.40814" lon="0.05963">
        <ele>793.71</ele>
        <time>2014-05-18T10:26:25Z</time>
      </trkpt>
      <trkpt lat="42.40826" lon="0.05961">
        <ele>795.15</ele>
        <time>2014-05-18T10:26:31Z</time>
      </trkpt>
      <trkpt lat="42.40832" lon="0.05968">
        <ele>796.59</ele>
        <time>2014-05-18T10:26:37Z</time>
      </trkpt>
      <trkpt lat="42.4084" lon="0.05973">
        <ele>798.99</ele>
        <time>2014-05-18T10:26:45Z</time>
      </trkpt>
      <trkpt lat="42.4084" lon="0.05974">
        <ele>799.47</ele>
        <time>2014-05-18T10:26:54Z</time>
      </trkpt>
      <trkpt lat="42.40841" lon="0.05974">
        <ele>799.95</ele>
        <time>2014-05-18T10:26:56Z</time>
      </trkpt>
      <trkpt lat="42.40855" lon="0.05977">
        <ele>800.92</ele>
        <time>2014-05-18T10:27:03Z</time>
      </trkpt>
      <trkpt lat="42.40866" lon="0.05982">
        <ele>802.36</ele>
        <time>2014-05-18T10:27:09Z</time>
      </trkpt>
      <trkpt lat="42.40868" lon="0.05981">
        <ele>802.36</ele>
        <time>2014-05-18T10:27:10Z</time>
      </trkpt>
      <trkpt lat="42.40879" lon="0.05988">
        <ele>803.32</ele>
        <time>2014-05-18T10:27:15Z</time>
      </trkpt>
      <trkpt lat="42.40892" lon="0.05998">
        <ele>800.44</ele>
        <time>2014-05-18T10:27:20Z</time>
      </trkpt>
      <trkpt lat="42.40894" lon="0.06002">
        <ele>799.95</ele>
        <time>2014-05-18T10:27:21Z</time>
      </trkpt>
      <trkpt lat="42.40906" lon="0.06012">
        <ele>801.88</ele>
        <time>2014-05-18T10:27:26Z</time>
      </trkpt>
      <trkpt lat="42.40912" lon="0.0602">
        <ele>801.4</ele>
        <time>2014-05-18T10:27:29Z</time>
      </trkpt>
      <trkpt lat="42.40917" lon="0.06025">
        <ele>802.84</ele>
        <time>2014-05-18T10:27:32Z</time>
      </trkpt>
      <trkpt lat="42.40918" lon="0.06025">
        <ele>803.32</ele>
        <time>2014-05-18T10:27:33Z</time>
      </trkpt>
      <trkpt lat="42.40927" lon="0.06028">
        <ele>803.32</ele>
        <time>2014-05-18T10:27:38Z</time>
      </trkpt>
      <trkpt lat="42.40935" lon="0.06031">
        <ele>803.8</ele>
        <time>2014-05-18T10:27:41Z</time>
      </trkpt>
      <trkpt lat="42.40954" lon="0.06037">
        <ele>803.8</ele>
        <time>2014-05-18T10:27:48Z</time>
      </trkpt>
      <trkpt lat="42.40967" lon="0.06049">
        <ele>800.92</ele>
        <time>2014-05-18T10:27:52Z</time>
      </trkpt>
      <trkpt lat="42.40978" lon="0.06057">
        <ele>802.36</ele>
        <time>2014-05-18T10:27:56Z</time>
      </trkpt>
      <trkpt lat="42.40978" lon="0.06055">
        <ele>802.84</ele>
        <time>2014-05-18T10:27:58Z</time>
      </trkpt>
      <trkpt lat="42.40981" lon="0.06055">
        <ele>803.8</ele>
        <time>2014-05-18T10:28:02Z</time>
      </trkpt>
      <trkpt lat="42.40985" lon="0.06052">
        <ele>804.28</ele>
        <time>2014-05-18T10:28:07Z</time>
      </trkpt>
      <trkpt lat="42.41003" lon="0.06048">
        <ele>802.84</ele>
        <time>2014-05-18T10:28:13Z</time>
      </trkpt>
      <trkpt lat="42.41011" lon="0.06047">
        <ele>803.8</ele>
        <time>2014-05-18T10:28:15Z</time>
      </trkpt>
      <trkpt lat="42.41019" lon="0.06051">
        <ele>804.76</ele>
        <time>2014-05-18T10:28:17Z</time>
      </trkpt>
      <trkpt lat="42.41025" lon="0.06055">
        <ele>805.72</ele>
        <time>2014-05-18T10:28:19Z</time>
      </trkpt>
      <trkpt lat="42.41032" lon="0.06057">
        <ele>804.76</ele>
        <time>2014-05-18T10:28:21Z</time>
      </trkpt>
      <trkpt lat="42.41055" lon="0.06055">
        <ele>801.4</ele>
        <time>2014-05-18T10:28:26Z</time>
      </trkpt>
      <trkpt lat="42.41058" lon="0.06056">
        <ele>799.47</ele>
        <time>2014-05-18T10:28:27Z</time>
      </trkpt>
      <trkpt lat="42.41066" lon="0.06068">
        <ele>799.95</ele>
        <time>2014-05-18T10:28:33Z</time>
      </trkpt>
      <trkpt lat="42.4107" lon="0.0607">
        <ele>800.44</ele>
        <time>2014-05-18T10:28:37Z</time>
      </trkpt>
      <trkpt lat="42.41082" lon="0.06076">
        <ele>801.4</ele>
        <time>2014-05-18T10:28:43Z</time>
      </trkpt>
      <trkpt lat="42.41091" lon="0.06078">
        <ele>803.32</ele>
        <time>2014-05-18T10:28:48Z</time>
      </trkpt>
      <trkpt lat="42.41101" lon="0.06081">
        <ele>803.8</ele>
        <time>2014-05-18T10:28:55Z</time>
      </trkpt>
      <trkpt lat="42.41111" lon="0.06083">
        <ele>804.28</ele>
        <time>2014-05-18T10:28:59Z</time>
      </trkpt>
      <trkpt lat="42.41121" lon="0.06091">
        <ele>806.2</ele>
        <time>2014-05-18T10:29:05Z</time>
      </trkpt>
      <trkpt lat="42.4113" lon="0.06095">
        <ele>806.68</ele>
        <time>2014-05-18T10:29:10Z</time>
      </trkpt>
      <trkpt lat="42.41133" lon="0.06095">
        <ele>807.16</ele>
        <time>2014-05-18T10:29:11Z</time>
      </trkpt>
      <trkpt lat="42.41146" lon="0.06102">
        <ele>808.13</ele>
        <time>2014-05-18T10:29:17Z</time>
      </trkpt>
      <trkpt lat="42.41153" lon="0.0611">
        <ele>807.16</ele>
        <time>2014-05-18T10:29:20Z</time>
      </trkpt>
      <trkpt lat="42.41153" lon="0.06117">
        <ele>808.61</ele>
        <time>2014-05-18T10:29:22Z</time>
      </trkpt>
      <trkpt lat="42.41161" lon="0.06137">
        <ele>808.61</ele>
        <time>2014-05-18T10:29:28Z</time>
      </trkpt>
      <trkpt lat="42.41165" lon="0.06153">
        <ele>809.09</ele>
        <time>2014-05-18T10:29:32Z</time>
      </trkpt>
      <trkpt lat="42.41169" lon="0.06173">
        <ele>808.61</ele>
        <time>2014-05-18T10:29:39Z</time>
      </trkpt>
      <trkpt lat="42.41176" lon="0.06184">
        <ele>806.68</ele>
        <time>2014-05-18T10:29:41Z</time>
      </trkpt>
      <trkpt lat="42.41181" lon="0.06203">
        <ele>809.57</ele>
        <time>2014-05-18T10:29:44Z</time>
      </trkpt>
      <trkpt lat="42.41184" lon="0.06212">
        <ele>809.09</ele>
        <time>2014-05-18T10:29:47Z</time>
      </trkpt>
      <trkpt lat="42.41196" lon="0.06216">
        <ele>806.2</ele>
        <time>2014-05-18T10:29:51Z</time>
      </trkpt>
      <trkpt lat="42.41209" lon="0.06215">
        <ele>804.28</ele>
        <time>2014-05-18T10:29:55Z</time>
      </trkpt>
      <trkpt lat="42.41231" lon="0.06217">
        <ele>804.76</ele>
        <time>2014-05-18T10:30:00Z</time>
      </trkpt>
      <trkpt lat="42.41255" lon="0.0622">
        <ele>805.24</ele>
        <time>2014-05-18T10:30:06Z</time>
      </trkpt>
      <trkpt lat="42.41262" lon="0.06214">
        <ele>806.2</ele>
        <time>2014-05-18T10:30:08Z</time>
      </trkpt>
      <trkpt lat="42.41279" lon="0.06213">
        <ele>804.76</ele>
        <time>2014-05-18T10:30:12Z</time>
      </trkpt>
      <trkpt lat="42.41289" lon="0.06222">
        <ele>803.32</ele>
        <time>2014-05-18T10:30:14Z</time>
      </trkpt>
      <trkpt lat="42.41313" lon="0.0625">
        <ele>803.32</ele>
        <time>2014-05-18T10:30:21Z</time>
      </trkpt>
      <trkpt lat="42.41319" lon="0.06258">
        <ele>802.36</ele>
        <time>2014-05-18T10:30:25Z</time>
      </trkpt>
      <trkpt lat="42.41322" lon="0.06259">
        <ele>802.84</ele>
        <time>2014-05-18T10:30:28Z</time>
      </trkpt>
      <trkpt lat="42.41331" lon="0.06268">
        <ele>800.44</ele>
        <time>2014-05-18T10:30:32Z</time>
      </trkpt>
      <trkpt lat="42.4134" lon="0.06268">
        <ele>799.95</ele>
        <time>2014-05-18T10:30:34Z</time>
      </trkpt>
      <trkpt lat="42.41359" lon="0.06275">
        <ele>798.51</ele>
        <time>2014-05-18T10:30:38Z</time>
      </trkpt>
      <trkpt lat="42.41373" lon="0.0629">
        <ele>796.59</ele>
        <time>2014-05-18T10:30:41Z</time>
      </trkpt>
      <trkpt lat="42.41382" lon="0.06302">
        <ele>795.15</ele>
        <time>2014-05-18T10:30:43Z</time>
      </trkpt>
      <trkpt lat="42.414" lon="0.06312">
        <ele>797.07</ele>
        <time>2014-05-18T10:30:47Z</time>
      </trkpt>
      <trkpt lat="42.41417" lon="0.06321">
        <ele>796.59</ele>
        <time>2014-05-18T10:30:51Z</time>
      </trkpt>
      <trkpt lat="42.41426" lon="0.06325">
        <ele>795.63</ele>
        <time>2014-05-18T10:30:53Z</time>
      </trkpt>
      <trkpt lat="42.41437" lon="0.06326">
        <ele>795.15</ele>
        <time>2014-05-18T10:30:55Z</time>
      </trkpt>
      <trkpt lat="42.41444" lon="0.06325">
        <ele>793.22</ele>
        <time>2014-05-18T10:30:56Z</time>
      </trkpt>
      <trkpt lat="42.41474" lon="0.06337">
        <ele>791.3</ele>
        <time>2014-05-18T10:31:00Z</time>
      </trkpt>
      <trkpt lat="42.41508" lon="0.06356">
        <ele>789.38</ele>
        <time>2014-05-18T10:31:05Z</time>
      </trkpt>
      <trkpt lat="42.41513" lon="0.06359">
        <ele>789.38</ele>
        <time>2014-05-18T10:31:06Z</time>
      </trkpt>
      <trkpt lat="42.41533" lon="0.06377">
        <ele>788.9</ele>
        <time>2014-05-18T10:31:11Z</time>
      </trkpt>
      <trkpt lat="42.41557" lon="0.06391">
        <ele>790.34</ele>
        <time>2014-05-18T10:31:16Z</time>
      </trkpt>
      <trkpt lat="42.41574" lon="0.064">
        <ele>793.22</ele>
        <time>2014-05-18T10:31:22Z</time>
      </trkpt>
      <trkpt lat="42.41576" lon="0.06401">
        <ele>793.71</ele>
        <time>2014-05-18T10:31:23Z</time>
      </trkpt>
      <trkpt lat="42.41595" lon="0.06408">
        <ele>795.63</ele>
        <time>2014-05-18T10:31:30Z</time>
      </trkpt>
      <trkpt lat="42.41607" lon="0.06416">
        <ele>798.03</ele>
        <time>2014-05-18T10:31:37Z</time>
      </trkpt>
      <trkpt lat="42.41612" lon="0.06419">
        <ele>798.51</ele>
        <time>2014-05-18T10:31:40Z</time>
      </trkpt>
      <trkpt lat="42.41627" lon="0.06419">
        <ele>800.92</ele>
        <time>2014-05-18T10:31:47Z</time>
      </trkpt>
      <trkpt lat="42.41639" lon="0.06421">
        <ele>801.88</ele>
        <time>2014-05-18T10:31:54Z</time>
      </trkpt>
      <trkpt lat="42.41646" lon="0.06427">
        <ele>802.84</ele>
        <time>2014-05-18T10:31:58Z</time>
      </trkpt>
      <trkpt lat="42.41653" lon="0.06421">
        <ele>803.32</ele>
        <time>2014-05-18T10:32:05Z</time>
      </trkpt>
      <trkpt lat="42.41656" lon="0.06421">
        <ele>803.8</ele>
        <time>2014-05-18T10:32:07Z</time>
      </trkpt>
      <trkpt lat="42.41672" lon="0.06426">
        <ele>805.72</ele>
        <time>2014-05-18T10:32:17Z</time>
      </trkpt>
      <trkpt lat="42.4168" lon="0.06425">
        <ele>807.16</ele>
        <time>2014-05-18T10:32:22Z</time>
      </trkpt>
      <trkpt lat="42.41687" lon="0.06429">
        <ele>807.64</ele>
        <time>2014-05-18T10:32:27Z</time>
      </trkpt>
      <trkpt lat="42.41703" lon="0.06432">
        <ele>809.09</ele>
        <time>2014-05-18T10:32:37Z</time>
      </trkpt>
      <trkpt lat="42.41715" lon="0.06433">
        <ele>810.53</ele>
        <time>2014-05-18T10:32:45Z</time>
      </trkpt>
      <trkpt lat="42.41725" lon="0.06436">
        <ele>811.49</ele>
        <time>2014-05-18T10:32:52Z</time>
      </trkpt>
      <trkpt lat="42.41729" lon="0.06432">
        <ele>813.89</ele>
        <time>2014-05-18T10:33:01Z</time>
      </trkpt>
      <trkpt lat="42.41733" lon="0.0643">
        <ele>812.93</ele>
        <time>2014-05-18T10:33:06Z</time>
      </trkpt>
      <trkpt lat="42.41744" lon="0.06426">
        <ele>810.05</ele>
        <time>2014-05-18T10:33:10Z</time>
      </trkpt>
      <trkpt lat="42.41753" lon="0.06422">
        <ele>807.64</ele>
        <time>2014-05-18T10:33:13Z</time>
      </trkpt>
      <trkpt lat="42.41765" lon="0.0641">
        <ele>806.2</ele>
        <time>2014-05-18T10:33:17Z</time>
      </trkpt>
      <trkpt lat="42.4177" lon="0.06409">
        <ele>805.72</ele>
        <time>2014-05-18T10:33:18Z</time>
      </trkpt>
      <trkpt lat="42.41778" lon="0.06408">
        <ele>804.28</ele>
        <time>2014-05-18T10:33:20Z</time>
      </trkpt>
      <trkpt lat="42.4179" lon="0.06419">
        <ele>802.36</ele>
        <time>2014-05-18T10:33:24Z</time>
      </trkpt>
      <trkpt lat="42.41803" lon="0.06419">
        <ele>800.92</ele>
        <time>2014-05-18T10:33:27Z</time>
      </trkpt>
      <trkpt lat="42.4181" lon="0.06423">
        <ele>799.95</ele>
        <time>2014-05-18T10:33:30Z</time>
      </trkpt>
      <trkpt lat="42.41814" lon="0.06429">
        <ele>797.55</ele>
        <time>2014-05-18T10:33:32Z</time>
      </trkpt>
      <trkpt lat="42.41824" lon="0.06436">
        <ele>795.15</ele>
        <time>2014-05-18T10:33:35Z</time>
      </trkpt>
      <trkpt lat="42.41844" lon="0.06441">
        <ele>792.26</ele>
        <time>2014-05-18T10:33:38Z</time>
      </trkpt>
      <trkpt lat="42.41881" lon="0.06464">
        <ele>787.46</ele>
        <time>2014-05-18T10:33:43Z</time>
      </trkpt>
      <trkpt lat="42.41886" lon="0.06468">
        <ele>789.38</ele>
        <time>2014-05-18T10:33:44Z</time>
      </trkpt>
      <trkpt lat="42.41897" lon="0.06469">
        <ele>789.86</ele>
        <time>2014-05-18T10:33:48Z</time>
      </trkpt>
      <trkpt lat="42.41906" lon="0.0647">
        <ele>790.82</ele>
        <time>2014-05-18T10:33:52Z</time>
      </trkpt>
      <trkpt lat="42.41921" lon="0.06469">
        <ele>793.22</ele>
        <time>2014-05-18T10:34:00Z</time>
      </trkpt>
      <trkpt lat="42.4193" lon="0.06468">
        <ele>795.63</ele>
        <time>2014-05-18T10:34:11Z</time>
      </trkpt>
      <trkpt lat="42.41948" lon="0.06471">
        <ele>795.63</ele>
        <time>2014-05-18T10:34:17Z</time>
      </trkpt>
      <trkpt lat="42.41949" lon="0.0647">
        <ele>796.11</ele>
        <time>2014-05-18T10:34:18Z</time>
      </trkpt>
      <trkpt lat="42.41956" lon="0.06466">
        <ele>795.63</ele>
        <time>2014-05-18T10:34:21Z</time>
      </trkpt>
      <trkpt lat="42.41972" lon="0.06472">
        <ele>796.11</ele>
        <time>2014-05-18T10:34:26Z</time>
      </trkpt>
      <trkpt lat="42.41988" lon="0.06477">
        <ele>798.03</ele>
        <time>2014-05-18T10:34:34Z</time>
      </trkpt>
      <trkpt lat="42.42004" lon="0.06486">
        <ele>798.99</ele>
        <time>2014-05-18T10:34:42Z</time>
      </trkpt>
      <trkpt lat="42.42017" lon="0.06493">
        <ele>798.51</ele>
        <time>2014-05-18T10:34:48Z</time>
      </trkpt>
      <trkpt lat="42.42029" lon="0.06501">
        <ele>798.99</ele>
        <time>2014-05-18T10:34:53Z</time>
      </trkpt>
      <trkpt lat="42.42033" lon="0.06503">
        <ele>798.99</ele>
        <time>2014-05-18T10:34:55Z</time>
      </trkpt>
      <trkpt lat="42.4205" lon="0.0652">
        <ele>795.63</ele>
        <time>2014-05-18T10:35:00Z</time>
      </trkpt>
      <trkpt lat="42.42062" lon="0.06522">
        <ele>793.71</ele>
        <time>2014-05-18T10:35:04Z</time>
      </trkpt>
      <trkpt lat="42.42068" lon="0.06525">
        <ele>792.26</ele>
        <time>2014-05-18T10:35:05Z</time>
      </trkpt>
      <trkpt lat="42.42093" lon="0.0654">
        <ele>792.26</ele>
        <time>2014-05-18T10:35:09Z</time>
      </trkpt>
      <trkpt lat="42.42107" lon="0.06553">
        <ele>792.26</ele>
        <time>2014-05-18T10:35:13Z</time>
      </trkpt>
      <trkpt lat="42.42116" lon="0.06561">
        <ele>792.26</ele>
        <time>2014-05-18T10:35:15Z</time>
      </trkpt>
      <trkpt lat="42.42136" lon="0.06569">
        <ele>790.34</ele>
        <time>2014-05-18T10:35:19Z</time>
      </trkpt>
      <trkpt lat="42.42157" lon="0.06576">
        <ele>791.78</ele>
        <time>2014-05-18T10:35:23Z</time>
      </trkpt>
      <trkpt lat="42.42172" lon="0.06582">
        <ele>792.74</ele>
        <time>2014-05-18T10:35:27Z</time>
      </trkpt>
      <trkpt lat="42.42186" lon="0.06582">
        <ele>791.78</ele>
        <time>2014-05-18T10:35:31Z</time>
      </trkpt>
      <trkpt lat="42.42208" lon="0.06579">
        <ele>790.82</ele>
        <time>2014-05-18T10:35:36Z</time>
      </trkpt>
      <trkpt lat="42.42226" lon="0.06593">
        <ele>789.86</ele>
        <time>2014-05-18T10:35:42Z</time>
      </trkpt>
      <trkpt lat="42.42236" lon="0.06593">
        <ele>791.3</ele>
        <time>2014-05-18T10:35:46Z</time>
      </trkpt>
      <trkpt lat="42.42249" lon="0.06592">
        <ele>791.3</ele>
        <time>2014-05-18T10:35:49Z</time>
      </trkpt>
      <trkpt lat="42.42265" lon="0.06598">
        <ele>790.34</ele>
        <time>2014-05-18T10:35:53Z</time>
      </trkpt>
      <trkpt lat="42.42277" lon="0.06602">
        <ele>790.82</ele>
        <time>2014-05-18T10:35:55Z</time>
      </trkpt>
      <trkpt lat="42.42293" lon="0.06609">
        <ele>790.34</ele>
        <time>2014-05-18T10:35:58Z</time>
      </trkpt>
      <trkpt lat="42.423" lon="0.06616">
        <ele>789.86</ele>
        <time>2014-05-18T10:36:00Z</time>
      </trkpt>
      <trkpt lat="42.42306" lon="0.06628">
        <ele>788.9</ele>
        <time>2014-05-18T10:36:02Z</time>
      </trkpt>
      <trkpt lat="42.42315" lon="0.06647">
        <ele>788.42</ele>
        <time>2014-05-18T10:36:05Z</time>
      </trkpt>
      <trkpt lat="42.42319" lon="0.0665">
        <ele>788.42</ele>
        <time>2014-05-18T10:36:06Z</time>
      </trkpt>
      <trkpt lat="42.4233" lon="0.06656">
        <ele>786.98</ele>
        <time>2014-05-18T10:36:09Z</time>
      </trkpt>
      <trkpt lat="42.4234" lon="0.0666">
        <ele>785.05</ele>
        <time>2014-05-18T10:36:11Z</time>
      </trkpt>
      <trkpt lat="42.42353" lon="0.06666">
        <ele>783.61</ele>
        <time>2014-05-18T10:36:13Z</time>
      </trkpt>
      <trkpt lat="42.42371" lon="0.06674">
        <ele>784.57</ele>
        <time>2014-05-18T10:36:16Z</time>
      </trkpt>
      <trkpt lat="42.4239" lon="0.06688">
        <ele>785.05</ele>
        <time>2014-05-18T10:36:20Z</time>
      </trkpt>
      <trkpt lat="42.42411" lon="0.06703">
        <ele>786.98</ele>
        <time>2014-05-18T10:36:24Z</time>
      </trkpt>
      <trkpt lat="42.42427" lon="0.06728">
        <ele>784.57</ele>
        <time>2014-05-18T10:36:29Z</time>
      </trkpt>
      <trkpt lat="42.42429" lon="0.06739">
        <ele>781.69</ele>
        <time>2014-05-18T10:36:32Z</time>
      </trkpt>
      <trkpt lat="42.42429" lon="0.06742">
        <ele>780.73</ele>
        <time>2014-05-18T10:36:33Z</time>
      </trkpt>
      <trkpt lat="42.42422" lon="0.06744">
        <ele>779.77</ele>
        <time>2014-05-18T10:36:36Z</time>
      </trkpt>
      <trkpt lat="42.42431" lon="0.06756">
        <ele>777.36</ele>
        <time>2014-05-18T10:36:39Z</time>
      </trkpt>
      <trkpt lat="42.42436" lon="0.06764">
        <ele>774.48</ele>
        <time>2014-05-18T10:36:43Z</time>
      </trkpt>
      <trkpt lat="42.42428" lon="0.06766">
        <ele>771.6</ele>
        <time>2014-05-18T10:36:46Z</time>
      </trkpt>
      <trkpt lat="42.42419" lon="0.06766">
        <ele>769.19</ele>
        <time>2014-05-18T10:36:49Z</time>
      </trkpt>
      <trkpt lat="42.42419" lon="0.06782">
        <ele>767.27</ele>
        <time>2014-05-18T10:36:52Z</time>
      </trkpt>
      <trkpt lat="42.42422" lon="0.06788">
        <ele>766.31</ele>
        <time>2014-05-18T10:36:54Z</time>
      </trkpt>
      <trkpt lat="42.42437" lon="0.068">
        <ele>761.5</ele>
        <time>2014-05-18T10:36:59Z</time>
      </trkpt>
      <trkpt lat="42.42437" lon="0.06802">
        <ele>760.54</ele>
        <time>2014-05-18T10:37:01Z</time>
      </trkpt>
      <trkpt lat="42.42446" lon="0.06806">
        <ele>758.14</ele>
        <time>2014-05-18T10:37:05Z</time>
      </trkpt>
      <trkpt lat="42.42462" lon="0.06806">
        <ele>754.29</ele>
        <time>2014-05-18T10:37:08Z</time>
      </trkpt>
      <trkpt lat="42.42477" lon="0.06817">
        <ele>751.89</ele>
        <time>2014-05-18T10:37:12Z</time>
      </trkpt>
      <trkpt lat="42.42473" lon="0.06823">
        <ele>749</ele>
        <time>2014-05-18T10:37:15Z</time>
      </trkpt>
      <trkpt lat="42.42464" lon="0.06832">
        <ele>746.6</ele>
        <time>2014-05-18T10:37:18Z</time>
      </trkpt>
      <trkpt lat="42.4247" lon="0.0684">
        <ele>743.24</ele>
        <time>2014-05-18T10:37:23Z</time>
      </trkpt>
      <trkpt lat="42.42474" lon="0.06844">
        <ele>740.83</ele>
        <time>2014-05-18T10:37:26Z</time>
      </trkpt>
      <trkpt lat="42.42476" lon="0.06847">
        <ele>738.43</ele>
        <time>2014-05-18T10:37:29Z</time>
      </trkpt>
      <trkpt lat="42.42482" lon="0.06852">
        <ele>737.95</ele>
        <time>2014-05-18T10:37:31Z</time>
      </trkpt>
      <trkpt lat="42.42496" lon="0.06867">
        <ele>735.07</ele>
        <time>2014-05-18T10:37:35Z</time>
      </trkpt>
      <trkpt lat="42.42497" lon="0.06874">
        <ele>731.7</ele>
        <time>2014-05-18T10:37:37Z</time>
      </trkpt>
      <trkpt lat="42.42493" lon="0.06886">
        <ele>730.74</ele>
        <time>2014-05-18T10:37:39Z</time>
      </trkpt>
      <trkpt lat="42.42492" lon="0.06898">
        <ele>729.3</ele>
        <time>2014-05-18T10:37:43Z</time>
      </trkpt>
      <trkpt lat="42.42503" lon="0.06888">
        <ele>726.89</ele>
        <time>2014-05-18T10:37:48Z</time>
      </trkpt>
      <trkpt lat="42.42516" lon="0.06882">
        <ele>724.49</ele>
        <time>2014-05-18T10:37:53Z</time>
      </trkpt>
      <trkpt lat="42.42523" lon="0.06876">
        <ele>721.61</ele>
        <time>2014-05-18T10:37:56Z</time>
      </trkpt>
      <trkpt lat="42.4253" lon="0.0687">
        <ele>718.24</ele>
        <time>2014-05-18T10:37:58Z</time>
      </trkpt>
      <trkpt lat="42.42544" lon="0.06856">
        <ele>714.4</ele>
        <time>2014-05-18T10:38:01Z</time>
      </trkpt>
      <trkpt lat="42.4255" lon="0.0685">
        <ele>713.44</ele>
        <time>2014-05-18T10:38:03Z</time>
      </trkpt>
      <trkpt lat="42.42565" lon="0.06836">
        <ele>711.03</ele>
        <time>2014-05-18T10:38:07Z</time>
      </trkpt>
      <trkpt lat="42.42569" lon="0.06826">
        <ele>707.67</ele>
        <time>2014-05-18T10:38:10Z</time>
      </trkpt>
      <trkpt lat="42.42576" lon="0.06822">
        <ele>707.67</ele>
        <time>2014-05-18T10:38:11Z</time>
      </trkpt>
      <trkpt lat="42.426" lon="0.0682">
        <ele>703.82</ele>
        <time>2014-05-18T10:38:16Z</time>
      </trkpt>
      <trkpt lat="42.4261" lon="0.06816">
        <ele>701.9</ele>
        <time>2014-05-18T10:38:19Z</time>
      </trkpt>
      <trkpt lat="42.42621" lon="0.06809">
        <ele>700.94</ele>
        <time>2014-05-18T10:38:21Z</time>
      </trkpt>
      <trkpt lat="42.42625" lon="0.06807">
        <ele>700.46</ele>
        <time>2014-05-18T10:38:22Z</time>
      </trkpt>
      <trkpt lat="42.42644" lon="0.06794">
        <ele>695.65</ele>
        <time>2014-05-18T10:38:26Z</time>
      </trkpt>
      <trkpt lat="42.42649" lon="0.0679">
        <ele>695.17</ele>
        <time>2014-05-18T10:38:27Z</time>
      </trkpt>
      <trkpt lat="42.42662" lon="0.06767">
        <ele>692.77</ele>
        <time>2014-05-18T10:38:32Z</time>
      </trkpt>
      <trkpt lat="42.42673" lon="0.06763">
        <ele>689.4</ele>
        <time>2014-05-18T10:38:35Z</time>
      </trkpt>
      <trkpt lat="42.42699" lon="0.06767">
        <ele>682.19</ele>
        <time>2014-05-18T10:38:40Z</time>
      </trkpt>
      <trkpt lat="42.42709" lon="0.06763">
        <ele>680.75</ele>
        <time>2014-05-18T10:38:42Z</time>
      </trkpt>
      <trkpt lat="42.42721" lon="0.0676">
        <ele>678.83</ele>
        <time>2014-05-18T10:38:46Z</time>
      </trkpt>
      <trkpt lat="42.4273" lon="0.0676">
        <ele>676.42</ele>
        <time>2014-05-18T10:38:50Z</time>
      </trkpt>
      <trkpt lat="42.42734" lon="0.06766">
        <ele>672.58</ele>
        <time>2014-05-18T10:38:52Z</time>
      </trkpt>
      <trkpt lat="42.42737" lon="0.06772">
        <ele>671.62</ele>
        <time>2014-05-18T10:38:54Z</time>
      </trkpt>
      <trkpt lat="42.42741" lon="0.06772">
        <ele>669.7</ele>
        <time>2014-05-18T10:38:58Z</time>
      </trkpt>
      <trkpt lat="42.42742" lon="0.06774">
        <ele>668.73</ele>
        <time>2014-05-18T10:38:59Z</time>
      </trkpt>
      <trkpt lat="42.42745" lon="0.06773">
        <ele>665.85</ele>
        <time>2014-05-18T10:39:02Z</time>
      </trkpt>
      <trkpt lat="42.42748" lon="0.06786">
        <ele>662.49</ele>
        <time>2014-05-18T10:39:07Z</time>
      </trkpt>
      <trkpt lat="42.42747" lon="0.06789">
        <ele>662.49</ele>
        <time>2014-05-18T10:39:08Z</time>
      </trkpt>
      <trkpt lat="42.4275" lon="0.06795">
        <ele>658.64</ele>
        <time>2014-05-18T10:39:11Z</time>
      </trkpt>
      <trkpt lat="42.42752" lon="0.06799">
        <ele>657.68</ele>
        <time>2014-05-18T10:39:12Z</time>
      </trkpt>
      <trkpt lat="42.42755" lon="0.06808">
        <ele>655.76</ele>
        <time>2014-05-18T10:39:14Z</time>
      </trkpt>
      <trkpt lat="42.42763" lon="0.06816">
        <ele>652.39</ele>
        <time>2014-05-18T10:39:18Z</time>
      </trkpt>
      <trkpt lat="42.4277" lon="0.06822">
        <ele>649.03</ele>
        <time>2014-05-18T10:39:21Z</time>
      </trkpt>
      <trkpt lat="42.42782" lon="0.06839">
        <ele>646.14</ele>
        <time>2014-05-18T10:39:24Z</time>
      </trkpt>
      <trkpt lat="42.42796" lon="0.06841">
        <ele>646.14</ele>
        <time>2014-05-18T10:39:27Z</time>
      </trkpt>
      <trkpt lat="42.42809" lon="0.06835">
        <ele>646.14</ele>
        <time>2014-05-18T10:39:31Z</time>
      </trkpt>
      <trkpt lat="42.42824" lon="0.06823">
        <ele>645.66</ele>
        <time>2014-05-18T10:39:35Z</time>
      </trkpt>
      <trkpt lat="42.42831" lon="0.06812">
        <ele>646.14</ele>
        <time>2014-05-18T10:39:38Z</time>
      </trkpt>
      <trkpt lat="42.42839" lon="0.06794">
        <ele>646.62</ele>
        <time>2014-05-18T10:39:42Z</time>
      </trkpt>
      <trkpt lat="42.42844" lon="0.06783">
        <ele>647.1</ele>
        <time>2014-05-18T10:39:45Z</time>
      </trkpt>
      <trkpt lat="42.42855" lon="0.06753">
        <ele>648.07</ele>
        <time>2014-05-18T10:39:52Z</time>
      </trkpt>
      <trkpt lat="42.4287" lon="0.06724">
        <ele>647.59</ele>
        <time>2014-05-18T10:39:56Z</time>
      </trkpt>
      <trkpt lat="42.42877" lon="0.06712">
        <ele>648.55</ele>
        <time>2014-05-18T10:39:58Z</time>
      </trkpt>
      <trkpt lat="42.42874" lon="0.06696">
        <ele>650.95</ele>
        <time>2014-05-18T10:40:03Z</time>
      </trkpt>
      <trkpt lat="42.42869" lon="0.06676">
        <ele>650.95</ele>
        <time>2014-05-18T10:40:09Z</time>
      </trkpt>
      <trkpt lat="42.42864" lon="0.0665">
        <ele>650.47</ele>
        <time>2014-05-18T10:40:15Z</time>
      </trkpt>
      <trkpt lat="42.42862" lon="0.06642">
        <ele>650.47</ele>
        <time>2014-05-18T10:40:21Z</time>
      </trkpt>
      <trkpt lat="42.42862" lon="0.06637">
        <ele>649.51</ele>
        <time>2014-05-18T10:40:30Z</time>
      </trkpt>
      <trkpt lat="42.42863" lon="0.06635">
        <ele>648.07</ele>
        <time>2014-05-18T10:40:33Z</time>
      </trkpt>
      <trkpt lat="42.42866" lon="0.06632">
        <ele>647.1</ele>
        <time>2014-05-18T10:40:40Z</time>
      </trkpt>
      <trkpt lat="42.42866" lon="0.06631">
        <ele>647.1</ele>
        <time>2014-05-18T10:40:48Z</time>
      </trkpt>
      <trkpt lat="42.42869" lon="0.06623">
        <ele>642.78</ele>
        <time>2014-05-18T10:40:52Z</time>
      </trkpt>
      <trkpt lat="42.42875" lon="0.06617">
        <ele>639.41</ele>
        <time>2014-05-18T10:40:56Z</time>
      </trkpt>
      <trkpt lat="42.42877" lon="0.0662">
        <ele>639.41</ele>
        <time>2014-05-18T10:40:57Z</time>
      </trkpt>
      <trkpt lat="42.42883" lon="0.06624">
        <ele>635.57</ele>
        <time>2014-05-18T10:41:02Z</time>
      </trkpt>
      <trkpt lat="42.42875" lon="0.06606">
        <ele>635.57</ele>
        <time>2014-05-18T10:41:06Z</time>
      </trkpt>
      <trkpt lat="42.42867" lon="0.06599">
        <ele>634.13</ele>
        <time>2014-05-18T10:41:09Z</time>
      </trkpt>
      <trkpt lat="42.42854" lon="0.06581">
        <ele>633.65</ele>
        <time>2014-05-18T10:41:16Z</time>
      </trkpt>
      <trkpt lat="42.42853" lon="0.06577">
        <ele>633.17</ele>
        <time>2014-05-18T10:41:21Z</time>
      </trkpt>
      <trkpt lat="42.42851" lon="0.06571">
        <ele>632.68</ele>
        <time>2014-05-18T10:41:28Z</time>
      </trkpt>
      <trkpt lat="42.42848" lon="0.06567">
        <ele>632.68</ele>
        <time>2014-05-18T10:41:34Z</time>
      </trkpt>
      <trkpt lat="42.42842" lon="0.0656">
        <ele>633.17</ele>
        <time>2014-05-18T10:41:42Z</time>
      </trkpt>
      <trkpt lat="42.42838" lon="0.06557">
        <ele>633.17</ele>
        <time>2014-05-18T10:41:47Z</time>
      </trkpt>
      <trkpt lat="42.42829" lon="0.06549">
        <ele>634.13</ele>
        <time>2014-05-18T10:41:57Z</time>
      </trkpt>
      <trkpt lat="42.42829" lon="0.06547">
        <ele>633.65</ele>
        <time>2014-05-18T10:42:00Z</time>
      </trkpt>
      <trkpt lat="42.42827" lon="0.06543">
        <ele>633.17</ele>
        <time>2014-05-18T10:42:03Z</time>
      </trkpt>
      <trkpt lat="42.42823" lon="0.06536">
        <ele>633.65</ele>
        <time>2014-05-18T10:42:11Z</time>
      </trkpt>
      <trkpt lat="42.42818" lon="0.06528">
        <ele>633.65</ele>
        <time>2014-05-18T10:42:21Z</time>
      </trkpt>
      <trkpt lat="42.42816" lon="0.06526">
        <ele>633.17</ele>
        <time>2014-05-18T10:42:24Z</time>
      </trkpt>
      <trkpt lat="42.42815" lon="0.0652">
        <ele>633.65</ele>
        <time>2014-05-18T10:42:28Z</time>
      </trkpt>
      <trkpt lat="42.4281" lon="0.06514">
        <ele>635.09</ele>
        <time>2014-05-18T10:42:36Z</time>
      </trkpt>
      <trkpt lat="42.42809" lon="0.0651">
        <ele>635.57</ele>
        <time>2014-05-18T10:42:41Z</time>
      </trkpt>
      <trkpt lat="42.42809" lon="0.06507">
        <ele>635.09</ele>
        <time>2014-05-18T10:42:43Z</time>
      </trkpt>
      <trkpt lat="42.42808" lon="0.06501">
        <ele>635.09</ele>
        <time>2014-05-18T10:42:49Z</time>
      </trkpt>
      <trkpt lat="42.42808" lon="0.06499">
        <ele>634.61</ele>
        <time>2014-05-18T10:42:52Z</time>
      </trkpt>
      <trkpt lat="42.42809" lon="0.06475">
        <ele>634.61</ele>
        <time>2014-05-18T10:43:01Z</time>
      </trkpt>
      <trkpt lat="42.42809" lon="0.06451">
        <ele>635.09</ele>
        <time>2014-05-18T10:43:09Z</time>
      </trkpt>
      <trkpt lat="42.42811" lon="0.06423">
        <ele>635.09</ele>
        <time>2014-05-18T10:43:18Z</time>
      </trkpt>
      <trkpt lat="42.42814" lon="0.06381">
        <ele>636.53</ele>
        <time>2014-05-18T10:43:31Z</time>
      </trkpt>
      <trkpt lat="42.42815" lon="0.06357">
        <ele>637.01</ele>
        <time>2014-05-18T10:43:38Z</time>
      </trkpt>
      <trkpt lat="42.42813" lon="0.06335">
        <ele>637.01</ele>
        <time>2014-05-18T10:43:45Z</time>
      </trkpt>
      <trkpt lat="42.42803" lon="0.06313">
        <ele>636.53</ele>
        <time>2014-05-18T10:43:53Z</time>
      </trkpt>
      <trkpt lat="42.42799" lon="0.06305">
        <ele>637.01</ele>
        <time>2014-05-18T10:43:56Z</time>
      </trkpt>
      <trkpt lat="42.42803" lon="0.06292">
        <ele>637.49</ele>
        <time>2014-05-18T10:44:02Z</time>
      </trkpt>
      <trkpt lat="42.42804" lon="0.0629">
        <ele>637.49</ele>
        <time>2014-05-18T10:44:03Z</time>
      </trkpt>
      <trkpt lat="42.42806" lon="0.06275">
        <ele>638.93</ele>
        <time>2014-05-18T10:44:11Z</time>
      </trkpt>
      <trkpt lat="42.42807" lon="0.06249">
        <ele>638.93</ele>
        <time>2014-05-18T10:44:21Z</time>
      </trkpt>
      <trkpt lat="42.42805" lon="0.06219">
        <ele>639.41</ele>
        <time>2014-05-18T10:44:31Z</time>
      </trkpt>
      <trkpt lat="42.42812" lon="0.06195">
        <ele>640.38</ele>
        <time>2014-05-18T10:44:39Z</time>
      </trkpt>
      <trkpt lat="42.42827" lon="0.06198">
        <ele>640.38</ele>
        <time>2014-05-18T10:44:46Z</time>
      </trkpt>
      <trkpt lat="42.42861" lon="0.06222">
        <ele>641.82</ele>
        <time>2014-05-18T10:45:00Z</time>
      </trkpt>
      <trkpt lat="42.42878" lon="0.06243">
        <ele>644.22</ele>
        <time>2014-05-18T10:45:10Z</time>
      </trkpt>
      <trkpt lat="42.42881" lon="0.06255">
        <ele>645.18</ele>
        <time>2014-05-18T10:45:15Z</time>
      </trkpt>
      <trkpt lat="42.42883" lon="0.06281">
        <ele>647.59</ele>
        <time>2014-05-18T10:45:26Z</time>
      </trkpt>
      <trkpt lat="42.42881" lon="0.06307">
        <ele>649.99</ele>
        <time>2014-05-18T10:45:38Z</time>
      </trkpt>
      <trkpt lat="42.42879" lon="0.06324">
        <ele>651.43</ele>
        <time>2014-05-18T10:45:48Z</time>
      </trkpt>
      <trkpt lat="42.4288" lon="0.06349">
        <ele>654.31</ele>
        <time>2014-05-18T10:46:02Z</time>
      </trkpt>
      <trkpt lat="42.42885" lon="0.0637">
        <ele>657.2</ele>
        <time>2014-05-18T10:46:14Z</time>
      </trkpt>
      <trkpt lat="42.42897" lon="0.0639">
        <ele>659.12</ele>
        <time>2014-05-18T10:46:27Z</time>
      </trkpt>
      <trkpt lat="42.42911" lon="0.06407">
        <ele>661.52</ele>
        <time>2014-05-18T10:46:40Z</time>
      </trkpt>
      <trkpt lat="42.42919" lon="0.06423">
        <ele>664.41</ele>
        <time>2014-05-18T10:46:52Z</time>
      </trkpt>
      <trkpt lat="42.4293" lon="0.06444">
        <ele>666.81</ele>
        <time>2014-05-18T10:47:06Z</time>
      </trkpt>
      <trkpt lat="42.42944" lon="0.06458">
        <ele>669.22</ele>
        <time>2014-05-18T10:47:19Z</time>
      </trkpt>
      <trkpt lat="42.42956" lon="0.06466">
        <ele>671.14</ele>
        <time>2014-05-18T10:47:29Z</time>
      </trkpt>
      <trkpt lat="42.4297" lon="0.06474">
        <ele>674.02</ele>
        <time>2014-05-18T10:47:42Z</time>
      </trkpt>
      <trkpt lat="42.42975" lon="0.06488">
        <ele>676.42</ele>
        <time>2014-05-18T10:47:52Z</time>
      </trkpt>
      <trkpt lat="42.42976" lon="0.06513">
        <ele>679.31</ele>
        <time>2014-05-18T10:48:06Z</time>
      </trkpt>
      <trkpt lat="42.42979" lon="0.06535">
        <ele>681.23</ele>
        <time>2014-05-18T10:48:17Z</time>
      </trkpt>
      <trkpt lat="42.42982" lon="0.06559">
        <ele>681.23</ele>
        <time>2014-05-18T10:48:27Z</time>
      </trkpt>
      <trkpt lat="42.42981" lon="0.06595">
        <ele>682.67</ele>
        <time>2014-05-18T10:48:40Z</time>
      </trkpt>
      <trkpt lat="42.42982" lon="0.06629">
        <ele>684.6</ele>
        <time>2014-05-18T10:48:53Z</time>
      </trkpt>
      <trkpt lat="42.42988" lon="0.06666">
        <ele>687</ele>
        <time>2014-05-18T10:49:07Z</time>
      </trkpt>
      <trkpt lat="42.42999" lon="0.06693">
        <ele>688.92</ele>
        <time>2014-05-18T10:49:17Z</time>
      </trkpt>
      <trkpt lat="42.43013" lon="0.06725">
        <ele>690.84</ele>
        <time>2014-05-18T10:49:30Z</time>
      </trkpt>
      <trkpt lat="42.43021" lon="0.06758">
        <ele>691.33</ele>
        <time>2014-05-18T10:49:40Z</time>
      </trkpt>
      <trkpt lat="42.4302" lon="0.06795">
        <ele>691.81</ele>
        <time>2014-05-18T10:49:50Z</time>
      </trkpt>
      <trkpt lat="42.43012" lon="0.06836">
        <ele>691.81</ele>
        <time>2014-05-18T10:50:00Z</time>
      </trkpt>
      <trkpt lat="42.43009" lon="0.06848">
        <ele>692.29</ele>
        <time>2014-05-18T10:50:03Z</time>
      </trkpt>
      <trkpt lat="42.43012" lon="0.06856">
        <ele>693.25</ele>
        <time>2014-05-18T10:50:08Z</time>
      </trkpt>
      <trkpt lat="42.43013" lon="0.06854">
        <ele>693.25</ele>
        <time>2014-05-18T10:50:09Z</time>
      </trkpt>
      <trkpt lat="42.43023" lon="0.06822">
        <ele>697.09</ele>
        <time>2014-05-18T10:50:23Z</time>
      </trkpt>
      <trkpt lat="42.43026" lon="0.06815">
        <ele>697.09</ele>
        <time>2014-05-18T10:50:26Z</time>
      </trkpt>
      <trkpt lat="42.43033" lon="0.06813">
        <ele>698.53</ele>
        <time>2014-05-18T10:50:32Z</time>
      </trkpt>
      <trkpt lat="42.43034" lon="0.06815">
        <ele>698.53</ele>
        <time>2014-05-18T10:50:33Z</time>
      </trkpt>
      <trkpt lat="42.43026" lon="0.06842">
        <ele>699.98</ele>
        <time>2014-05-18T10:50:44Z</time>
      </trkpt>
      <trkpt lat="42.43029" lon="0.06879">
        <ele>701.9</ele>
        <time>2014-05-18T10:50:59Z</time>
      </trkpt>
      <trkpt lat="42.43031" lon="0.06908">
        <ele>702.86</ele>
        <time>2014-05-18T10:51:11Z</time>
      </trkpt>
      <trkpt lat="42.43031" lon="0.06914">
        <ele>704.78</ele>
        <time>2014-05-18T10:51:14Z</time>
      </trkpt>
      <trkpt lat="42.43036" lon="0.06921">
        <ele>705.75</ele>
        <time>2014-05-18T10:51:19Z</time>
      </trkpt>
      <trkpt lat="42.43045" lon="0.06905">
        <ele>707.19</ele>
        <time>2014-05-18T10:51:30Z</time>
      </trkpt>
      <trkpt lat="42.43047" lon="0.06896">
        <ele>709.11</ele>
        <time>2014-05-18T10:51:35Z</time>
      </trkpt>
      <trkpt lat="42.43047" lon="0.06888">
        <ele>709.59</ele>
        <time>2014-05-18T10:51:39Z</time>
      </trkpt>
      <trkpt lat="42.43049" lon="0.06864">
        <ele>711.51</ele>
        <time>2014-05-18T10:51:52Z</time>
      </trkpt>
      <trkpt lat="42.43053" lon="0.06858">
        <ele>711.51</ele>
        <time>2014-05-18T10:52:00Z</time>
      </trkpt>
      <trkpt lat="42.43054" lon="0.06857">
        <ele>712.95</ele>
        <time>2014-05-18T10:52:07Z</time>
      </trkpt>
      <trkpt lat="42.43055" lon="0.06855">
        <ele>712.47</ele>
        <time>2014-05-18T10:52:11Z</time>
      </trkpt>
      <trkpt lat="42.43057" lon="0.06847">
        <ele>714.4</ele>
        <time>2014-05-18T10:52:18Z</time>
      </trkpt>
      <trkpt lat="42.43063" lon="0.0683">
        <ele>717.28</ele>
        <time>2014-05-18T10:52:29Z</time>
      </trkpt>
      <trkpt lat="42.43072" lon="0.06821">
        <ele>720.16</ele>
        <time>2014-05-18T10:52:40Z</time>
      </trkpt>
      <trkpt lat="42.43082" lon="0.06823">
        <ele>722.09</ele>
        <time>2014-05-18T10:52:49Z</time>
      </trkpt>
      <trkpt lat="42.43092" lon="0.06828">
        <ele>724.49</ele>
        <time>2014-05-18T10:52:59Z</time>
      </trkpt>
      <trkpt lat="42.43104" lon="0.06822">
        <ele>725.93</ele>
        <time>2014-05-18T10:53:10Z</time>
      </trkpt>
      <trkpt lat="42.43106" lon="0.0682">
        <ele>726.41</ele>
        <time>2014-05-18T10:53:12Z</time>
      </trkpt>
      <trkpt lat="42.43107" lon="0.06816">
        <ele>726.89</ele>
        <time>2014-05-18T10:53:20Z</time>
      </trkpt>
      <trkpt lat="42.43105" lon="0.0681">
        <ele>725.93</ele>
        <time>2014-05-18T10:53:30Z</time>
      </trkpt>
      <trkpt lat="42.43107" lon="0.06809">
        <ele>726.41</ele>
        <time>2014-05-18T10:55:22Z</time>
      </trkpt>
      <trkpt lat="42.43104" lon="0.06802">
        <ele>726.41</ele>
        <time>2014-05-18T10:55:25Z</time>
      </trkpt>
      <trkpt lat="42.43101" lon="0.06791">
        <ele>726.89</ele>
        <time>2014-05-18T10:55:30Z</time>
      </trkpt>
      <trkpt lat="42.43101" lon="0.06791">
        <ele>726.89</ele>
        <time>2014-05-18T10:55:33Z</time>
      </trkpt>
      <trkpt lat="42.43105" lon="0.06788">
        <ele>728.82</ele>
        <time>2014-05-18T10:55:40Z</time>
      </trkpt>
      <trkpt lat="42.43108" lon="0.06783">
        <ele>728.34</ele>
        <time>2014-05-18T10:55:48Z</time>
      </trkpt>
      <trkpt lat="42.4311" lon="0.06777">
        <ele>728.82</ele>
        <time>2014-05-18T10:55:56Z</time>
      </trkpt>
      <trkpt lat="42.43111" lon="0.06761">
        <ele>730.26</ele>
        <time>2014-05-18T10:56:05Z</time>
      </trkpt>
      <trkpt lat="42.43108" lon="0.0675">
        <ele>730.74</ele>
        <time>2014-05-18T10:56:12Z</time>
      </trkpt>
      <trkpt lat="42.43107" lon="0.06747">
        <ele>732.18</ele>
        <time>2014-05-18T10:56:15Z</time>
      </trkpt>
      <trkpt lat="42.43108" lon="0.0674">
        <ele>733.62</ele>
        <time>2014-05-18T10:56:24Z</time>
      </trkpt>
      <trkpt lat="42.43105" lon="0.06728">
        <ele>735.07</ele>
        <time>2014-05-18T10:56:35Z</time>
      </trkpt>
      <trkpt lat="42.43101" lon="0.06712">
        <ele>736.51</ele>
        <time>2014-05-18T10:56:48Z</time>
      </trkpt>
      <trkpt lat="42.431" lon="0.06701">
        <ele>738.43</ele>
        <time>2014-05-18T10:56:59Z</time>
      </trkpt>
      <trkpt lat="42.43102" lon="0.06694">
        <ele>738.91</ele>
        <time>2014-05-18T10:57:05Z</time>
      </trkpt>
      <trkpt lat="42.43104" lon="0.06673">
        <ele>739.39</ele>
        <time>2014-05-18T10:57:19Z</time>
      </trkpt>
      <trkpt lat="42.43105" lon="0.06669">
        <ele>739.87</ele>
        <time>2014-05-18T10:57:22Z</time>
      </trkpt>
      <trkpt lat="42.43106" lon="0.06667">
        <ele>739.87</ele>
        <time>2014-05-18T10:57:24Z</time>
      </trkpt>
      <trkpt lat="42.43106" lon="0.06664">
        <ele>740.83</ele>
        <time>2014-05-18T10:57:27Z</time>
      </trkpt>
      <trkpt lat="42.43102" lon="0.06649">
        <ele>740.83</ele>
        <time>2014-05-18T10:57:36Z</time>
      </trkpt>
      <trkpt lat="42.43096" lon="0.06629">
        <ele>741.31</ele>
        <time>2014-05-18T10:57:43Z</time>
      </trkpt>
      <trkpt lat="42.43089" lon="0.06616">
        <ele>742.28</ele>
        <time>2014-05-18T10:57:50Z</time>
      </trkpt>
      <trkpt lat="42.43076" lon="0.06595">
        <ele>741.79</ele>
        <time>2014-05-18T10:57:59Z</time>
      </trkpt>
      <trkpt lat="42.43073" lon="0.0658">
        <ele>742.28</ele>
        <time>2014-05-18T10:58:04Z</time>
      </trkpt>
      <trkpt lat="42.43072" lon="0.06561">
        <ele>742.28</ele>
        <time>2014-05-18T10:58:11Z</time>
      </trkpt>
      <trkpt lat="42.43071" lon="0.06538">
        <ele>742.28</ele>
        <time>2014-05-18T10:58:18Z</time>
      </trkpt>
      <trkpt lat="42.43078" lon="0.06521">
        <ele>743.72</ele>
        <time>2014-05-18T10:58:26Z</time>
      </trkpt>
      <trkpt lat="42.43086" lon="0.06503">
        <ele>743.72</ele>
        <time>2014-05-18T10:58:34Z</time>
      </trkpt>
      <trkpt lat="42.43098" lon="0.06483">
        <ele>743.24</ele>
        <time>2014-05-18T10:58:40Z</time>
      </trkpt>
      <trkpt lat="42.43105" lon="0.0647">
        <ele>741.31</ele>
        <time>2014-05-18T10:58:46Z</time>
      </trkpt>
      <trkpt lat="42.43115" lon="0.0645">
        <ele>739.87</ele>
        <time>2014-05-18T10:58:52Z</time>
      </trkpt>
      <trkpt lat="42.43133" lon="0.06435">
        <ele>741.31</ele>
        <time>2014-05-18T10:58:58Z</time>
      </trkpt>
      <trkpt lat="42.43147" lon="0.0642">
        <ele>739.87</ele>
        <time>2014-05-18T10:59:05Z</time>
      </trkpt>
      <trkpt lat="42.43164" lon="0.06398">
        <ele>739.87</ele>
        <time>2014-05-18T10:59:12Z</time>
      </trkpt>
      <trkpt lat="42.43166" lon="0.06395">
        <ele>739.39</ele>
        <time>2014-05-18T10:59:13Z</time>
      </trkpt>
      <trkpt lat="42.43177" lon="0.06378">
        <ele>738.43</ele>
        <time>2014-05-18T10:59:18Z</time>
      </trkpt>
      <trkpt lat="42.43191" lon="0.0635">
        <ele>736.51</ele>
        <time>2014-05-18T10:59:24Z</time>
      </trkpt>
      <trkpt lat="42.43206" lon="0.06333">
        <ele>736.99</ele>
        <time>2014-05-18T10:59:31Z</time>
      </trkpt>
      <trkpt lat="42.43214" lon="0.06329">
        <ele>737.47</ele>
        <time>2014-05-18T10:59:35Z</time>
      </trkpt>
      <trkpt lat="42.43215" lon="0.06317">
        <ele>734.1</ele>
        <time>2014-05-18T10:59:42Z</time>
      </trkpt>
      <trkpt lat="42.43216" lon="0.06314">
        <ele>733.62</ele>
        <time>2014-05-18T10:59:43Z</time>
      </trkpt>
      <trkpt lat="42.43229" lon="0.06308">
        <ele>736.03</ele>
        <time>2014-05-18T10:59:49Z</time>
      </trkpt>
      <trkpt lat="42.43234" lon="0.0631">
        <ele>736.03</ele>
        <time>2014-05-18T10:59:52Z</time>
      </trkpt>
      <trkpt lat="42.43241" lon="0.06306">
        <ele>737.47</ele>
        <time>2014-05-18T11:00:00Z</time>
      </trkpt>
      <trkpt lat="42.43247" lon="0.06306">
        <ele>740.35</ele>
        <time>2014-05-18T11:00:10Z</time>
      </trkpt>
      <trkpt lat="42.43251" lon="0.06308">
        <ele>740.83</ele>
        <time>2014-05-18T11:00:19Z</time>
      </trkpt>
      <trkpt lat="42.43254" lon="0.06308">
        <ele>742.28</ele>
        <time>2014-05-18T11:00:36Z</time>
      </trkpt>
      <trkpt lat="42.43256" lon="0.06306">
        <ele>742.76</ele>
        <time>2014-05-18T11:00:52Z</time>
      </trkpt>
      <trkpt lat="42.43259" lon="0.06299">
        <ele>743.24</ele>
        <time>2014-05-18T11:01:00Z</time>
      </trkpt>
      <trkpt lat="42.43262" lon="0.06294">
        <ele>743.24</ele>
        <time>2014-05-18T11:01:07Z</time>
      </trkpt>
      <trkpt lat="42.43273" lon="0.06298">
        <ele>742.76</ele>
        <time>2014-05-18T11:01:12Z</time>
      </trkpt>
      <trkpt lat="42.43276" lon="0.06298">
        <ele>742.76</ele>
        <time>2014-05-18T11:01:13Z</time>
      </trkpt>
      <trkpt lat="42.43291" lon="0.06295">
        <ele>743.72</ele>
        <time>2014-05-18T11:01:21Z</time>
      </trkpt>
      <trkpt lat="42.43301" lon="0.06291">
        <ele>744.68</ele>
        <time>2014-05-18T11:01:26Z</time>
      </trkpt>
      <trkpt lat="42.43305" lon="0.06289">
        <ele>745.64</ele>
        <time>2014-05-18T11:01:28Z</time>
      </trkpt>
      <trkpt lat="42.43309" lon="0.06291">
        <ele>747.08</ele>
        <time>2014-05-18T11:01:33Z</time>
      </trkpt>
      <trkpt lat="42.43312" lon="0.06299">
        <ele>746.6</ele>
        <time>2014-05-18T11:01:40Z</time>
      </trkpt>
      <trkpt lat="42.43318" lon="0.063">
        <ele>747.56</ele>
        <time>2014-05-18T11:01:51Z</time>
      </trkpt>
      <trkpt lat="42.43322" lon="0.06303">
        <ele>748.52</ele>
        <time>2014-05-18T11:02:01Z</time>
      </trkpt>
      <trkpt lat="42.43323" lon="0.06304">
        <ele>748.52</ele>
        <time>2014-05-18T11:02:02Z</time>
      </trkpt>
      <trkpt lat="42.43325" lon="0.0631">
        <ele>749.49</ele>
        <time>2014-05-18T11:02:10Z</time>
      </trkpt>
      <trkpt lat="42.43328" lon="0.06313">
        <ele>749.97</ele>
        <time>2014-05-18T11:02:22Z</time>
      </trkpt>
      <trkpt lat="42.4333" lon="0.06312">
        <ele>749.97</ele>
        <time>2014-05-18T11:02:29Z</time>
      </trkpt>
      <trkpt lat="42.43338" lon="0.0631">
        <ele>751.41</ele>
        <time>2014-05-18T11:02:40Z</time>
      </trkpt>
      <trkpt lat="42.4334" lon="0.0632">
        <ele>750.93</ele>
        <time>2014-05-18T11:02:46Z</time>
      </trkpt>
      <trkpt lat="42.43345" lon="0.06322">
        <ele>751.41</ele>
        <time>2014-05-18T11:03:03Z</time>
      </trkpt>
      <trkpt lat="42.43345" lon="0.06321">
        <ele>751.89</ele>
        <time>2014-05-18T11:04:25Z</time>
      </trkpt>
      <trkpt lat="42.43347" lon="0.06322">
        <ele>752.37</ele>
        <time>2014-05-18T11:06:09Z</time>
      </trkpt>
      <trkpt lat="42.4335" lon="0.0632">
        <ele>751.41</ele>
        <time>2014-05-18T11:07:23Z</time>
      </trkpt>
      <trkpt lat="42.43356" lon="0.06318">
        <ele>750.93</ele>
        <time>2014-05-18T11:09:50Z</time>
      </trkpt>
      <trkpt lat="42.43359" lon="0.06316">
        <ele>751.89</ele>
        <time>2014-05-18T11:10:01Z</time>
      </trkpt>
      <trkpt lat="42.43365" lon="0.06323">
        <ele>752.37</ele>
        <time>2014-05-18T11:14:05Z</time>
      </trkpt>
      <trkpt lat="42.4337" lon="0.0633">
        <ele>750.45</ele>
        <time>2014-05-18T11:14:07Z</time>
      </trkpt>
      <trkpt lat="42.43381" lon="0.06346">
        <ele>746.6</ele>
        <time>2014-05-18T11:14:11Z</time>
      </trkpt>
      <trkpt lat="42.43389" lon="0.06354">
        <ele>744.68</ele>
        <time>2014-05-18T11:14:13Z</time>
      </trkpt>
      <trkpt lat="42.434" lon="0.06366">
        <ele>745.16</ele>
        <time>2014-05-18T11:14:14Z</time>
      </trkpt>
      <trkpt lat="42.43406" lon="0.06374">
        <ele>745.64</ele>
        <time>2014-05-18T11:14:19Z</time>
      </trkpt>
      <trkpt lat="42.43414" lon="0.06385">
        <ele>742.76</ele>
        <time>2014-05-18T11:14:24Z</time>
      </trkpt>
      <trkpt lat="42.43432" lon="0.06414">
        <ele>745.16</ele>
        <time>2014-05-18T11:14:30Z</time>
      </trkpt>
      <trkpt lat="42.43434" lon="0.06417">
        <ele>745.16</ele>
        <time>2014-05-18T11:14:31Z</time>
      </trkpt>
      <trkpt lat="42.4344" lon="0.06427">
        <ele>743.72</ele>
        <time>2014-05-18T11:14:35Z</time>
      </trkpt>
      <trkpt lat="42.43446" lon="0.06432">
        <ele>742.28</ele>
        <time>2014-05-18T11:14:37Z</time>
      </trkpt>
      <trkpt lat="42.43449" lon="0.06435">
        <ele>741.79</ele>
        <time>2014-05-18T11:14:38Z</time>
      </trkpt>
      <trkpt lat="42.4346" lon="0.06451">
        <ele>739.39</ele>
        <time>2014-05-18T11:14:42Z</time>
      </trkpt>
      <trkpt lat="42.43467" lon="0.06464">
        <ele>736.99</ele>
        <time>2014-05-18T11:14:46Z</time>
      </trkpt>
      <trkpt lat="42.43471" lon="0.06464">
        <ele>734.1</ele>
        <time>2014-05-18T11:14:49Z</time>
      </trkpt>
      <trkpt lat="42.43476" lon="0.06467">
        <ele>729.78</ele>
        <time>2014-05-18T11:14:52Z</time>
      </trkpt>
      <trkpt lat="42.43479" lon="0.06471">
        <ele>729.78</ele>
        <time>2014-05-18T11:14:53Z</time>
      </trkpt>
      <trkpt lat="42.43486" lon="0.06478">
        <ele>729.3</ele>
        <time>2014-05-18T11:14:54Z</time>
      </trkpt>
      <trkpt lat="42.43503" lon="0.06499">
        <ele>725.45</ele>
        <time>2014-05-18T11:14:57Z</time>
      </trkpt>
      <trkpt lat="42.43507" lon="0.06506">
        <ele>724.01</ele>
        <time>2014-05-18T11:14:58Z</time>
      </trkpt>
      <trkpt lat="42.43527" lon="0.06534">
        <ele>724.01</ele>
        <time>2014-05-18T11:15:02Z</time>
      </trkpt>
      <trkpt lat="42.43529" lon="0.0654">
        <ele>724.97</ele>
        <time>2014-05-18T11:15:03Z</time>
      </trkpt>
      <trkpt lat="42.43534" lon="0.0655">
        <ele>723.05</ele>
        <time>2014-05-18T11:15:06Z</time>
      </trkpt>
      <trkpt lat="42.43537" lon="0.06568">
        <ele>719.2</ele>
        <time>2014-05-18T11:15:09Z</time>
      </trkpt>
      <trkpt lat="42.4354" lon="0.06573">
        <ele>719.2</ele>
        <time>2014-05-18T11:15:10Z</time>
      </trkpt>
      <trkpt lat="42.43541" lon="0.06578">
        <ele>718.24</ele>
        <time>2014-05-18T11:15:11Z</time>
      </trkpt>
      <trkpt lat="42.43541" lon="0.06586">
        <ele>716.8</ele>
        <time>2014-05-18T11:15:13Z</time>
      </trkpt>
      <trkpt lat="42.43539" lon="0.06603">
        <ele>713.92</ele>
        <time>2014-05-18T11:15:17Z</time>
      </trkpt>
      <trkpt lat="42.43541" lon="0.06618">
        <ele>710.55</ele>
        <time>2014-05-18T11:15:20Z</time>
      </trkpt>
      <trkpt lat="42.43541" lon="0.06624">
        <ele>711.03</ele>
        <time>2014-05-18T11:15:21Z</time>
      </trkpt>
      <trkpt lat="42.43541" lon="0.06633">
        <ele>709.59</ele>
        <time>2014-05-18T11:15:25Z</time>
      </trkpt>
      <trkpt lat="42.43541" lon="0.06631">
        <ele>707.19</ele>
        <time>2014-05-18T11:15:32Z</time>
      </trkpt>
      <trkpt lat="42.43543" lon="0.06631">
        <ele>706.71</ele>
        <time>2014-05-18T11:15:37Z</time>
      </trkpt>
      <trkpt lat="42.43545" lon="0.06643">
        <ele>701.9</ele>
        <time>2014-05-18T11:15:40Z</time>
      </trkpt>
      <trkpt lat="42.43546" lon="0.06671">
        <ele>699.02</ele>
        <time>2014-05-18T11:15:44Z</time>
      </trkpt>
      <trkpt lat="42.43546" lon="0.06685">
        <ele>696.61</ele>
        <time>2014-05-18T11:15:46Z</time>
      </trkpt>
      <trkpt lat="42.4355" lon="0.06708">
        <ele>692.77</ele>
        <time>2014-05-18T11:15:49Z</time>
      </trkpt>
      <trkpt lat="42.43556" lon="0.06737">
        <ele>688.44</ele>
        <time>2014-05-18T11:15:52Z</time>
      </trkpt>
      <trkpt lat="42.43557" lon="0.06746">
        <ele>688.44</ele>
        <time>2014-05-18T11:15:53Z</time>
      </trkpt>
      <trkpt lat="42.43565" lon="0.0677">
        <ele>687</ele>
        <time>2014-05-18T11:15:58Z</time>
      </trkpt>
      <trkpt lat="42.4357" lon="0.06782">
        <ele>685.56</ele>
        <time>2014-05-18T11:16:01Z</time>
      </trkpt>
      <trkpt lat="42.43573" lon="0.06792">
        <ele>687</ele>
        <time>2014-05-18T11:16:06Z</time>
      </trkpt>
      <trkpt lat="42.43573" lon="0.06796">
        <ele>687</ele>
        <time>2014-05-18T11:16:08Z</time>
      </trkpt>
      <trkpt lat="42.43576" lon="0.06806">
        <ele>685.56</ele>
        <time>2014-05-18T11:16:11Z</time>
      </trkpt>
      <trkpt lat="42.43582" lon="0.06823">
        <ele>682.67</ele>
        <time>2014-05-18T11:16:14Z</time>
      </trkpt>
      <trkpt lat="42.43585" lon="0.06844">
        <ele>681.23</ele>
        <time>2014-05-18T11:16:17Z</time>
      </trkpt>
      <trkpt lat="42.43585" lon="0.06859">
        <ele>681.23</ele>
        <time>2014-05-18T11:16:19Z</time>
      </trkpt>
      <trkpt lat="42.43588" lon="0.06899">
        <ele>679.79</ele>
        <time>2014-05-18T11:16:25Z</time>
      </trkpt>
      <trkpt lat="42.43592" lon="0.06913">
        <ele>678.35</ele>
        <time>2014-05-18T11:16:28Z</time>
      </trkpt>
      <trkpt lat="42.43597" lon="0.06931">
        <ele>676.42</ele>
        <time>2014-05-18T11:16:31Z</time>
      </trkpt>
      <trkpt lat="42.43597" lon="0.06972">
        <ele>672.1</ele>
        <time>2014-05-18T11:16:35Z</time>
      </trkpt>
      <trkpt lat="42.43597" lon="0.06987">
        <ele>670.66</ele>
        <time>2014-05-18T11:16:37Z</time>
      </trkpt>
      <trkpt lat="42.43595" lon="0.07002">
        <ele>668.25</ele>
        <time>2014-05-18T11:16:41Z</time>
      </trkpt>
      <trkpt lat="42.43594" lon="0.07008">
        <ele>664.41</ele>
        <time>2014-05-18T11:16:44Z</time>
      </trkpt>
      <trkpt lat="42.43595" lon="0.07021">
        <ele>662.01</ele>
        <time>2014-05-18T11:16:47Z</time>
      </trkpt>
      <trkpt lat="42.43598" lon="0.0703">
        <ele>657.68</ele>
        <time>2014-05-18T11:16:50Z</time>
      </trkpt>
      <trkpt lat="42.43598" lon="0.07048">
        <ele>652.39</ele>
        <time>2014-05-18T11:16:56Z</time>
      </trkpt>
      <trkpt lat="42.43595" lon="0.07059">
        <ele>649.51</ele>
        <time>2014-05-18T11:16:58Z</time>
      </trkpt>
      <trkpt lat="42.43589" lon="0.07072">
        <ele>647.59</ele>
        <time>2014-05-18T11:17:00Z</time>
      </trkpt>
      <trkpt lat="42.43582" lon="0.07096">
        <ele>644.22</ele>
        <time>2014-05-18T11:17:04Z</time>
      </trkpt>
      <trkpt lat="42.43584" lon="0.07104">
        <ele>642.78</ele>
        <time>2014-05-18T11:17:06Z</time>
      </trkpt>
      <trkpt lat="42.43591" lon="0.07096">
        <ele>640.86</ele>
        <time>2014-05-18T11:17:10Z</time>
      </trkpt>
      <trkpt lat="42.43593" lon="0.07104">
        <ele>639.41</ele>
        <time>2014-05-18T11:17:13Z</time>
      </trkpt>
      <trkpt lat="42.43596" lon="0.0711">
        <ele>636.53</ele>
        <time>2014-05-18T11:17:15Z</time>
      </trkpt>
      <trkpt lat="42.43607" lon="0.0712">
        <ele>634.61</ele>
        <time>2014-05-18T11:17:18Z</time>
      </trkpt>
      <trkpt lat="42.43613" lon="0.07125">
        <ele>633.65</ele>
        <time>2014-05-18T11:17:21Z</time>
      </trkpt>
      <trkpt lat="42.43609" lon="0.07141">
        <ele>631.24</ele>
        <time>2014-05-18T11:17:24Z</time>
      </trkpt>
      <trkpt lat="42.43609" lon="0.07153">
        <ele>628.36</ele>
        <time>2014-05-18T11:17:26Z</time>
      </trkpt>
      <trkpt lat="42.43612" lon="0.07177">
        <ele>627.88</ele>
        <time>2014-05-18T11:17:30Z</time>
      </trkpt>
      <trkpt lat="42.43613" lon="0.07177">
        <ele>626.92</ele>
        <time>2014-05-18T11:17:31Z</time>
      </trkpt>
      <trkpt lat="42.43622" lon="0.07165">
        <ele>624.99</ele>
        <time>2014-05-18T11:17:35Z</time>
      </trkpt>
      <trkpt lat="42.43632" lon="0.07155">
        <ele>622.59</ele>
        <time>2014-05-18T11:17:38Z</time>
      </trkpt>
      <trkpt lat="42.43633" lon="0.07157">
        <ele>620.19</ele>
        <time>2014-05-18T11:17:42Z</time>
      </trkpt>
      <trkpt lat="42.43628" lon="0.07179">
        <ele>616.34</ele>
        <time>2014-05-18T11:17:46Z</time>
      </trkpt>
      <trkpt lat="42.43623" lon="0.07187">
        <ele>618.26</ele>
        <time>2014-05-18T11:17:48Z</time>
      </trkpt>
      <trkpt lat="42.4362" lon="0.072">
        <ele>614.42</ele>
        <time>2014-05-18T11:17:54Z</time>
      </trkpt>
      <trkpt lat="42.43625" lon="0.07222">
        <ele>610.57</ele>
        <time>2014-05-18T11:17:58Z</time>
      </trkpt>
      <trkpt lat="42.43624" lon="0.07248">
        <ele>607.21</ele>
        <time>2014-05-18T11:18:03Z</time>
      </trkpt>
      <trkpt lat="42.43624" lon="0.07261">
        <ele>604.33</ele>
        <time>2014-05-18T11:18:06Z</time>
      </trkpt>
      <trkpt lat="42.4362" lon="0.07283">
        <ele>600.48</ele>
        <time>2014-05-18T11:18:09Z</time>
      </trkpt>
      <trkpt lat="42.4362" lon="0.07304">
        <ele>596.15</ele>
        <time>2014-05-18T11:18:13Z</time>
      </trkpt>
      <trkpt lat="42.43621" lon="0.07307">
        <ele>596.15</ele>
        <time>2014-05-18T11:18:14Z</time>
      </trkpt>
      <trkpt lat="42.43623" lon="0.07321">
        <ele>592.31</ele>
        <time>2014-05-18T11:18:17Z</time>
      </trkpt>
      <trkpt lat="42.43621" lon="0.07337">
        <ele>589.91</ele>
        <time>2014-05-18T11:18:20Z</time>
      </trkpt>
      <trkpt lat="42.43619" lon="0.07343">
        <ele>589.91</ele>
        <time>2014-05-18T11:18:21Z</time>
      </trkpt>
      <trkpt lat="42.43607" lon="0.0741">
        <ele>585.58</ele>
        <time>2014-05-18T11:18:28Z</time>
      </trkpt>
      <trkpt lat="42.43602" lon="0.07459">
        <ele>586.06</ele>
        <time>2014-05-18T11:18:32Z</time>
      </trkpt>
      <trkpt lat="42.43591" lon="0.07548">
        <ele>587.02</ele>
        <time>2014-05-18T11:18:40Z</time>
      </trkpt>
      <trkpt lat="42.43589" lon="0.07573">
        <ele>587.02</ele>
        <time>2014-05-18T11:18:43Z</time>
      </trkpt>
      <trkpt lat="42.43564" lon="0.0761">
        <ele>587.02</ele>
        <time>2014-05-18T11:18:49Z</time>
      </trkpt>
      <trkpt lat="42.43552" lon="0.07628">
        <ele>587.98</ele>
        <time>2014-05-18T11:18:52Z</time>
      </trkpt>
      <trkpt lat="42.43544" lon="0.0764">
        <ele>587.98</ele>
        <time>2014-05-18T11:18:54Z</time>
      </trkpt>
      <trkpt lat="42.43511" lon="0.07679">
        <ele>587.5</ele>
        <time>2014-05-18T11:19:02Z</time>
      </trkpt>
      <trkpt lat="42.435" lon="0.07696">
        <ele>587.5</ele>
        <time>2014-05-18T11:19:05Z</time>
      </trkpt>
      <trkpt lat="42.43486" lon="0.07743">
        <ele>587.02</ele>
        <time>2014-05-18T11:19:12Z</time>
      </trkpt>
      <trkpt lat="42.43462" lon="0.07768">
        <ele>587.02</ele>
        <time>2014-05-18T11:19:18Z</time>
      </trkpt>
      <trkpt lat="42.4342" lon="0.078">
        <ele>587.5</ele>
        <time>2014-05-18T11:19:27Z</time>
      </trkpt>
      <trkpt lat="42.434" lon="0.07822">
        <ele>587.98</ele>
        <time>2014-05-18T11:19:33Z</time>
      </trkpt>
      <trkpt lat="42.43354" lon="0.07878">
        <ele>586.54</ele>
        <time>2014-05-18T11:19:44Z</time>
      </trkpt>
      <trkpt lat="42.43317" lon="0.07914">
        <ele>584.14</ele>
        <time>2014-05-18T11:19:51Z</time>
      </trkpt>
      <trkpt lat="42.43307" lon="0.07925">
        <ele>584.62</ele>
        <time>2014-05-18T11:19:53Z</time>
      </trkpt>
      <trkpt lat="42.43275" lon="0.07965">
        <ele>584.62</ele>
        <time>2014-05-18T11:20:00Z</time>
      </trkpt>
      <trkpt lat="42.43264" lon="0.07983">
        <ele>583.18</ele>
        <time>2014-05-18T11:20:03Z</time>
      </trkpt>
      <trkpt lat="42.43227" lon="0.08014">
        <ele>582.22</ele>
        <time>2014-05-18T11:20:11Z</time>
      </trkpt>
      <trkpt lat="42.43185" lon="0.08043">
        <ele>583.66</ele>
        <time>2014-05-18T11:20:20Z</time>
      </trkpt>
      <trkpt lat="42.43139" lon="0.0807">
        <ele>583.18</ele>
        <time>2014-05-18T11:20:29Z</time>
      </trkpt>
      <trkpt lat="42.43118" lon="0.08081">
        <ele>583.18</ele>
        <time>2014-05-18T11:20:33Z</time>
      </trkpt>
      <trkpt lat="42.43114" lon="0.08099">
        <ele>582.7</ele>
        <time>2014-05-18T11:20:37Z</time>
      </trkpt>
      <trkpt lat="42.43139" lon="0.08142">
        <ele>582.7</ele>
        <time>2014-05-18T11:20:45Z</time>
      </trkpt>
      <trkpt lat="42.43157" lon="0.08175">
        <ele>582.22</ele>
        <time>2014-05-18T11:20:51Z</time>
      </trkpt>
      <trkpt lat="42.43164" lon="0.08192">
        <ele>581.73</ele>
        <time>2014-05-18T11:20:54Z</time>
      </trkpt>
      <trkpt lat="42.43175" lon="0.08236">
        <ele>582.22</ele>
        <time>2014-05-18T11:21:01Z</time>
      </trkpt>
      <trkpt lat="42.43189" lon="0.08288">
        <ele>581.25</ele>
        <time>2014-05-18T11:21:09Z</time>
      </trkpt>
      <trkpt lat="42.43193" lon="0.08302">
        <ele>581.73</ele>
        <time>2014-05-18T11:21:11Z</time>
      </trkpt>
      <trkpt lat="42.4321" lon="0.08339">
        <ele>580.77</ele>
        <time>2014-05-18T11:21:17Z</time>
      </trkpt>
      <trkpt lat="42.43225" lon="0.08359">
        <ele>581.25</ele>
        <time>2014-05-18T11:21:21Z</time>
      </trkpt>
      <trkpt lat="42.43231" lon="0.08368">
        <ele>581.25</ele>
        <time>2014-05-18T11:21:23Z</time>
      </trkpt>
      <trkpt lat="42.43236" lon="0.08377">
        <ele>581.73</ele>
        <time>2014-05-18T11:21:25Z</time>
      </trkpt>
      <trkpt lat="42.43258" lon="0.08389">
        <ele>581.25</ele>
        <time>2014-05-18T11:21:30Z</time>
      </trkpt>
      <trkpt lat="42.43277" lon="0.08415">
        <ele>580.29</ele>
        <time>2014-05-18T11:21:35Z</time>
      </trkpt>
      <trkpt lat="42.43293" lon="0.08436">
        <ele>580.77</ele>
        <time>2014-05-18T11:21:40Z</time>
      </trkpt>
      <trkpt lat="42.43292" lon="0.08435">
        <ele>580.77</ele>
        <time>2014-05-18T11:21:46Z</time>
      </trkpt>
      <trkpt lat="42.43293" lon="0.08434">
        <ele>580.29</ele>
        <time>2014-05-18T11:21:59Z</time>
      </trkpt>
      <trkpt lat="42.43294" lon="0.08432">
        <ele>580.29</ele>
        <time>2014-05-18T11:22:07Z</time>
      </trkpt>
      <trkpt lat="42.43293" lon="0.08432">
        <ele>578.85</ele>
        <time>2014-05-18T11:22:33Z</time>
      </trkpt>
    </trkseg>
  </trk>
</gpx>